<?xml version="1.0" encoding="UTF-8" standalone="no" ?>
<gpx xmlns="http://www.topografix.com/GPX/1/1" xmlns:xsi="http://www.w3.org/2001/XMLSchema-instance" xsi:schemaLocation="http://www.topografix.com/GPX/1/1 http://www.topografix.com/GPX/1/1/gpx.xsd" version="1.1" creator="VisuGPX - https://www.visugpx.com">
  <metadata>
    <name>RoadTrip Moto Ecosse Juin 2021 - V3</name>
  </metadata>
  <trk>
    <name><![CDATA[J07 - Baile Raghnaill - Applecross, IV54 8ND, Royaume-Uni]]></name>
    <extensions>
      <line xmlns="http://www.topografix.com/GPX/gpx_style/0/2">
        <color>880000</color>
        <width>4</width>
      </line>
    </extensions>
    <trkseg>
      <trkpt lat="57.5861" lon="-7.47577">
        <ele>13.99</ele>
        <time>2021-03-20T14:17:30Z</time>
      </trkpt>
      <trkpt lat="57.58613" lon="-7.47568">
        <ele>13.98</ele>
        <time>2021-03-20T14:17:31Z</time>
      </trkpt>
      <trkpt lat="57.5874" lon="-7.47668">
        <ele>11.36</ele>
        <time>2021-03-20T14:17:40Z</time>
      </trkpt>
      <trkpt lat="57.58763" lon="-7.47671">
        <ele>11</ele>
        <time>2021-03-20T14:17:49Z</time>
      </trkpt>
      <trkpt lat="57.58786" lon="-7.4766">
        <ele>10.72</ele>
        <time>2021-03-20T14:17:58Z</time>
      </trkpt>
      <trkpt lat="57.58808" lon="-7.47611">
        <ele>10.87</ele>
        <time>2021-03-20T14:18:07Z</time>
      </trkpt>
      <trkpt lat="57.58818" lon="-7.47525">
        <ele>12.2</ele>
        <time>2021-03-20T14:18:16Z</time>
      </trkpt>
      <trkpt lat="57.58926" lon="-7.47133">
        <ele>9.8</ele>
        <time>2021-03-20T14:18:25Z</time>
      </trkpt>
      <trkpt lat="57.58979" lon="-7.46979">
        <ele>10.24</ele>
        <time>2021-03-20T14:18:34Z</time>
      </trkpt>
      <trkpt lat="57.5899" lon="-7.46924">
        <ele>10.65</ele>
        <time>2021-03-20T14:18:43Z</time>
      </trkpt>
      <trkpt lat="57.58959" lon="-7.46851">
        <ele>10</ele>
        <time>2021-03-20T14:18:47Z</time>
      </trkpt>
      <trkpt lat="57.58935" lon="-7.46776">
        <ele>9.65</ele>
        <time>2021-03-20T14:18:51Z</time>
      </trkpt>
      <trkpt lat="57.58924" lon="-7.46691">
        <ele>8.51</ele>
        <time>2021-03-20T14:18:55Z</time>
      </trkpt>
      <trkpt lat="57.58916" lon="-7.46655">
        <ele>8.41</ele>
        <time>2021-03-20T14:18:59Z</time>
      </trkpt>
      <trkpt lat="57.58902" lon="-7.46624">
        <ele>9.04</ele>
        <time>2021-03-20T14:19:03Z</time>
      </trkpt>
      <trkpt lat="57.58886" lon="-7.466">
        <ele>9.12</ele>
        <time>2021-03-20T14:19:06Z</time>
      </trkpt>
      <trkpt lat="57.58863" lon="-7.46592">
        <ele>9.92</ele>
        <time>2021-03-20T14:19:10Z</time>
      </trkpt>
      <trkpt lat="57.58848" lon="-7.46592">
        <ele>10</ele>
        <time>2021-03-20T14:19:14Z</time>
      </trkpt>
      <trkpt lat="57.58837" lon="-7.46573">
        <ele>10</ele>
        <time>2021-03-20T14:19:18Z</time>
      </trkpt>
      <trkpt lat="57.5883" lon="-7.4655">
        <ele>10</ele>
        <time>2021-03-20T14:19:22Z</time>
      </trkpt>
      <trkpt lat="57.58803" lon="-7.46355">
        <ele>10.67</ele>
        <time>2021-03-20T14:19:25Z</time>
      </trkpt>
      <trkpt lat="57.58803" lon="-7.46326">
        <ele>9.91</ele>
        <time>2021-03-20T14:19:29Z</time>
      </trkpt>
      <trkpt lat="57.58814" lon="-7.46249">
        <ele>9.27</ele>
        <time>2021-03-20T14:19:33Z</time>
      </trkpt>
      <trkpt lat="57.58824" lon="-7.46224">
        <ele>9.36</ele>
        <time>2021-03-20T14:19:37Z</time>
      </trkpt>
      <trkpt lat="57.58858" lon="-7.46179">
        <ele>10.32</ele>
        <time>2021-03-20T14:19:41Z</time>
      </trkpt>
      <trkpt lat="57.58869" lon="-7.46159">
        <ele>10.27</ele>
        <time>2021-03-20T14:19:45Z</time>
      </trkpt>
      <trkpt lat="57.58872" lon="-7.46125">
        <ele>9.89</ele>
        <time>2021-03-20T14:19:48Z</time>
      </trkpt>
      <trkpt lat="57.58867" lon="-7.46095">
        <ele>9.23</ele>
        <time>2021-03-20T14:19:52Z</time>
      </trkpt>
      <trkpt lat="57.58827" lon="-7.4601">
        <ele>8.92</ele>
        <time>2021-03-20T14:19:56Z</time>
      </trkpt>
      <trkpt lat="57.58786" lon="-7.45945">
        <ele>9.97</ele>
        <time>2021-03-20T14:20:00Z</time>
      </trkpt>
      <trkpt lat="57.58813" lon="-7.45791">
        <ele>12.52</ele>
        <time>2021-03-20T14:20:09Z</time>
      </trkpt>
      <trkpt lat="57.58847" lon="-7.45702">
        <ele>12.52</ele>
        <time>2021-03-20T14:20:18Z</time>
      </trkpt>
      <trkpt lat="57.58964" lon="-7.45511">
        <ele>12</ele>
        <time>2021-03-20T14:20:28Z</time>
      </trkpt>
      <trkpt lat="57.58986" lon="-7.45506">
        <ele>12.58</ele>
        <time>2021-03-20T14:20:37Z</time>
      </trkpt>
      <trkpt lat="57.58899" lon="-7.45197">
        <ele>8.24</ele>
        <time>2021-03-20T14:20:44Z</time>
      </trkpt>
      <trkpt lat="57.58818" lon="-7.44685">
        <ele>5.66</ele>
        <time>2021-03-20T14:20:51Z</time>
      </trkpt>
      <trkpt lat="57.58791" lon="-7.44431">
        <ele>3</ele>
        <time>2021-03-20T14:20:59Z</time>
      </trkpt>
      <trkpt lat="57.58787" lon="-7.44382">
        <ele>3.66</ele>
        <time>2021-03-20T14:21:06Z</time>
      </trkpt>
      <trkpt lat="57.58791" lon="-7.44342">
        <ele>3.53</ele>
        <time>2021-03-20T14:21:13Z</time>
      </trkpt>
      <trkpt lat="57.58813" lon="-7.44209">
        <ele>4.27</ele>
        <time>2021-03-20T14:21:20Z</time>
      </trkpt>
      <trkpt lat="57.58814" lon="-7.44129">
        <ele>4.66</ele>
        <time>2021-03-20T14:21:27Z</time>
      </trkpt>
      <trkpt lat="57.58784" lon="-7.4393">
        <ele>6.21</ele>
        <time>2021-03-20T14:21:35Z</time>
      </trkpt>
      <trkpt lat="57.58756" lon="-7.43776">
        <ele>6.2</ele>
        <time>2021-03-20T14:21:42Z</time>
      </trkpt>
      <trkpt lat="57.58648" lon="-7.43229">
        <ele>8</ele>
        <time>2021-03-20T14:21:49Z</time>
      </trkpt>
      <trkpt lat="57.58493" lon="-7.42611">
        <ele>4.74</ele>
        <time>2021-03-20T14:21:56Z</time>
      </trkpt>
      <trkpt lat="57.58389" lon="-7.42211">
        <ele>4.01</ele>
        <time>2021-03-20T14:22:04Z</time>
      </trkpt>
      <trkpt lat="57.58348" lon="-7.42068">
        <ele>5.79</ele>
        <time>2021-03-20T14:22:11Z</time>
      </trkpt>
      <trkpt lat="57.58301" lon="-7.41878">
        <ele>3</ele>
        <time>2021-03-20T14:22:18Z</time>
      </trkpt>
      <trkpt lat="57.58294" lon="-7.4186">
        <ele>3</ele>
        <time>2021-03-20T14:22:25Z</time>
      </trkpt>
      <trkpt lat="57.58282" lon="-7.41837">
        <ele>3</ele>
        <time>2021-03-20T14:22:32Z</time>
      </trkpt>
      <trkpt lat="57.58253" lon="-7.41788">
        <ele>3.63</ele>
        <time>2021-03-20T14:22:40Z</time>
      </trkpt>
      <trkpt lat="57.58219" lon="-7.41743">
        <ele>3.78</ele>
        <time>2021-03-20T14:22:47Z</time>
      </trkpt>
      <trkpt lat="57.58068" lon="-7.41593">
        <ele>2</ele>
        <time>2021-03-20T14:22:54Z</time>
      </trkpt>
      <trkpt lat="57.5799" lon="-7.41511">
        <ele>1.75</ele>
        <time>2021-03-20T14:23:01Z</time>
      </trkpt>
      <trkpt lat="57.57975" lon="-7.41485">
        <ele>1.42</ele>
        <time>2021-03-20T14:23:08Z</time>
      </trkpt>
      <trkpt lat="57.57959" lon="-7.41435">
        <ele>0.47</ele>
        <time>2021-03-20T14:23:16Z</time>
      </trkpt>
      <trkpt lat="57.57938" lon="-7.41355">
        <ele>0.22</ele>
        <time>2021-03-20T14:23:23Z</time>
      </trkpt>
      <trkpt lat="57.5793" lon="-7.41296">
        <ele>1.19</ele>
        <time>2021-03-20T14:23:30Z</time>
      </trkpt>
      <trkpt lat="57.57929" lon="-7.41185">
        <ele>2.33</ele>
        <time>2021-03-20T14:23:37Z</time>
      </trkpt>
      <trkpt lat="57.5793" lon="-7.4115">
        <ele>3</ele>
        <time>2021-03-20T14:23:44Z</time>
      </trkpt>
      <trkpt lat="57.57926" lon="-7.41101">
        <ele>3</ele>
        <time>2021-03-20T14:23:52Z</time>
      </trkpt>
      <trkpt lat="57.57914" lon="-7.41042">
        <ele>3</ele>
        <time>2021-03-20T14:23:59Z</time>
      </trkpt>
      <trkpt lat="57.57898" lon="-7.41001">
        <ele>3.64</ele>
        <time>2021-03-20T14:24:06Z</time>
      </trkpt>
      <trkpt lat="57.57843" lon="-7.40905">
        <ele>4.81</ele>
        <time>2021-03-20T14:24:13Z</time>
      </trkpt>
      <trkpt lat="57.57762" lon="-7.40783">
        <ele>8.39</ele>
        <time>2021-03-20T14:24:21Z</time>
      </trkpt>
      <trkpt lat="57.57615" lon="-7.4054">
        <ele>9.13</ele>
        <time>2021-03-20T14:24:28Z</time>
      </trkpt>
      <trkpt lat="57.57515" lon="-7.4038">
        <ele>11</ele>
        <time>2021-03-20T14:24:35Z</time>
      </trkpt>
      <trkpt lat="57.57377" lon="-7.4015">
        <ele>9</ele>
        <time>2021-03-20T14:24:42Z</time>
      </trkpt>
      <trkpt lat="57.57263" lon="-7.3997">
        <ele>10.96</ele>
        <time>2021-03-20T14:24:49Z</time>
      </trkpt>
      <trkpt lat="57.57171" lon="-7.39813">
        <ele>13</ele>
        <time>2021-03-20T14:24:57Z</time>
      </trkpt>
      <trkpt lat="57.57053" lon="-7.39553">
        <ele>12.91</ele>
        <time>2021-03-20T14:25:04Z</time>
      </trkpt>
      <trkpt lat="57.56992" lon="-7.39409">
        <ele>11</ele>
        <time>2021-03-20T14:25:11Z</time>
      </trkpt>
      <trkpt lat="57.56945" lon="-7.39305">
        <ele>11</ele>
        <time>2021-03-20T14:25:18Z</time>
      </trkpt>
      <trkpt lat="57.5684" lon="-7.39064">
        <ele>10.24</ele>
        <time>2021-03-20T14:25:25Z</time>
      </trkpt>
      <trkpt lat="57.5661" lon="-7.38519">
        <ele>4</ele>
        <time>2021-03-20T14:25:33Z</time>
      </trkpt>
      <trkpt lat="57.56573" lon="-7.38426">
        <ele>4.37</ele>
        <time>2021-03-20T14:25:40Z</time>
      </trkpt>
      <trkpt lat="57.56196" lon="-7.3753">
        <ele>5.05</ele>
        <time>2021-03-20T14:25:47Z</time>
      </trkpt>
      <trkpt lat="57.55938" lon="-7.36888">
        <ele>4.76</ele>
        <time>2021-03-20T14:25:54Z</time>
      </trkpt>
      <trkpt lat="57.55927" lon="-7.36853">
        <ele>4.64</ele>
        <time>2021-03-20T14:26:01Z</time>
      </trkpt>
      <trkpt lat="57.5584" lon="-7.36547">
        <ele>5.24</ele>
        <time>2021-03-20T14:26:09Z</time>
      </trkpt>
      <trkpt lat="57.55773" lon="-7.36277">
        <ele>7.83</ele>
        <time>2021-03-20T14:26:16Z</time>
      </trkpt>
      <trkpt lat="57.55684" lon="-7.35685">
        <ele>13</ele>
        <time>2021-03-20T14:26:23Z</time>
      </trkpt>
      <trkpt lat="57.55534" lon="-7.3454">
        <ele>15.22</ele>
        <time>2021-03-20T14:26:30Z</time>
      </trkpt>
      <trkpt lat="57.55531" lon="-7.34499">
        <ele>15.09</ele>
        <time>2021-03-20T14:26:37Z</time>
      </trkpt>
      <trkpt lat="57.55509" lon="-7.33789">
        <ele>3.44</ele>
        <time>2021-03-20T14:26:45Z</time>
      </trkpt>
      <trkpt lat="57.55504" lon="-7.33756">
        <ele>3.15</ele>
        <time>2021-03-20T14:26:52Z</time>
      </trkpt>
      <trkpt lat="57.55491" lon="-7.3372">
        <ele>3.05</ele>
        <time>2021-03-20T14:26:59Z</time>
      </trkpt>
      <trkpt lat="57.55424" lon="-7.33615">
        <ele>3.13</ele>
        <time>2021-03-20T14:27:06Z</time>
      </trkpt>
      <trkpt lat="57.55397" lon="-7.33578">
        <ele>4.26</ele>
        <time>2021-03-20T14:27:14Z</time>
      </trkpt>
      <trkpt lat="57.55319" lon="-7.33451">
        <ele>4.37</ele>
        <time>2021-03-20T14:27:21Z</time>
      </trkpt>
      <trkpt lat="57.55374" lon="-7.33316">
        <ele>6.14</ele>
        <time>2021-03-20T14:27:27Z</time>
      </trkpt>
      <trkpt lat="57.5558" lon="-7.3279">
        <ele>15.16</ele>
        <time>2021-03-20T14:27:33Z</time>
      </trkpt>
      <trkpt lat="57.55642" lon="-7.32642">
        <ele>16.47</ele>
        <time>2021-03-20T14:27:40Z</time>
      </trkpt>
      <trkpt lat="57.55707" lon="-7.3251">
        <ele>16.59</ele>
        <time>2021-03-20T14:27:46Z</time>
      </trkpt>
      <trkpt lat="57.55785" lon="-7.3236">
        <ele>11.91</ele>
        <time>2021-03-20T14:27:52Z</time>
      </trkpt>
      <trkpt lat="57.55913" lon="-7.32134">
        <ele>6.82</ele>
        <time>2021-03-20T14:27:59Z</time>
      </trkpt>
      <trkpt lat="57.56091" lon="-7.31813">
        <ele>9</ele>
        <time>2021-03-20T14:28:05Z</time>
      </trkpt>
      <trkpt lat="57.56321" lon="-7.3141">
        <ele>6</ele>
        <time>2021-03-20T14:28:11Z</time>
      </trkpt>
      <trkpt lat="57.56391" lon="-7.31279">
        <ele>8.08</ele>
        <time>2021-03-20T14:28:18Z</time>
      </trkpt>
      <trkpt lat="57.56501" lon="-7.31095">
        <ele>8.04</ele>
        <time>2021-03-20T14:28:24Z</time>
      </trkpt>
      <trkpt lat="57.567" lon="-7.30633">
        <ele>12</ele>
        <time>2021-03-20T14:28:30Z</time>
      </trkpt>
      <trkpt lat="57.56917" lon="-7.30143">
        <ele>8.16</ele>
        <time>2021-03-20T14:28:37Z</time>
      </trkpt>
      <trkpt lat="57.56957" lon="-7.30039">
        <ele>5</ele>
        <time>2021-03-20T14:28:43Z</time>
      </trkpt>
      <trkpt lat="57.5713" lon="-7.29633">
        <ele>12.22</ele>
        <time>2021-03-20T14:28:49Z</time>
      </trkpt>
      <trkpt lat="57.57148" lon="-7.29596">
        <ele>12.67</ele>
        <time>2021-03-20T14:28:56Z</time>
      </trkpt>
      <trkpt lat="57.57203" lon="-7.29442">
        <ele>12.47</ele>
        <time>2021-03-20T14:29:02Z</time>
      </trkpt>
      <trkpt lat="57.5725" lon="-7.29263">
        <ele>14.5</ele>
        <time>2021-03-20T14:29:08Z</time>
      </trkpt>
      <trkpt lat="57.57302" lon="-7.29027">
        <ele>19.59</ele>
        <time>2021-03-20T14:29:15Z</time>
      </trkpt>
      <trkpt lat="57.57336" lon="-7.28769">
        <ele>22.75</ele>
        <time>2021-03-20T14:29:21Z</time>
      </trkpt>
      <trkpt lat="57.57345" lon="-7.28524">
        <ele>21.77</ele>
        <time>2021-03-20T14:29:27Z</time>
      </trkpt>
      <trkpt lat="57.57341" lon="-7.28371">
        <ele>21.96</ele>
        <time>2021-03-20T14:29:34Z</time>
      </trkpt>
      <trkpt lat="57.57326" lon="-7.28173">
        <ele>21.04</ele>
        <time>2021-03-20T14:29:40Z</time>
      </trkpt>
      <trkpt lat="57.57281" lon="-7.27773">
        <ele>12.74</ele>
        <time>2021-03-20T14:29:46Z</time>
      </trkpt>
      <trkpt lat="57.57275" lon="-7.27648">
        <ele>14</ele>
        <time>2021-03-20T14:29:53Z</time>
      </trkpt>
      <trkpt lat="57.57279" lon="-7.2749">
        <ele>11.96</ele>
        <time>2021-03-20T14:29:59Z</time>
      </trkpt>
      <trkpt lat="57.57296" lon="-7.27316">
        <ele>12.33</ele>
        <time>2021-03-20T14:30:05Z</time>
      </trkpt>
      <trkpt lat="57.5732" lon="-7.27174">
        <ele>13.35</ele>
        <time>2021-03-20T14:30:12Z</time>
      </trkpt>
      <trkpt lat="57.57353" lon="-7.27045">
        <ele>12.6</ele>
        <time>2021-03-20T14:30:18Z</time>
      </trkpt>
      <trkpt lat="57.57406" lon="-7.26891">
        <ele>12.31</ele>
        <time>2021-03-20T14:30:24Z</time>
      </trkpt>
      <trkpt lat="57.57674" lon="-7.26285">
        <ele>10.27</ele>
        <time>2021-03-20T14:30:31Z</time>
      </trkpt>
      <trkpt lat="57.57776" lon="-7.26058">
        <ele>11.1</ele>
        <time>2021-03-20T14:30:37Z</time>
      </trkpt>
      <trkpt lat="57.57861" lon="-7.25858">
        <ele>11</ele>
        <time>2021-03-20T14:30:43Z</time>
      </trkpt>
      <trkpt lat="57.57895" lon="-7.25769">
        <ele>12.21</ele>
        <time>2021-03-20T14:30:50Z</time>
      </trkpt>
      <trkpt lat="57.58286" lon="-7.24209">
        <ele>8.7</ele>
        <time>2021-03-20T14:30:56Z</time>
      </trkpt>
      <trkpt lat="57.5834" lon="-7.24047">
        <ele>8.78</ele>
        <time>2021-03-20T14:31:02Z</time>
      </trkpt>
      <trkpt lat="57.58641" lon="-7.23439">
        <ele>10.26</ele>
        <time>2021-03-20T14:31:09Z</time>
      </trkpt>
      <trkpt lat="57.58698" lon="-7.23294">
        <ele>11.32</ele>
        <time>2021-03-20T14:31:15Z</time>
      </trkpt>
      <trkpt lat="57.58777" lon="-7.23025">
        <ele>14</ele>
        <time>2021-03-20T14:31:21Z</time>
      </trkpt>
      <trkpt lat="57.58817" lon="-7.2291">
        <ele>13.77</ele>
        <time>2021-03-20T14:31:27Z</time>
      </trkpt>
      <trkpt lat="57.59057" lon="-7.22359">
        <ele>9.91</ele>
        <time>2021-03-20T14:31:34Z</time>
      </trkpt>
      <trkpt lat="57.59091" lon="-7.22267">
        <ele>10.56</ele>
        <time>2021-03-20T14:31:40Z</time>
      </trkpt>
      <trkpt lat="57.59121" lon="-7.22172">
        <ele>12.88</ele>
        <time>2021-03-20T14:31:46Z</time>
      </trkpt>
      <trkpt lat="57.59147" lon="-7.22059">
        <ele>14</ele>
        <time>2021-03-20T14:31:53Z</time>
      </trkpt>
      <trkpt lat="57.5917" lon="-7.21942">
        <ele>13</ele>
        <time>2021-03-20T14:31:59Z</time>
      </trkpt>
      <trkpt lat="57.59359" lon="-7.20837">
        <ele>8.99</ele>
        <time>2021-03-20T14:32:05Z</time>
      </trkpt>
      <trkpt lat="57.59378" lon="-7.20695">
        <ele>9</ele>
        <time>2021-03-20T14:32:12Z</time>
      </trkpt>
      <trkpt lat="57.59396" lon="-7.20445">
        <ele>10.73</ele>
        <time>2021-03-20T14:32:18Z</time>
      </trkpt>
      <trkpt lat="57.59419" lon="-7.20181">
        <ele>11.36</ele>
        <time>2021-03-20T14:32:24Z</time>
      </trkpt>
      <trkpt lat="57.59428" lon="-7.2008">
        <ele>12.11</ele>
        <time>2021-03-20T14:32:31Z</time>
      </trkpt>
      <trkpt lat="57.59442" lon="-7.19986">
        <ele>11.62</ele>
        <time>2021-03-20T14:32:37Z</time>
      </trkpt>
      <trkpt lat="57.59455" lon="-7.19915">
        <ele>12.69</ele>
        <time>2021-03-20T14:32:43Z</time>
      </trkpt>
      <trkpt lat="57.59515" lon="-7.1965">
        <ele>15.06</ele>
        <time>2021-03-20T14:32:50Z</time>
      </trkpt>
      <trkpt lat="57.59544" lon="-7.19546">
        <ele>17</ele>
        <time>2021-03-20T14:32:56Z</time>
      </trkpt>
      <trkpt lat="57.59619" lon="-7.19309">
        <ele>14.42</ele>
        <time>2021-03-20T14:33:02Z</time>
      </trkpt>
      <trkpt lat="57.59664" lon="-7.19152">
        <ele>8.41</ele>
        <time>2021-03-20T14:33:09Z</time>
      </trkpt>
      <trkpt lat="57.59711" lon="-7.19044">
        <ele>9</ele>
        <time>2021-03-20T14:33:15Z</time>
      </trkpt>
      <trkpt lat="57.59729" lon="-7.18988">
        <ele>10.5</ele>
        <time>2021-03-20T14:33:21Z</time>
      </trkpt>
      <trkpt lat="57.59741" lon="-7.18936">
        <ele>11.32</ele>
        <time>2021-03-20T14:33:28Z</time>
      </trkpt>
      <trkpt lat="57.59762" lon="-7.18742">
        <ele>11.28</ele>
        <time>2021-03-20T14:33:34Z</time>
      </trkpt>
      <trkpt lat="57.59779" lon="-7.18623">
        <ele>12.62</ele>
        <time>2021-03-20T14:33:40Z</time>
      </trkpt>
      <trkpt lat="57.59817" lon="-7.18512">
        <ele>12.44</ele>
        <time>2021-03-20T14:33:47Z</time>
      </trkpt>
      <trkpt lat="57.59954" lon="-7.17906">
        <ele>3.04</ele>
        <time>2021-03-20T14:33:53Z</time>
      </trkpt>
      <trkpt lat="57.59995" lon="-7.17821">
        <ele>5.15</ele>
        <time>2021-03-20T14:33:59Z</time>
      </trkpt>
      <trkpt lat="57.60024" lon="-7.17789">
        <ele>6.59</ele>
        <time>2021-03-20T14:34:06Z</time>
      </trkpt>
      <trkpt lat="57.60055" lon="-7.1777">
        <ele>7</ele>
        <time>2021-03-20T14:34:12Z</time>
      </trkpt>
      <trkpt lat="57.60076" lon="-7.17765">
        <ele>6.27</ele>
        <time>2021-03-20T14:34:18Z</time>
      </trkpt>
      <trkpt lat="57.60107" lon="-7.17765">
        <ele>6.86</ele>
        <time>2021-03-20T14:34:25Z</time>
      </trkpt>
      <trkpt lat="57.60129" lon="-7.1777">
        <ele>7.65</ele>
        <time>2021-03-20T14:34:31Z</time>
      </trkpt>
      <trkpt lat="57.60249" lon="-7.17823">
        <ele>5</ele>
        <time>2021-03-20T14:34:37Z</time>
      </trkpt>
      <trkpt lat="57.60276" lon="-7.17831">
        <ele>4.07</ele>
        <time>2021-03-20T14:34:44Z</time>
      </trkpt>
      <trkpt lat="57.60329" lon="-7.17838">
        <ele>3</ele>
        <time>2021-03-20T14:34:50Z</time>
      </trkpt>
      <trkpt lat="57.60356" lon="-7.17837">
        <ele>4.66</ele>
        <time>2021-03-20T14:34:56Z</time>
      </trkpt>
      <trkpt lat="57.60414" lon="-7.17822">
        <ele>8.81</ele>
        <time>2021-03-20T14:35:03Z</time>
      </trkpt>
      <trkpt lat="57.60449" lon="-7.17806">
        <ele>11.15</ele>
        <time>2021-03-20T14:35:09Z</time>
      </trkpt>
      <trkpt lat="57.60473" lon="-7.17791">
        <ele>12.51</ele>
        <time>2021-03-20T14:35:15Z</time>
      </trkpt>
      <trkpt lat="57.60507" lon="-7.17765">
        <ele>13.2</ele>
        <time>2021-03-20T14:35:22Z</time>
      </trkpt>
      <trkpt lat="57.60549" lon="-7.17727">
        <ele>12.36</ele>
        <time>2021-03-20T14:35:28Z</time>
      </trkpt>
      <trkpt lat="57.60579" lon="-7.17695">
        <ele>11.16</ele>
        <time>2021-03-20T14:35:34Z</time>
      </trkpt>
      <trkpt lat="57.60595" lon="-7.17673">
        <ele>11.35</ele>
        <time>2021-03-20T14:35:41Z</time>
      </trkpt>
      <trkpt lat="57.60605" lon="-7.17655">
        <ele>11.64</ele>
        <time>2021-03-20T14:35:47Z</time>
      </trkpt>
      <trkpt lat="57.6062" lon="-7.17613">
        <ele>12.91</ele>
        <time>2021-03-20T14:35:53Z</time>
      </trkpt>
      <trkpt lat="57.60629" lon="-7.17567">
        <ele>13.96</ele>
        <time>2021-03-20T14:36:00Z</time>
      </trkpt>
      <trkpt lat="57.60631" lon="-7.17546">
        <ele>14.3</ele>
        <time>2021-03-20T14:36:06Z</time>
      </trkpt>
      <trkpt lat="57.60632" lon="-7.17517">
        <ele>14.25</ele>
        <time>2021-03-20T14:36:12Z</time>
      </trkpt>
      <trkpt lat="57.6063" lon="-7.17482">
        <ele>14.31</ele>
        <time>2021-03-20T14:36:19Z</time>
      </trkpt>
      <trkpt lat="57.60624" lon="-7.1744">
        <ele>14.54</ele>
        <time>2021-03-20T14:36:25Z</time>
      </trkpt>
      <trkpt lat="57.60616" lon="-7.17413">
        <ele>14.69</ele>
        <time>2021-03-20T14:36:31Z</time>
      </trkpt>
      <trkpt lat="57.60622" lon="-7.17397">
        <ele>13.91</ele>
        <time>2021-03-20T14:36:34Z</time>
      </trkpt>
      <trkpt lat="57.60624" lon="-7.17376">
        <ele>13.28</ele>
        <time>2021-03-20T14:36:37Z</time>
      </trkpt>
      <trkpt lat="57.60637" lon="-7.17005">
        <ele>8</ele>
        <time>2021-03-20T14:36:40Z</time>
      </trkpt>
      <trkpt lat="57.60614" lon="-7.16765">
        <ele>9.9</ele>
        <time>2021-03-20T14:36:43Z</time>
      </trkpt>
      <trkpt lat="57.60595" lon="-7.16658">
        <ele>9.58</ele>
        <time>2021-03-20T14:36:46Z</time>
      </trkpt>
      <trkpt lat="57.60559" lon="-7.16518">
        <ele>10.34</ele>
        <time>2021-03-20T14:36:49Z</time>
      </trkpt>
      <trkpt lat="57.60454" lon="-7.16215">
        <ele>11</ele>
        <time>2021-03-20T14:36:52Z</time>
      </trkpt>
      <trkpt lat="57.60445" lon="-7.16197">
        <ele>11</ele>
        <time>2021-03-20T14:36:55Z</time>
      </trkpt>
      <trkpt lat="57.60439" lon="-7.16192">
        <ele>10.81</ele>
        <time>2021-03-20T14:36:58Z</time>
      </trkpt>
      <trkpt lat="57.60429" lon="-7.16189">
        <ele>10.45</ele>
        <time>2021-03-20T14:37:01Z</time>
      </trkpt>
      <trkpt lat="57.60408" lon="-7.1619">
        <ele>9.4</ele>
        <time>2021-03-20T14:37:04Z</time>
      </trkpt>
      <trkpt lat="57.60385" lon="-7.16203">
        <ele>7.88</ele>
        <time>2021-03-20T14:37:07Z</time>
      </trkpt>
      <trkpt lat="57.6035" lon="-7.16235">
        <ele>6.39</ele>
        <time>2021-03-20T14:37:10Z</time>
      </trkpt>
      <trkpt lat="57.60336" lon="-7.16246">
        <ele>5.33</ele>
        <time>2021-03-20T14:37:13Z</time>
      </trkpt>
      <trkpt lat="57.60326" lon="-7.1625">
        <ele>5</ele>
        <time>2021-03-20T14:37:16Z</time>
      </trkpt>
      <trkpt lat="57.60246" lon="-7.16261">
        <ele>3.54</ele>
        <time>2021-03-20T14:37:19Z</time>
      </trkpt>
      <trkpt lat="57.60236" lon="-7.16269">
        <ele>4.17</ele>
        <time>2021-03-20T14:37:22Z</time>
      </trkpt>
      <trkpt lat="57.60213" lon="-7.16297">
        <ele>6.03</ele>
        <time>2021-03-20T14:37:25Z</time>
      </trkpt>
      <trkpt lat="57.60182" lon="-7.16354">
        <ele>8.85</ele>
        <time>2021-03-20T14:37:28Z</time>
      </trkpt>
      <trkpt lat="57.6016" lon="-7.16327">
        <ele>8.77</ele>
        <time>2021-03-20T14:37:32Z</time>
      </trkpt>
      <trkpt lat="57.60146" lon="-7.16305">
        <ele>7.98</ele>
        <time>2021-03-20T14:37:35Z</time>
      </trkpt>
      <trkpt lat="57.60062" lon="-7.16159">
        <ele>9.57</ele>
        <time>2021-03-20T14:37:39Z</time>
      </trkpt>
      <trkpt lat="57.60041" lon="-7.16127">
        <ele>10.5</ele>
        <time>2021-03-20T14:37:42Z</time>
      </trkpt>
      <trkpt lat="57.6002" lon="-7.16103">
        <ele>9.73</ele>
        <time>2021-03-20T14:37:46Z</time>
      </trkpt>
      <trkpt lat="57.59961" lon="-7.16049">
        <ele>8</ele>
        <time>2021-03-20T14:37:49Z</time>
      </trkpt>
      <trkpt lat="57.59909" lon="-7.15996">
        <ele>5.89</ele>
        <time>2021-03-20T14:37:52Z</time>
      </trkpt>
      <trkpt lat="57.5984" lon="-7.15912">
        <ele>5.82</ele>
        <time>2021-03-20T14:37:56Z</time>
      </trkpt>
      <trkpt lat="57.59738" lon="-7.15778">
        <ele>5</ele>
        <time>2021-03-20T14:37:59Z</time>
      </trkpt>
      <trkpt lat="57.59737" lon="-7.1578">
        <ele>4.47</ele>
        <time>2021-03-20T14:38:00Z</time>
      </trkpt>
      <trkpt lat="57.59737" lon="-7.1578">
        <ele>4.47</ele>
        <time>2021-03-20T14:38:00Z</time>
      </trkpt>
      <trkpt lat="57.59721" lon="-7.15804">
        <ele>3.94</ele>
        <time>2021-03-20T14:38:05Z</time>
      </trkpt>
      <trkpt lat="57.59695" lon="-7.15836">
        <ele>2.11</ele>
        <time>2021-03-20T14:38:10Z</time>
      </trkpt>
      <trkpt lat="57.5968" lon="-7.15843">
        <ele>1.66</ele>
        <time>2021-03-20T14:38:15Z</time>
      </trkpt>
      <trkpt lat="57.59674" lon="-7.15829">
        <ele>1.26</ele>
        <time>2021-03-20T14:39:52Z</time>
      </trkpt>
      <trkpt lat="57.59651" lon="-7.15749">
        <ele>1.54</ele>
        <time>2021-03-20T14:41:30Z</time>
      </trkpt>
      <trkpt lat="57.59574" lon="-7.15499">
        <ele>1.56</ele>
        <time>2021-03-20T14:43:07Z</time>
      </trkpt>
      <trkpt lat="57.59573" lon="-7.15458">
        <ele>1.56</ele>
        <time>2021-03-20T14:44:44Z</time>
      </trkpt>
      <trkpt lat="57.59592" lon="-7.15365">
        <ele>1.56</ele>
        <time>2021-03-20T14:46:21Z</time>
      </trkpt>
      <trkpt lat="57.59619" lon="-7.15282">
        <ele>1.57</ele>
        <time>2021-03-20T14:47:59Z</time>
      </trkpt>
      <trkpt lat="57.59665" lon="-7.15196">
        <ele>1.58</ele>
        <time>2021-03-20T14:49:36Z</time>
      </trkpt>
      <trkpt lat="57.59794" lon="-7.15047">
        <ele>1.59</ele>
        <time>2021-03-20T14:51:13Z</time>
      </trkpt>
      <trkpt lat="57.59849" lon="-7.14956">
        <ele>1.59</ele>
        <time>2021-03-20T14:52:50Z</time>
      </trkpt>
      <trkpt lat="57.59916" lon="-7.1473">
        <ele>1.61</ele>
        <time>2021-03-20T14:54:27Z</time>
      </trkpt>
      <trkpt lat="57.59972" lon="-7.14318">
        <ele>1.64</ele>
        <time>2021-03-20T14:56:05Z</time>
      </trkpt>
      <trkpt lat="57.60008" lon="-7.13769">
        <ele>1.67</ele>
        <time>2021-03-20T14:57:42Z</time>
      </trkpt>
      <trkpt lat="57.60045" lon="-7.13117">
        <ele>1.72</ele>
        <time>2021-03-20T14:59:19Z</time>
      </trkpt>
      <trkpt lat="57.601" lon="-7.12396">
        <ele>1.77</ele>
        <time>2021-03-20T15:00:56Z</time>
      </trkpt>
      <trkpt lat="57.60156" lon="-7.11537">
        <ele>1.83</ele>
        <time>2021-03-20T15:02:34Z</time>
      </trkpt>
      <trkpt lat="57.60211" lon="-7.10748">
        <ele>1.88</ele>
        <time>2021-03-20T15:04:11Z</time>
      </trkpt>
      <trkpt lat="57.60211" lon="-7.09992">
        <ele>1.93</ele>
        <time>2021-03-20T15:05:48Z</time>
      </trkpt>
      <trkpt lat="57.60247" lon="-7.08997">
        <ele>2</ele>
        <time>2021-03-20T15:07:25Z</time>
      </trkpt>
      <trkpt lat="57.60229" lon="-7.08001">
        <ele>2.07</ele>
        <time>2021-03-20T15:09:03Z</time>
      </trkpt>
      <trkpt lat="57.60192" lon="-7.0704">
        <ele>2.13</ele>
        <time>2021-03-20T15:10:40Z</time>
      </trkpt>
      <trkpt lat="57.60174" lon="-7.0625">
        <ele>2.18</ele>
        <time>2021-03-20T15:12:17Z</time>
      </trkpt>
      <trkpt lat="57.60119" lon="-7.05461">
        <ele>2.24</ele>
        <time>2021-03-20T15:13:54Z</time>
      </trkpt>
      <trkpt lat="57.60082" lon="-7.04499">
        <ele>2.3</ele>
        <time>2021-03-20T15:15:31Z</time>
      </trkpt>
      <trkpt lat="57.60045" lon="-7.03435">
        <ele>2.37</ele>
        <time>2021-03-20T15:17:09Z</time>
      </trkpt>
      <trkpt lat="57.60045" lon="-7.02989">
        <ele>2.4</ele>
        <time>2021-03-20T15:18:46Z</time>
      </trkpt>
      <trkpt lat="57.60064" lon="-7.02062">
        <ele>2.47</ele>
        <time>2021-03-20T15:20:23Z</time>
      </trkpt>
      <trkpt lat="57.60192" lon="-6.99933">
        <ele>2.61</ele>
        <time>2021-03-20T15:22:00Z</time>
      </trkpt>
      <trkpt lat="57.60303" lon="-6.97736">
        <ele>2.76</ele>
        <time>2021-03-20T15:23:38Z</time>
      </trkpt>
      <trkpt lat="57.60431" lon="-6.95538">
        <ele>2.91</ele>
        <time>2021-03-20T15:25:15Z</time>
      </trkpt>
      <trkpt lat="57.6056" lon="-6.93891">
        <ele>3.02</ele>
        <time>2021-03-20T15:26:52Z</time>
      </trkpt>
      <trkpt lat="57.60689" lon="-6.91728">
        <ele>3.17</ele>
        <time>2021-03-20T15:28:29Z</time>
      </trkpt>
      <trkpt lat="57.60781" lon="-6.89908">
        <ele>3.29</ele>
        <time>2021-03-20T15:30:07Z</time>
      </trkpt>
      <trkpt lat="57.60836" lon="-6.87882">
        <ele>3.43</ele>
        <time>2021-03-20T15:31:44Z</time>
      </trkpt>
      <trkpt lat="57.60928" lon="-6.85719">
        <ele>3.58</ele>
        <time>2021-03-20T15:33:21Z</time>
      </trkpt>
      <trkpt lat="57.60983" lon="-6.84998">
        <ele>3.63</ele>
        <time>2021-03-20T15:34:58Z</time>
      </trkpt>
      <trkpt lat="57.61002" lon="-6.83797">
        <ele>3.71</ele>
        <time>2021-03-20T15:36:36Z</time>
      </trkpt>
      <trkpt lat="57.61094" lon="-6.82321">
        <ele>3.81</ele>
        <time>2021-03-20T15:38:13Z</time>
      </trkpt>
      <trkpt lat="57.61167" lon="-6.80982">
        <ele>3.9</ele>
        <time>2021-03-20T15:39:50Z</time>
      </trkpt>
      <trkpt lat="57.61204" lon="-6.79952">
        <ele>3.97</ele>
        <time>2021-03-20T15:41:27Z</time>
      </trkpt>
      <trkpt lat="57.61259" lon="-6.79093">
        <ele>4.03</ele>
        <time>2021-03-20T15:43:04Z</time>
      </trkpt>
      <trkpt lat="57.61296" lon="-6.78166">
        <ele>4.09</ele>
        <time>2021-03-20T15:44:42Z</time>
      </trkpt>
      <trkpt lat="57.61333" lon="-6.76862">
        <ele>4.18</ele>
        <time>2021-03-20T15:46:19Z</time>
      </trkpt>
      <trkpt lat="57.61406" lon="-6.7566">
        <ele>4.26</ele>
        <time>2021-03-20T15:47:56Z</time>
      </trkpt>
      <trkpt lat="57.61517" lon="-6.73531">
        <ele>4.4</ele>
        <time>2021-03-20T15:49:33Z</time>
      </trkpt>
      <trkpt lat="57.61553" lon="-6.72467">
        <ele>4.47</ele>
        <time>2021-03-20T15:51:11Z</time>
      </trkpt>
      <trkpt lat="57.61627" lon="-6.71197">
        <ele>4.56</ele>
        <time>2021-03-20T15:52:48Z</time>
      </trkpt>
      <trkpt lat="57.61811" lon="-6.67661">
        <ele>4.8</ele>
        <time>2021-03-20T15:54:25Z</time>
      </trkpt>
      <trkpt lat="57.61903" lon="-6.66116">
        <ele>4.9</ele>
        <time>2021-03-20T15:56:02Z</time>
      </trkpt>
      <trkpt lat="57.61921" lon="-6.64811">
        <ele>4.99</ele>
        <time>2021-03-20T15:57:40Z</time>
      </trkpt>
      <trkpt lat="57.61958" lon="-6.63747">
        <ele>5.06</ele>
        <time>2021-03-20T15:59:17Z</time>
      </trkpt>
      <trkpt lat="57.61939" lon="-6.62717">
        <ele>5.13</ele>
        <time>2021-03-20T16:00:54Z</time>
      </trkpt>
      <trkpt lat="57.61884" lon="-6.61859">
        <ele>5.19</ele>
        <time>2021-03-20T16:02:31Z</time>
      </trkpt>
      <trkpt lat="57.61737" lon="-6.60623">
        <ele>5.27</ele>
        <time>2021-03-20T16:04:09Z</time>
      </trkpt>
      <trkpt lat="57.6148" lon="-6.58048">
        <ele>5.45</ele>
        <time>2021-03-20T16:05:46Z</time>
      </trkpt>
      <trkpt lat="57.61351" lon="-6.5688">
        <ele>5.53</ele>
        <time>2021-03-20T16:07:23Z</time>
      </trkpt>
      <trkpt lat="57.61167" lon="-6.55507">
        <ele>5.62</ele>
        <time>2021-03-20T16:09:00Z</time>
      </trkpt>
      <trkpt lat="57.61094" lon="-6.54717">
        <ele>5.67</ele>
        <time>2021-03-20T16:10:37Z</time>
      </trkpt>
      <trkpt lat="57.60965" lon="-6.53653">
        <ele>5.75</ele>
        <time>2021-03-20T16:12:15Z</time>
      </trkpt>
      <trkpt lat="57.60873" lon="-6.52692">
        <ele>5.81</ele>
        <time>2021-03-20T16:13:52Z</time>
      </trkpt>
      <trkpt lat="57.60763" lon="-6.51868">
        <ele>5.87</ele>
        <time>2021-03-20T16:15:29Z</time>
      </trkpt>
      <trkpt lat="57.60652" lon="-6.50941">
        <ele>5.93</ele>
        <time>2021-03-20T16:17:06Z</time>
      </trkpt>
      <trkpt lat="57.60395" lon="-6.49842">
        <ele>6.01</ele>
        <time>2021-03-20T16:18:44Z</time>
      </trkpt>
      <trkpt lat="57.60137" lon="-6.48915">
        <ele>6.07</ele>
        <time>2021-03-20T16:20:21Z</time>
      </trkpt>
      <trkpt lat="57.59861" lon="-6.47954">
        <ele>6.14</ele>
        <time>2021-03-20T16:21:58Z</time>
      </trkpt>
      <trkpt lat="57.59604" lon="-6.46752">
        <ele>6.22</ele>
        <time>2021-03-20T16:23:35Z</time>
      </trkpt>
      <trkpt lat="57.59291" lon="-6.45551">
        <ele>6.3</ele>
        <time>2021-03-20T16:25:13Z</time>
      </trkpt>
      <trkpt lat="57.5907" lon="-6.44486">
        <ele>6.38</ele>
        <time>2021-03-20T16:26:50Z</time>
      </trkpt>
      <trkpt lat="57.5872" lon="-6.42873">
        <ele>6.49</ele>
        <time>2021-03-20T16:28:27Z</time>
      </trkpt>
      <trkpt lat="57.585" lon="-6.41911">
        <ele>6.55</ele>
        <time>2021-03-20T16:30:04Z</time>
      </trkpt>
      <trkpt lat="57.58265" lon="-6.40542">
        <ele>6.65</ele>
        <time>2021-03-20T16:31:42Z</time>
      </trkpt>
      <trkpt lat="57.58076" lon="-6.3889">
        <ele>6.75</ele>
        <time>2021-03-20T16:33:19Z</time>
      </trkpt>
      <trkpt lat="57.58076" lon="-6.38238">
        <ele>6.8</ele>
        <time>2021-03-20T16:34:56Z</time>
      </trkpt>
      <trkpt lat="57.5813" lon="-6.37493">
        <ele>6.84</ele>
        <time>2021-03-20T16:36:33Z</time>
      </trkpt>
      <trkpt lat="57.5821" lon="-6.37189">
        <ele>6.85</ele>
        <time>2021-03-20T16:38:10Z</time>
      </trkpt>
      <trkpt lat="57.58372" lon="-6.371">
        <ele>6.86</ele>
        <time>2021-03-20T16:39:48Z</time>
      </trkpt>
      <trkpt lat="57.58456" lon="-6.37102">
        <ele>6.87</ele>
        <time>2021-03-20T16:41:25Z</time>
      </trkpt>
      <trkpt lat="57.58518" lon="-6.37175">
        <ele>6.87</ele>
        <time>2021-03-20T16:43:02Z</time>
      </trkpt>
      <trkpt lat="57.58525" lon="-6.3718">
        <ele>6.88</ele>
        <time>2021-03-20T16:44:39Z</time>
      </trkpt>
      <trkpt lat="57.58568" lon="-6.37185">
        <ele>9.9</ele>
        <time>2021-03-20T16:46:17Z</time>
      </trkpt>
      <trkpt lat="57.58582" lon="-6.37238">
        <ele>1</ele>
        <time>2021-03-20T16:47:54Z</time>
      </trkpt>
      <trkpt lat="57.586" lon="-6.37361">
        <ele>1</ele>
        <time>2021-03-20T16:49:31Z</time>
      </trkpt>
      <trkpt lat="57.58602" lon="-6.37416">
        <ele>1</ele>
        <time>2021-03-20T16:51:08Z</time>
      </trkpt>
      <trkpt lat="57.58628" lon="-6.37574">
        <ele>2.87</ele>
        <time>2021-03-20T16:52:46Z</time>
      </trkpt>
      <trkpt lat="57.58636" lon="-6.37633">
        <ele>3.77</ele>
        <time>2021-03-20T16:54:23Z</time>
      </trkpt>
      <trkpt lat="57.5864" lon="-6.37664">
        <ele>4.9</ele>
        <time>2021-03-20T16:56:00Z</time>
      </trkpt>
      <trkpt lat="57.58649" lon="-6.37682">
        <ele>5.18</ele>
        <time>2021-03-20T16:57:37Z</time>
      </trkpt>
      <trkpt lat="57.58661" lon="-6.37687">
        <ele>5.58</ele>
        <time>2021-03-20T16:59:15Z</time>
      </trkpt>
      <trkpt lat="57.58683" lon="-6.37675">
        <ele>5.29</ele>
        <time>2021-03-20T17:00:52Z</time>
      </trkpt>
      <trkpt lat="57.58759" lon="-6.37613">
        <ele>6.35</ele>
        <time>2021-03-20T17:02:29Z</time>
      </trkpt>
      <trkpt lat="57.58808" lon="-6.37558">
        <ele>5.59</ele>
        <time>2021-03-20T17:04:06Z</time>
      </trkpt>
      <trkpt lat="57.58842" lon="-6.37521">
        <ele>8.12</ele>
        <time>2021-03-20T17:05:43Z</time>
      </trkpt>
      <trkpt lat="57.58892" lon="-6.3745">
        <ele>6.91</ele>
        <time>2021-03-20T17:07:21Z</time>
      </trkpt>
      <trkpt lat="57.58918" lon="-6.37402">
        <ele>9.04</ele>
        <time>2021-03-20T17:08:58Z</time>
      </trkpt>
      <trkpt lat="57.58962" lon="-6.37312">
        <ele>7.99</ele>
        <time>2021-03-20T17:10:35Z</time>
      </trkpt>
      <trkpt lat="57.58997" lon="-6.37231">
        <ele>7.38</ele>
        <time>2021-03-20T17:12:12Z</time>
      </trkpt>
      <trkpt lat="57.59043" lon="-6.37101">
        <ele>8.81</ele>
        <time>2021-03-20T17:13:50Z</time>
      </trkpt>
      <trkpt lat="57.59078" lon="-6.3697">
        <ele>11.09</ele>
        <time>2021-03-20T17:15:27Z</time>
      </trkpt>
      <trkpt lat="57.59089" lon="-6.36909">
        <ele>11.52</ele>
        <time>2021-03-20T17:17:04Z</time>
      </trkpt>
      <trkpt lat="57.59098" lon="-6.36846">
        <ele>11.89</ele>
        <time>2021-03-20T17:18:41Z</time>
      </trkpt>
      <trkpt lat="57.59109" lon="-6.3675">
        <ele>13.55</ele>
        <time>2021-03-20T17:20:19Z</time>
      </trkpt>
      <trkpt lat="57.59117" lon="-6.366">
        <ele>14.97</ele>
        <time>2021-03-20T17:21:56Z</time>
      </trkpt>
      <trkpt lat="57.59123" lon="-6.36443">
        <ele>12.15</ele>
        <time>2021-03-20T17:23:33Z</time>
      </trkpt>
      <trkpt lat="57.59141" lon="-6.36247">
        <ele>11.33</ele>
        <time>2021-03-20T17:25:10Z</time>
      </trkpt>
      <trkpt lat="57.59193" lon="-6.35941">
        <ele>20.77</ele>
        <time>2021-03-20T17:26:48Z</time>
      </trkpt>
      <trkpt lat="57.59197" lon="-6.35899">
        <ele>21.47</ele>
        <time>2021-03-20T17:28:25Z</time>
      </trkpt>
      <trkpt lat="57.59215" lon="-6.359">
        <ele>24.4</ele>
        <time>2021-03-20T17:28:27Z</time>
      </trkpt>
      <trkpt lat="57.59199" lon="-6.35798">
        <ele>24.3</ele>
        <time>2021-03-20T17:28:32Z</time>
      </trkpt>
      <trkpt lat="57.59194" lon="-6.35784">
        <ele>23.1</ele>
        <time>2021-03-20T17:28:36Z</time>
      </trkpt>
      <trkpt lat="57.5918" lon="-6.3569">
        <ele>23.6</ele>
        <time>2021-03-20T17:28:40Z</time>
      </trkpt>
      <trkpt lat="57.59163" lon="-6.35633">
        <ele>23.57</ele>
        <time>2021-03-20T17:28:44Z</time>
      </trkpt>
      <trkpt lat="57.59141" lon="-6.35586">
        <ele>21.25</ele>
        <time>2021-03-20T17:28:49Z</time>
      </trkpt>
      <trkpt lat="57.59118" lon="-6.35559">
        <ele>21.16</ele>
        <time>2021-03-20T17:28:53Z</time>
      </trkpt>
      <trkpt lat="57.59091" lon="-6.35544">
        <ele>20.32</ele>
        <time>2021-03-20T17:28:57Z</time>
      </trkpt>
      <trkpt lat="57.59031" lon="-6.35521">
        <ele>19.09</ele>
        <time>2021-03-20T17:29:01Z</time>
      </trkpt>
      <trkpt lat="57.58954" lon="-6.35501">
        <ele>19.92</ele>
        <time>2021-03-20T17:29:05Z</time>
      </trkpt>
      <trkpt lat="57.58902" lon="-6.35495">
        <ele>19.3</ele>
        <time>2021-03-20T17:29:09Z</time>
      </trkpt>
      <trkpt lat="57.58881" lon="-6.355">
        <ele>20.21</ele>
        <time>2021-03-20T17:29:14Z</time>
      </trkpt>
      <trkpt lat="57.5884" lon="-6.35526">
        <ele>24.13</ele>
        <time>2021-03-20T17:29:18Z</time>
      </trkpt>
      <trkpt lat="57.58805" lon="-6.35553">
        <ele>23.58</ele>
        <time>2021-03-20T17:29:22Z</time>
      </trkpt>
      <trkpt lat="57.58757" lon="-6.356">
        <ele>25.54</ele>
        <time>2021-03-20T17:29:26Z</time>
      </trkpt>
      <trkpt lat="57.58708" lon="-6.35643">
        <ele>29.39</ele>
        <time>2021-03-20T17:29:30Z</time>
      </trkpt>
      <trkpt lat="57.58595" lon="-6.35713">
        <ele>37.14</ele>
        <time>2021-03-20T17:29:34Z</time>
      </trkpt>
      <trkpt lat="57.58549" lon="-6.35729">
        <ele>39.05</ele>
        <time>2021-03-20T17:29:39Z</time>
      </trkpt>
      <trkpt lat="57.58398" lon="-6.35737">
        <ele>48.82</ele>
        <time>2021-03-20T17:29:43Z</time>
      </trkpt>
      <trkpt lat="57.58362" lon="-6.35753">
        <ele>50.42</ele>
        <time>2021-03-20T17:29:47Z</time>
      </trkpt>
      <trkpt lat="57.58308" lon="-6.35793">
        <ele>54.8</ele>
        <time>2021-03-20T17:29:51Z</time>
      </trkpt>
      <trkpt lat="57.58267" lon="-6.35845">
        <ele>56.54</ele>
        <time>2021-03-20T17:29:55Z</time>
      </trkpt>
      <trkpt lat="57.58241" lon="-6.35889">
        <ele>55.91</ele>
        <time>2021-03-20T17:29:59Z</time>
      </trkpt>
      <trkpt lat="57.58189" lon="-6.35965">
        <ele>59.12</ele>
        <time>2021-03-20T17:30:04Z</time>
      </trkpt>
      <trkpt lat="57.58151" lon="-6.35997">
        <ele>62.73</ele>
        <time>2021-03-20T17:30:08Z</time>
      </trkpt>
      <trkpt lat="57.58119" lon="-6.36028">
        <ele>64.89</ele>
        <time>2021-03-20T17:30:12Z</time>
      </trkpt>
      <trkpt lat="57.58092" lon="-6.36075">
        <ele>68.22</ele>
        <time>2021-03-20T17:30:16Z</time>
      </trkpt>
      <trkpt lat="57.58067" lon="-6.36154">
        <ele>69.68</ele>
        <time>2021-03-20T17:30:20Z</time>
      </trkpt>
      <trkpt lat="57.58056" lon="-6.3618">
        <ele>69.33</ele>
        <time>2021-03-20T17:30:24Z</time>
      </trkpt>
      <trkpt lat="57.58035" lon="-6.36216">
        <ele>70.5</ele>
        <time>2021-03-20T17:30:29Z</time>
      </trkpt>
      <trkpt lat="57.58015" lon="-6.36234">
        <ele>73.23</ele>
        <time>2021-03-20T17:30:33Z</time>
      </trkpt>
      <trkpt lat="57.57901" lon="-6.36319">
        <ele>78.98</ele>
        <time>2021-03-20T17:30:37Z</time>
      </trkpt>
      <trkpt lat="57.57864" lon="-6.36359">
        <ele>82.44</ele>
        <time>2021-03-20T17:30:41Z</time>
      </trkpt>
      <trkpt lat="57.57811" lon="-6.36455">
        <ele>83.34</ele>
        <time>2021-03-20T17:30:45Z</time>
      </trkpt>
      <trkpt lat="57.57782" lon="-6.36495">
        <ele>83.52</ele>
        <time>2021-03-20T17:30:49Z</time>
      </trkpt>
      <trkpt lat="57.57762" lon="-6.36512">
        <ele>84.38</ele>
        <time>2021-03-20T17:30:54Z</time>
      </trkpt>
      <trkpt lat="57.57725" lon="-6.36533">
        <ele>86.72</ele>
        <time>2021-03-20T17:30:58Z</time>
      </trkpt>
      <trkpt lat="57.57686" lon="-6.36538">
        <ele>87.93</ele>
        <time>2021-03-20T17:31:02Z</time>
      </trkpt>
      <trkpt lat="57.57591" lon="-6.36539">
        <ele>89.2</ele>
        <time>2021-03-20T17:31:06Z</time>
      </trkpt>
      <trkpt lat="57.57448" lon="-6.36535">
        <ele>93.75</ele>
        <time>2021-03-20T17:31:10Z</time>
      </trkpt>
      <trkpt lat="57.57408" lon="-6.36528">
        <ele>94.29</ele>
        <time>2021-03-20T17:31:15Z</time>
      </trkpt>
      <trkpt lat="57.57386" lon="-6.36522">
        <ele>95.25</ele>
        <time>2021-03-20T17:31:19Z</time>
      </trkpt>
      <trkpt lat="57.57328" lon="-6.36496">
        <ele>95.18</ele>
        <time>2021-03-20T17:31:23Z</time>
      </trkpt>
      <trkpt lat="57.5724" lon="-6.36423">
        <ele>93.8</ele>
        <time>2021-03-20T17:31:27Z</time>
      </trkpt>
      <trkpt lat="57.57201" lon="-6.36404">
        <ele>93.15</ele>
        <time>2021-03-20T17:31:31Z</time>
      </trkpt>
      <trkpt lat="57.57162" lon="-6.36402">
        <ele>92.05</ele>
        <time>2021-03-20T17:31:35Z</time>
      </trkpt>
      <trkpt lat="57.57127" lon="-6.36407">
        <ele>91.7</ele>
        <time>2021-03-20T17:31:40Z</time>
      </trkpt>
      <trkpt lat="57.57027" lon="-6.36445">
        <ele>90.9</ele>
        <time>2021-03-20T17:31:44Z</time>
      </trkpt>
      <trkpt lat="57.56974" lon="-6.36456">
        <ele>88.18</ele>
        <time>2021-03-20T17:31:48Z</time>
      </trkpt>
      <trkpt lat="57.5681" lon="-6.36457">
        <ele>84.17</ele>
        <time>2021-03-20T17:31:52Z</time>
      </trkpt>
      <trkpt lat="57.56662" lon="-6.36479">
        <ele>82.9</ele>
        <time>2021-03-20T17:31:56Z</time>
      </trkpt>
      <trkpt lat="57.5659" lon="-6.36485">
        <ele>83.2</ele>
        <time>2021-03-20T17:32:00Z</time>
      </trkpt>
      <trkpt lat="57.56537" lon="-6.36479">
        <ele>78.79</ele>
        <time>2021-03-20T17:32:05Z</time>
      </trkpt>
      <trkpt lat="57.56415" lon="-6.36446">
        <ele>78.78</ele>
        <time>2021-03-20T17:32:09Z</time>
      </trkpt>
      <trkpt lat="57.56363" lon="-6.36444">
        <ele>78.12</ele>
        <time>2021-03-20T17:32:13Z</time>
      </trkpt>
      <trkpt lat="57.5631" lon="-6.36448">
        <ele>76.76</ele>
        <time>2021-03-20T17:32:17Z</time>
      </trkpt>
      <trkpt lat="57.5626" lon="-6.36441">
        <ele>75.69</ele>
        <time>2021-03-20T17:32:21Z</time>
      </trkpt>
      <trkpt lat="57.56211" lon="-6.36428">
        <ele>75.36</ele>
        <time>2021-03-20T17:32:25Z</time>
      </trkpt>
      <trkpt lat="57.56045" lon="-6.36352">
        <ele>71.82</ele>
        <time>2021-03-20T17:32:30Z</time>
      </trkpt>
      <trkpt lat="57.55975" lon="-6.36337">
        <ele>70.83</ele>
        <time>2021-03-20T17:32:34Z</time>
      </trkpt>
      <trkpt lat="57.55947" lon="-6.36334">
        <ele>70.94</ele>
        <time>2021-03-20T17:32:38Z</time>
      </trkpt>
      <trkpt lat="57.55912" lon="-6.36337">
        <ele>69.85</ele>
        <time>2021-03-20T17:32:42Z</time>
      </trkpt>
      <trkpt lat="57.55866" lon="-6.36346">
        <ele>70</ele>
        <time>2021-03-20T17:32:46Z</time>
      </trkpt>
      <trkpt lat="57.55737" lon="-6.36379">
        <ele>68.69</ele>
        <time>2021-03-20T17:32:50Z</time>
      </trkpt>
      <trkpt lat="57.55678" lon="-6.36404">
        <ele>68.11</ele>
        <time>2021-03-20T17:32:55Z</time>
      </trkpt>
      <trkpt lat="57.55621" lon="-6.36435">
        <ele>70</ele>
        <time>2021-03-20T17:32:59Z</time>
      </trkpt>
      <trkpt lat="57.55538" lon="-6.365">
        <ele>71.63</ele>
        <time>2021-03-20T17:33:03Z</time>
      </trkpt>
      <trkpt lat="57.55473" lon="-6.36538">
        <ele>70.64</ele>
        <time>2021-03-20T17:33:07Z</time>
      </trkpt>
      <trkpt lat="57.55391" lon="-6.36564">
        <ele>69.04</ele>
        <time>2021-03-20T17:33:11Z</time>
      </trkpt>
      <trkpt lat="57.55297" lon="-6.36582">
        <ele>69.08</ele>
        <time>2021-03-20T17:33:15Z</time>
      </trkpt>
      <trkpt lat="57.55272" lon="-6.36582">
        <ele>69.14</ele>
        <time>2021-03-20T17:33:20Z</time>
      </trkpt>
      <trkpt lat="57.55239" lon="-6.36576">
        <ele>68.99</ele>
        <time>2021-03-20T17:33:24Z</time>
      </trkpt>
      <trkpt lat="57.55199" lon="-6.36557">
        <ele>67.38</ele>
        <time>2021-03-20T17:33:28Z</time>
      </trkpt>
      <trkpt lat="57.55162" lon="-6.36536">
        <ele>66.26</ele>
        <time>2021-03-20T17:33:32Z</time>
      </trkpt>
      <trkpt lat="57.55122" lon="-6.36507">
        <ele>67.05</ele>
        <time>2021-03-20T17:33:36Z</time>
      </trkpt>
      <trkpt lat="57.55008" lon="-6.36414">
        <ele>70.17</ele>
        <time>2021-03-20T17:33:40Z</time>
      </trkpt>
      <trkpt lat="57.54915" lon="-6.36357">
        <ele>67.57</ele>
        <time>2021-03-20T17:33:45Z</time>
      </trkpt>
      <trkpt lat="57.54871" lon="-6.36345">
        <ele>66.35</ele>
        <time>2021-03-20T17:33:49Z</time>
      </trkpt>
      <trkpt lat="57.54824" lon="-6.36347">
        <ele>64.52</ele>
        <time>2021-03-20T17:33:53Z</time>
      </trkpt>
      <trkpt lat="57.54785" lon="-6.36359">
        <ele>63.02</ele>
        <time>2021-03-20T17:33:57Z</time>
      </trkpt>
      <trkpt lat="57.54754" lon="-6.36383">
        <ele>63</ele>
        <time>2021-03-20T17:34:01Z</time>
      </trkpt>
      <trkpt lat="57.54694" lon="-6.3645">
        <ele>61.01</ele>
        <time>2021-03-20T17:34:06Z</time>
      </trkpt>
      <trkpt lat="57.54645" lon="-6.36499">
        <ele>61.26</ele>
        <time>2021-03-20T17:34:10Z</time>
      </trkpt>
      <trkpt lat="57.54596" lon="-6.3653">
        <ele>57.91</ele>
        <time>2021-03-20T17:34:14Z</time>
      </trkpt>
      <trkpt lat="57.54558" lon="-6.36538">
        <ele>56.7</ele>
        <time>2021-03-20T17:34:18Z</time>
      </trkpt>
      <trkpt lat="57.54337" lon="-6.36504">
        <ele>49.27</ele>
        <time>2021-03-20T17:34:22Z</time>
      </trkpt>
      <trkpt lat="57.54263" lon="-6.36489">
        <ele>48.85</ele>
        <time>2021-03-20T17:34:26Z</time>
      </trkpt>
      <trkpt lat="57.54205" lon="-6.36464">
        <ele>48.95</ele>
        <time>2021-03-20T17:34:31Z</time>
      </trkpt>
      <trkpt lat="57.53925" lon="-6.36288">
        <ele>47.48</ele>
        <time>2021-03-20T17:34:35Z</time>
      </trkpt>
      <trkpt lat="57.53723" lon="-6.36179">
        <ele>41.61</ele>
        <time>2021-03-20T17:34:39Z</time>
      </trkpt>
      <trkpt lat="57.5367" lon="-6.36158">
        <ele>41.35</ele>
        <time>2021-03-20T17:34:43Z</time>
      </trkpt>
      <trkpt lat="57.53612" lon="-6.36131">
        <ele>40.34</ele>
        <time>2021-03-20T17:34:47Z</time>
      </trkpt>
      <trkpt lat="57.53562" lon="-6.36099">
        <ele>38.89</ele>
        <time>2021-03-20T17:34:51Z</time>
      </trkpt>
      <trkpt lat="57.53521" lon="-6.3606">
        <ele>37.35</ele>
        <time>2021-03-20T17:34:56Z</time>
      </trkpt>
      <trkpt lat="57.53485" lon="-6.36011">
        <ele>37.34</ele>
        <time>2021-03-20T17:35:00Z</time>
      </trkpt>
      <trkpt lat="57.53445" lon="-6.35934">
        <ele>38.04</ele>
        <time>2021-03-20T17:35:04Z</time>
      </trkpt>
      <trkpt lat="57.53396" lon="-6.35814">
        <ele>36.61</ele>
        <time>2021-03-20T17:35:08Z</time>
      </trkpt>
      <trkpt lat="57.5327" lon="-6.35542">
        <ele>32.94</ele>
        <time>2021-03-20T17:35:12Z</time>
      </trkpt>
      <trkpt lat="57.53247" lon="-6.35482">
        <ele>33.35</ele>
        <time>2021-03-20T17:35:16Z</time>
      </trkpt>
      <trkpt lat="57.53232" lon="-6.35437">
        <ele>33.03</ele>
        <time>2021-03-20T17:35:21Z</time>
      </trkpt>
      <trkpt lat="57.53183" lon="-6.35252">
        <ele>28.38</ele>
        <time>2021-03-20T17:35:25Z</time>
      </trkpt>
      <trkpt lat="57.53165" lon="-6.35192">
        <ele>26.88</ele>
        <time>2021-03-20T17:35:29Z</time>
      </trkpt>
      <trkpt lat="57.53148" lon="-6.35145">
        <ele>25.79</ele>
        <time>2021-03-20T17:35:33Z</time>
      </trkpt>
      <trkpt lat="57.53116" lon="-6.35077">
        <ele>23.74</ele>
        <time>2021-03-20T17:35:37Z</time>
      </trkpt>
      <trkpt lat="57.53074" lon="-6.35009">
        <ele>24.93</ele>
        <time>2021-03-20T17:35:41Z</time>
      </trkpt>
      <trkpt lat="57.53027" lon="-6.34948">
        <ele>30.63</ele>
        <time>2021-03-20T17:35:46Z</time>
      </trkpt>
      <trkpt lat="57.52982" lon="-6.34908">
        <ele>36.42</ele>
        <time>2021-03-20T17:35:50Z</time>
      </trkpt>
      <trkpt lat="57.52833" lon="-6.34819">
        <ele>41.5</ele>
        <time>2021-03-20T17:35:54Z</time>
      </trkpt>
      <trkpt lat="57.52745" lon="-6.34762">
        <ele>42.03</ele>
        <time>2021-03-20T17:35:58Z</time>
      </trkpt>
      <trkpt lat="57.52667" lon="-6.34683">
        <ele>43.76</ele>
        <time>2021-03-20T17:36:02Z</time>
      </trkpt>
      <trkpt lat="57.52574" lon="-6.34563">
        <ele>43.95</ele>
        <time>2021-03-20T17:36:06Z</time>
      </trkpt>
      <trkpt lat="57.52467" lon="-6.34455">
        <ele>39.87</ele>
        <time>2021-03-20T17:36:11Z</time>
      </trkpt>
      <trkpt lat="57.5233" lon="-6.34307">
        <ele>42.63</ele>
        <time>2021-03-20T17:36:15Z</time>
      </trkpt>
      <trkpt lat="57.52283" lon="-6.34262">
        <ele>43.57</ele>
        <time>2021-03-20T17:36:19Z</time>
      </trkpt>
      <trkpt lat="57.52232" lon="-6.34225">
        <ele>41.87</ele>
        <time>2021-03-20T17:36:23Z</time>
      </trkpt>
      <trkpt lat="57.52181" lon="-6.34192">
        <ele>44.25</ele>
        <time>2021-03-20T17:36:27Z</time>
      </trkpt>
      <trkpt lat="57.52069" lon="-6.34111">
        <ele>48.96</ele>
        <time>2021-03-20T17:36:32Z</time>
      </trkpt>
      <trkpt lat="57.52034" lon="-6.34096">
        <ele>48.35</ele>
        <time>2021-03-20T17:36:36Z</time>
      </trkpt>
      <trkpt lat="57.51993" lon="-6.34093">
        <ele>47.4</ele>
        <time>2021-03-20T17:36:40Z</time>
      </trkpt>
      <trkpt lat="57.51967" lon="-6.34098">
        <ele>47.78</ele>
        <time>2021-03-20T17:36:44Z</time>
      </trkpt>
      <trkpt lat="57.5194" lon="-6.34107">
        <ele>49.6</ele>
        <time>2021-03-20T17:36:48Z</time>
      </trkpt>
      <trkpt lat="57.51877" lon="-6.34148">
        <ele>55.55</ele>
        <time>2021-03-20T17:36:52Z</time>
      </trkpt>
      <trkpt lat="57.51816" lon="-6.3418">
        <ele>57.17</ele>
        <time>2021-03-20T17:36:57Z</time>
      </trkpt>
      <trkpt lat="57.5176" lon="-6.34199">
        <ele>59.66</ele>
        <time>2021-03-20T17:37:01Z</time>
      </trkpt>
      <trkpt lat="57.51705" lon="-6.34206">
        <ele>60.61</ele>
        <time>2021-03-20T17:37:05Z</time>
      </trkpt>
      <trkpt lat="57.51616" lon="-6.34193">
        <ele>63.99</ele>
        <time>2021-03-20T17:37:09Z</time>
      </trkpt>
      <trkpt lat="57.51332" lon="-6.3409">
        <ele>65.24</ele>
        <time>2021-03-20T17:37:13Z</time>
      </trkpt>
      <trkpt lat="57.51161" lon="-6.34052">
        <ele>56.85</ele>
        <time>2021-03-20T17:37:17Z</time>
      </trkpt>
      <trkpt lat="57.51112" lon="-6.34032">
        <ele>55.15</ele>
        <time>2021-03-20T17:37:22Z</time>
      </trkpt>
      <trkpt lat="57.51066" lon="-6.34004">
        <ele>54.55</ele>
        <time>2021-03-20T17:37:26Z</time>
      </trkpt>
      <trkpt lat="57.51021" lon="-6.33959">
        <ele>54.22</ele>
        <time>2021-03-20T17:37:30Z</time>
      </trkpt>
      <trkpt lat="57.50863" lon="-6.33758">
        <ele>54.97</ele>
        <time>2021-03-20T17:37:34Z</time>
      </trkpt>
      <trkpt lat="57.50781" lon="-6.33665">
        <ele>52.49</ele>
        <time>2021-03-20T17:37:38Z</time>
      </trkpt>
      <trkpt lat="57.50657" lon="-6.33548">
        <ele>49.64</ele>
        <time>2021-03-20T17:37:42Z</time>
      </trkpt>
      <trkpt lat="57.50603" lon="-6.33488">
        <ele>50.5</ele>
        <time>2021-03-20T17:37:47Z</time>
      </trkpt>
      <trkpt lat="57.50558" lon="-6.33421">
        <ele>48.19</ele>
        <time>2021-03-20T17:37:51Z</time>
      </trkpt>
      <trkpt lat="57.50537" lon="-6.33379">
        <ele>47.12</ele>
        <time>2021-03-20T17:37:55Z</time>
      </trkpt>
      <trkpt lat="57.50484" lon="-6.33257">
        <ele>44</ele>
        <time>2021-03-20T17:37:59Z</time>
      </trkpt>
      <trkpt lat="57.50448" lon="-6.33193">
        <ele>44.01</ele>
        <time>2021-03-20T17:38:03Z</time>
      </trkpt>
      <trkpt lat="57.50419" lon="-6.33156">
        <ele>44.39</ele>
        <time>2021-03-20T17:38:07Z</time>
      </trkpt>
      <trkpt lat="57.50384" lon="-6.33117">
        <ele>44.62</ele>
        <time>2021-03-20T17:38:12Z</time>
      </trkpt>
      <trkpt lat="57.50141" lon="-6.32902">
        <ele>39.71</ele>
        <time>2021-03-20T17:38:16Z</time>
      </trkpt>
      <trkpt lat="57.50107" lon="-6.32864">
        <ele>38.51</ele>
        <time>2021-03-20T17:38:20Z</time>
      </trkpt>
      <trkpt lat="57.50073" lon="-6.32817">
        <ele>36.46</ele>
        <time>2021-03-20T17:38:24Z</time>
      </trkpt>
      <trkpt lat="57.50025" lon="-6.32727">
        <ele>34.47</ele>
        <time>2021-03-20T17:38:28Z</time>
      </trkpt>
      <trkpt lat="57.50009" lon="-6.32689">
        <ele>32.26</ele>
        <time>2021-03-20T17:38:33Z</time>
      </trkpt>
      <trkpt lat="57.50009" lon="-6.32689">
        <ele>32.26</ele>
        <time>2021-03-20T17:38:33Z</time>
      </trkpt>
      <trkpt lat="57.49934" lon="-6.32505">
        <ele>27.21</ele>
        <time>2021-03-20T17:38:39Z</time>
      </trkpt>
      <trkpt lat="57.49905" lon="-6.32447">
        <ele>25.6</ele>
        <time>2021-03-20T17:38:46Z</time>
      </trkpt>
      <trkpt lat="57.49873" lon="-6.32397">
        <ele>22.4</ele>
        <time>2021-03-20T17:38:52Z</time>
      </trkpt>
      <trkpt lat="57.49845" lon="-6.3236">
        <ele>22.1</ele>
        <time>2021-03-20T17:38:59Z</time>
      </trkpt>
      <trkpt lat="57.49799" lon="-6.32321">
        <ele>24.22</ele>
        <time>2021-03-20T17:39:05Z</time>
      </trkpt>
      <trkpt lat="57.49358" lon="-6.31997">
        <ele>26.2</ele>
        <time>2021-03-20T17:39:12Z</time>
      </trkpt>
      <trkpt lat="57.49294" lon="-6.31946">
        <ele>25.52</ele>
        <time>2021-03-20T17:39:18Z</time>
      </trkpt>
      <trkpt lat="57.4923" lon="-6.31881">
        <ele>23.86</ele>
        <time>2021-03-20T17:39:25Z</time>
      </trkpt>
      <trkpt lat="57.49163" lon="-6.318">
        <ele>20.92</ele>
        <time>2021-03-20T17:39:32Z</time>
      </trkpt>
      <trkpt lat="57.49018" lon="-6.31608">
        <ele>17.2</ele>
        <time>2021-03-20T17:39:38Z</time>
      </trkpt>
      <trkpt lat="57.48961" lon="-6.31514">
        <ele>16.59</ele>
        <time>2021-03-20T17:39:45Z</time>
      </trkpt>
      <trkpt lat="57.48897" lon="-6.31385">
        <ele>12.95</ele>
        <time>2021-03-20T17:39:51Z</time>
      </trkpt>
      <trkpt lat="57.48802" lon="-6.31203">
        <ele>13.67</ele>
        <time>2021-03-20T17:39:58Z</time>
      </trkpt>
      <trkpt lat="57.48749" lon="-6.3111">
        <ele>12.91</ele>
        <time>2021-03-20T17:40:04Z</time>
      </trkpt>
      <trkpt lat="57.48657" lon="-6.30979">
        <ele>10.89</ele>
        <time>2021-03-20T17:40:11Z</time>
      </trkpt>
      <trkpt lat="57.48603" lon="-6.30911">
        <ele>11.33</ele>
        <time>2021-03-20T17:40:18Z</time>
      </trkpt>
      <trkpt lat="57.48552" lon="-6.30843">
        <ele>10.5</ele>
        <time>2021-03-20T17:40:24Z</time>
      </trkpt>
      <trkpt lat="57.4837" lon="-6.30574">
        <ele>10.59</ele>
        <time>2021-03-20T17:40:31Z</time>
      </trkpt>
      <trkpt lat="57.4831" lon="-6.30482">
        <ele>9.99</ele>
        <time>2021-03-20T17:40:37Z</time>
      </trkpt>
      <trkpt lat="57.48182" lon="-6.30261">
        <ele>11.26</ele>
        <time>2021-03-20T17:40:44Z</time>
      </trkpt>
      <trkpt lat="57.48127" lon="-6.30181">
        <ele>11.49</ele>
        <time>2021-03-20T17:40:50Z</time>
      </trkpt>
      <trkpt lat="57.4808" lon="-6.30131">
        <ele>12.15</ele>
        <time>2021-03-20T17:40:57Z</time>
      </trkpt>
      <trkpt lat="57.48046" lon="-6.301">
        <ele>12.39</ele>
        <time>2021-03-20T17:41:03Z</time>
      </trkpt>
      <trkpt lat="57.48002" lon="-6.30068">
        <ele>13.16</ele>
        <time>2021-03-20T17:41:10Z</time>
      </trkpt>
      <trkpt lat="57.47967" lon="-6.30047">
        <ele>13.11</ele>
        <time>2021-03-20T17:41:17Z</time>
      </trkpt>
      <trkpt lat="57.47912" lon="-6.30029">
        <ele>11</ele>
        <time>2021-03-20T17:41:23Z</time>
      </trkpt>
      <trkpt lat="57.4788" lon="-6.30022">
        <ele>10.69</ele>
        <time>2021-03-20T17:41:30Z</time>
      </trkpt>
      <trkpt lat="57.4764" lon="-6.29988">
        <ele>20.98</ele>
        <time>2021-03-20T17:41:36Z</time>
      </trkpt>
      <trkpt lat="57.47608" lon="-6.29979">
        <ele>21.69</ele>
        <time>2021-03-20T17:41:43Z</time>
      </trkpt>
      <trkpt lat="57.47544" lon="-6.29953">
        <ele>23.13</ele>
        <time>2021-03-20T17:41:49Z</time>
      </trkpt>
      <trkpt lat="57.47496" lon="-6.29916">
        <ele>24.02</ele>
        <time>2021-03-20T17:41:56Z</time>
      </trkpt>
      <trkpt lat="57.47457" lon="-6.29876">
        <ele>25</ele>
        <time>2021-03-20T17:42:02Z</time>
      </trkpt>
      <trkpt lat="57.47423" lon="-6.29831">
        <ele>26</ele>
        <time>2021-03-20T17:42:09Z</time>
      </trkpt>
      <trkpt lat="57.47232" lon="-6.29518">
        <ele>31.36</ele>
        <time>2021-03-20T17:42:16Z</time>
      </trkpt>
      <trkpt lat="57.47155" lon="-6.29395">
        <ele>32.33</ele>
        <time>2021-03-20T17:42:22Z</time>
      </trkpt>
      <trkpt lat="57.47073" lon="-6.29278">
        <ele>36.96</ele>
        <time>2021-03-20T17:42:29Z</time>
      </trkpt>
      <trkpt lat="57.46528" lon="-6.28518">
        <ele>53.63</ele>
        <time>2021-03-20T17:42:35Z</time>
      </trkpt>
      <trkpt lat="57.4649" lon="-6.28467">
        <ele>53.88</ele>
        <time>2021-03-20T17:42:42Z</time>
      </trkpt>
      <trkpt lat="57.4644" lon="-6.2841">
        <ele>54.66</ele>
        <time>2021-03-20T17:42:48Z</time>
      </trkpt>
      <trkpt lat="57.4644" lon="-6.2841">
        <ele>54.66</ele>
        <time>2021-03-20T17:42:48Z</time>
      </trkpt>
      <trkpt lat="57.46411" lon="-6.28377">
        <ele>55.44</ele>
        <time>2021-03-20T17:42:53Z</time>
      </trkpt>
      <trkpt lat="57.4628" lon="-6.28256">
        <ele>59</ele>
        <time>2021-03-20T17:42:57Z</time>
      </trkpt>
      <trkpt lat="57.46217" lon="-6.28193">
        <ele>59.07</ele>
        <time>2021-03-20T17:43:02Z</time>
      </trkpt>
      <trkpt lat="57.46155" lon="-6.28124">
        <ele>59.1</ele>
        <time>2021-03-20T17:43:06Z</time>
      </trkpt>
      <trkpt lat="57.46097" lon="-6.28055">
        <ele>60</ele>
        <time>2021-03-20T17:43:11Z</time>
      </trkpt>
      <trkpt lat="57.46042" lon="-6.27983">
        <ele>59.51</ele>
        <time>2021-03-20T17:43:15Z</time>
      </trkpt>
      <trkpt lat="57.45969" lon="-6.27874">
        <ele>59</ele>
        <time>2021-03-20T17:43:20Z</time>
      </trkpt>
      <trkpt lat="57.45912" lon="-6.27767">
        <ele>58.83</ele>
        <time>2021-03-20T17:43:24Z</time>
      </trkpt>
      <trkpt lat="57.4587" lon="-6.27666">
        <ele>59.3</ele>
        <time>2021-03-20T17:43:29Z</time>
      </trkpt>
      <trkpt lat="57.4583" lon="-6.27558">
        <ele>58.78</ele>
        <time>2021-03-20T17:43:33Z</time>
      </trkpt>
      <trkpt lat="57.45791" lon="-6.27434">
        <ele>58.49</ele>
        <time>2021-03-20T17:43:38Z</time>
      </trkpt>
      <trkpt lat="57.45763" lon="-6.27366">
        <ele>58.48</ele>
        <time>2021-03-20T17:43:42Z</time>
      </trkpt>
      <trkpt lat="57.45727" lon="-6.273">
        <ele>58.37</ele>
        <time>2021-03-20T17:43:46Z</time>
      </trkpt>
      <trkpt lat="57.45575" lon="-6.27104">
        <ele>60.19</ele>
        <time>2021-03-20T17:43:51Z</time>
      </trkpt>
      <trkpt lat="57.45491" lon="-6.2699">
        <ele>60.2</ele>
        <time>2021-03-20T17:43:55Z</time>
      </trkpt>
      <trkpt lat="57.45491" lon="-6.2699">
        <ele>60.2</ele>
        <time>2021-03-20T17:43:55Z</time>
      </trkpt>
      <trkpt lat="57.45425" lon="-6.26891">
        <ele>60.5</ele>
        <time>2021-03-20T17:44:00Z</time>
      </trkpt>
      <trkpt lat="57.4523" lon="-6.26576">
        <ele>63.71</ele>
        <time>2021-03-20T17:44:05Z</time>
      </trkpt>
      <trkpt lat="57.45195" lon="-6.26509">
        <ele>65.69</ele>
        <time>2021-03-20T17:44:09Z</time>
      </trkpt>
      <trkpt lat="57.45161" lon="-6.26426">
        <ele>65.57</ele>
        <time>2021-03-20T17:44:14Z</time>
      </trkpt>
      <trkpt lat="57.45129" lon="-6.26326">
        <ele>65.66</ele>
        <time>2021-03-20T17:44:18Z</time>
      </trkpt>
      <trkpt lat="57.45106" lon="-6.26225">
        <ele>67.72</ele>
        <time>2021-03-20T17:44:23Z</time>
      </trkpt>
      <trkpt lat="57.45041" lon="-6.25854">
        <ele>75.72</ele>
        <time>2021-03-20T17:44:28Z</time>
      </trkpt>
      <trkpt lat="57.45023" lon="-6.25768">
        <ele>78.88</ele>
        <time>2021-03-20T17:44:32Z</time>
      </trkpt>
      <trkpt lat="57.45003" lon="-6.25689">
        <ele>80.21</ele>
        <time>2021-03-20T17:44:37Z</time>
      </trkpt>
      <trkpt lat="57.44983" lon="-6.25619">
        <ele>79.96</ele>
        <time>2021-03-20T17:44:42Z</time>
      </trkpt>
      <trkpt lat="57.44962" lon="-6.25554">
        <ele>80.02</ele>
        <time>2021-03-20T17:44:46Z</time>
      </trkpt>
      <trkpt lat="57.44933" lon="-6.25454">
        <ele>81.05</ele>
        <time>2021-03-20T17:44:51Z</time>
      </trkpt>
      <trkpt lat="57.44933" lon="-6.25454">
        <ele>81.05</ele>
        <time>2021-03-20T17:44:51Z</time>
      </trkpt>
      <trkpt lat="57.44891" lon="-6.25309">
        <ele>82.07</ele>
        <time>2021-03-20T17:44:55Z</time>
      </trkpt>
      <trkpt lat="57.44856" lon="-6.25212">
        <ele>84.18</ele>
        <time>2021-03-20T17:44:59Z</time>
      </trkpt>
      <trkpt lat="57.44837" lon="-6.25168">
        <ele>84.87</ele>
        <time>2021-03-20T17:45:03Z</time>
      </trkpt>
      <trkpt lat="57.44811" lon="-6.25123">
        <ele>86.14</ele>
        <time>2021-03-20T17:45:07Z</time>
      </trkpt>
      <trkpt lat="57.44669" lon="-6.24925">
        <ele>92.07</ele>
        <time>2021-03-20T17:45:10Z</time>
      </trkpt>
      <trkpt lat="57.44596" lon="-6.24868">
        <ele>94.88</ele>
        <time>2021-03-20T17:45:14Z</time>
      </trkpt>
      <trkpt lat="57.4456" lon="-6.24834">
        <ele>94.88</ele>
        <time>2021-03-20T17:45:18Z</time>
      </trkpt>
      <trkpt lat="57.44534" lon="-6.24799">
        <ele>96.29</ele>
        <time>2021-03-20T17:45:22Z</time>
      </trkpt>
      <trkpt lat="57.44489" lon="-6.24712">
        <ele>97.15</ele>
        <time>2021-03-20T17:45:26Z</time>
      </trkpt>
      <trkpt lat="57.44448" lon="-6.24615">
        <ele>99.55</ele>
        <time>2021-03-20T17:45:30Z</time>
      </trkpt>
      <trkpt lat="57.44419" lon="-6.24558">
        <ele>102.64</ele>
        <time>2021-03-20T17:45:34Z</time>
      </trkpt>
      <trkpt lat="57.44239" lon="-6.24278">
        <ele>116.39</ele>
        <time>2021-03-20T17:45:38Z</time>
      </trkpt>
      <trkpt lat="57.44209" lon="-6.24242">
        <ele>117.48</ele>
        <time>2021-03-20T17:45:42Z</time>
      </trkpt>
      <trkpt lat="57.44176" lon="-6.24214">
        <ele>118</ele>
        <time>2021-03-20T17:45:46Z</time>
      </trkpt>
      <trkpt lat="57.44128" lon="-6.24177">
        <ele>117</ele>
        <time>2021-03-20T17:45:50Z</time>
      </trkpt>
      <trkpt lat="57.44043" lon="-6.24125">
        <ele>111.61</ele>
        <time>2021-03-20T17:45:54Z</time>
      </trkpt>
      <trkpt lat="57.4402" lon="-6.24103">
        <ele>110.18</ele>
        <time>2021-03-20T17:45:58Z</time>
      </trkpt>
      <trkpt lat="57.44009" lon="-6.24082">
        <ele>108.98</ele>
        <time>2021-03-20T17:46:02Z</time>
      </trkpt>
      <trkpt lat="57.43997" lon="-6.2403">
        <ele>107.51</ele>
        <time>2021-03-20T17:46:06Z</time>
      </trkpt>
      <trkpt lat="57.43959" lon="-6.23686">
        <ele>106.33</ele>
        <time>2021-03-20T17:46:10Z</time>
      </trkpt>
      <trkpt lat="57.43918" lon="-6.23395">
        <ele>108.89</ele>
        <time>2021-03-20T17:46:14Z</time>
      </trkpt>
      <trkpt lat="57.43892" lon="-6.23274">
        <ele>103.75</ele>
        <time>2021-03-20T17:46:17Z</time>
      </trkpt>
      <trkpt lat="57.43849" lon="-6.23101">
        <ele>99.72</ele>
        <time>2021-03-20T17:46:21Z</time>
      </trkpt>
      <trkpt lat="57.43834" lon="-6.22997">
        <ele>95.13</ele>
        <time>2021-03-20T17:46:25Z</time>
      </trkpt>
      <trkpt lat="57.43814" lon="-6.22911">
        <ele>92.32</ele>
        <time>2021-03-20T17:46:29Z</time>
      </trkpt>
      <trkpt lat="57.43804" lon="-6.22881">
        <ele>90.1</ele>
        <time>2021-03-20T17:46:33Z</time>
      </trkpt>
      <trkpt lat="57.43804" lon="-6.22881">
        <ele>90.1</ele>
        <time>2021-03-20T17:46:33Z</time>
      </trkpt>
      <trkpt lat="57.43769" lon="-6.2277">
        <ele>87.88</ele>
        <time>2021-03-20T17:46:40Z</time>
      </trkpt>
      <trkpt lat="57.43759" lon="-6.22726">
        <ele>85.56</ele>
        <time>2021-03-20T17:46:46Z</time>
      </trkpt>
      <trkpt lat="57.43748" lon="-6.22658">
        <ele>84.64</ele>
        <time>2021-03-20T17:46:53Z</time>
      </trkpt>
      <trkpt lat="57.43733" lon="-6.226">
        <ele>82.59</ele>
        <time>2021-03-20T17:46:59Z</time>
      </trkpt>
      <trkpt lat="57.4372" lon="-6.22565">
        <ele>81.51</ele>
        <time>2021-03-20T17:47:05Z</time>
      </trkpt>
      <trkpt lat="57.43601" lon="-6.22345">
        <ele>75.27</ele>
        <time>2021-03-20T17:47:12Z</time>
      </trkpt>
      <trkpt lat="57.43564" lon="-6.22253">
        <ele>71.64</ele>
        <time>2021-03-20T17:47:18Z</time>
      </trkpt>
      <trkpt lat="57.43544" lon="-6.22231">
        <ele>69.9</ele>
        <time>2021-03-20T17:47:25Z</time>
      </trkpt>
      <trkpt lat="57.43522" lon="-6.22219">
        <ele>68.64</ele>
        <time>2021-03-20T17:47:31Z</time>
      </trkpt>
      <trkpt lat="57.43472" lon="-6.22201">
        <ele>64.96</ele>
        <time>2021-03-20T17:47:37Z</time>
      </trkpt>
      <trkpt lat="57.43412" lon="-6.22169">
        <ele>61.59</ele>
        <time>2021-03-20T17:47:44Z</time>
      </trkpt>
      <trkpt lat="57.4337" lon="-6.22137">
        <ele>59.31</ele>
        <time>2021-03-20T17:47:50Z</time>
      </trkpt>
      <trkpt lat="57.43328" lon="-6.22097">
        <ele>57.79</ele>
        <time>2021-03-20T17:47:57Z</time>
      </trkpt>
      <trkpt lat="57.43196" lon="-6.21949">
        <ele>53</ele>
        <time>2021-03-20T17:48:03Z</time>
      </trkpt>
      <trkpt lat="57.43064" lon="-6.21811">
        <ele>54</ele>
        <time>2021-03-20T17:48:10Z</time>
      </trkpt>
      <trkpt lat="57.43002" lon="-6.21757">
        <ele>53.08</ele>
        <time>2021-03-20T17:48:16Z</time>
      </trkpt>
      <trkpt lat="57.42851" lon="-6.21647">
        <ele>49</ele>
        <time>2021-03-20T17:48:22Z</time>
      </trkpt>
      <trkpt lat="57.42703" lon="-6.21548">
        <ele>50</ele>
        <time>2021-03-20T17:48:29Z</time>
      </trkpt>
      <trkpt lat="57.42397" lon="-6.21365">
        <ele>43.29</ele>
        <time>2021-03-20T17:48:35Z</time>
      </trkpt>
      <trkpt lat="57.42332" lon="-6.2133">
        <ele>40</ele>
        <time>2021-03-20T17:48:42Z</time>
      </trkpt>
      <trkpt lat="57.42216" lon="-6.21265">
        <ele>40.57</ele>
        <time>2021-03-20T17:48:48Z</time>
      </trkpt>
      <trkpt lat="57.41995" lon="-6.21183">
        <ele>31.83</ele>
        <time>2021-03-20T17:48:55Z</time>
      </trkpt>
      <trkpt lat="57.41932" lon="-6.21148">
        <ele>27.9</ele>
        <time>2021-03-20T17:49:01Z</time>
      </trkpt>
      <trkpt lat="57.41888" lon="-6.21116">
        <ele>26.98</ele>
        <time>2021-03-20T17:49:07Z</time>
      </trkpt>
      <trkpt lat="57.41724" lon="-6.21005">
        <ele>25.17</ele>
        <time>2021-03-20T17:49:14Z</time>
      </trkpt>
      <trkpt lat="57.4171" lon="-6.20986">
        <ele>25.44</ele>
        <time>2021-03-20T17:49:20Z</time>
      </trkpt>
      <trkpt lat="57.4171" lon="-6.20973">
        <ele>25.42</ele>
        <time>2021-03-20T17:49:26Z</time>
      </trkpt>
      <trkpt lat="57.41705" lon="-6.20966">
        <ele>25.62</ele>
        <time>2021-03-20T17:49:31Z</time>
      </trkpt>
      <trkpt lat="57.41699" lon="-6.20968">
        <ele>25.84</ele>
        <time>2021-03-20T17:49:37Z</time>
      </trkpt>
      <trkpt lat="57.41696" lon="-6.20975">
        <ele>25.93</ele>
        <time>2021-03-20T17:49:43Z</time>
      </trkpt>
      <trkpt lat="57.41662" lon="-6.20953">
        <ele>26.05</ele>
        <time>2021-03-20T17:49:48Z</time>
      </trkpt>
      <trkpt lat="57.41643" lon="-6.20929">
        <ele>26</ele>
        <time>2021-03-20T17:49:54Z</time>
      </trkpt>
      <trkpt lat="57.41564" lon="-6.2082">
        <ele>24</ele>
        <time>2021-03-20T17:50:00Z</time>
      </trkpt>
      <trkpt lat="57.41463" lon="-6.20648">
        <ele>25</ele>
        <time>2021-03-20T17:50:05Z</time>
      </trkpt>
      <trkpt lat="57.41441" lon="-6.20595">
        <ele>25.11</ele>
        <time>2021-03-20T17:50:11Z</time>
      </trkpt>
      <trkpt lat="57.41427" lon="-6.20539">
        <ele>24.9</ele>
        <time>2021-03-20T17:50:16Z</time>
      </trkpt>
      <trkpt lat="57.41411" lon="-6.20425">
        <ele>23.22</ele>
        <time>2021-03-20T17:50:22Z</time>
      </trkpt>
      <trkpt lat="57.41397" lon="-6.20298">
        <ele>21.92</ele>
        <time>2021-03-20T17:50:28Z</time>
      </trkpt>
      <trkpt lat="57.41386" lon="-6.20251">
        <ele>22</ele>
        <time>2021-03-20T17:50:33Z</time>
      </trkpt>
      <trkpt lat="57.41367" lon="-6.20203">
        <ele>20.31</ele>
        <time>2021-03-20T17:50:39Z</time>
      </trkpt>
      <trkpt lat="57.41307" lon="-6.20109">
        <ele>14.88</ele>
        <time>2021-03-20T17:50:45Z</time>
      </trkpt>
      <trkpt lat="57.41293" lon="-6.20077">
        <ele>13.08</ele>
        <time>2021-03-20T17:50:50Z</time>
      </trkpt>
      <trkpt lat="57.41282" lon="-6.20091">
        <ele>13.66</ele>
        <time>2021-03-20T17:50:53Z</time>
      </trkpt>
      <trkpt lat="57.41266" lon="-6.20103">
        <ele>14.41</ele>
        <time>2021-03-20T17:50:56Z</time>
      </trkpt>
      <trkpt lat="57.41235" lon="-6.20104">
        <ele>16.03</ele>
        <time>2021-03-20T17:50:58Z</time>
      </trkpt>
      <trkpt lat="57.41235" lon="-6.20104">
        <ele>16.03</ele>
        <time>2021-03-20T17:50:58Z</time>
      </trkpt>
      <trkpt lat="57.41196" lon="-6.20105">
        <ele>16.92</ele>
        <time>2021-03-20T17:51:05Z</time>
      </trkpt>
      <trkpt lat="57.40996" lon="-6.20215">
        <ele>19.74</ele>
        <time>2021-03-20T17:51:11Z</time>
      </trkpt>
      <trkpt lat="57.40964" lon="-6.20226">
        <ele>20.31</ele>
        <time>2021-03-20T17:51:18Z</time>
      </trkpt>
      <trkpt lat="57.40945" lon="-6.20229">
        <ele>20.73</ele>
        <time>2021-03-20T17:51:24Z</time>
      </trkpt>
      <trkpt lat="57.40922" lon="-6.20225">
        <ele>22.13</ele>
        <time>2021-03-20T17:51:31Z</time>
      </trkpt>
      <trkpt lat="57.40853" lon="-6.20194">
        <ele>25.77</ele>
        <time>2021-03-20T17:51:37Z</time>
      </trkpt>
      <trkpt lat="57.40775" lon="-6.20162">
        <ele>26.53</ele>
        <time>2021-03-20T17:51:44Z</time>
      </trkpt>
      <trkpt lat="57.407" lon="-6.20136">
        <ele>26.52</ele>
        <time>2021-03-20T17:51:50Z</time>
      </trkpt>
      <trkpt lat="57.40611" lon="-6.20117">
        <ele>29.16</ele>
        <time>2021-03-20T17:51:57Z</time>
      </trkpt>
      <trkpt lat="57.40523" lon="-6.20077">
        <ele>28.26</ele>
        <time>2021-03-20T17:52:03Z</time>
      </trkpt>
      <trkpt lat="57.40483" lon="-6.20064">
        <ele>26.2</ele>
        <time>2021-03-20T17:52:10Z</time>
      </trkpt>
      <trkpt lat="57.40327" lon="-6.2004">
        <ele>26.22</ele>
        <time>2021-03-20T17:52:17Z</time>
      </trkpt>
      <trkpt lat="57.40277" lon="-6.20038">
        <ele>24.69</ele>
        <time>2021-03-20T17:52:23Z</time>
      </trkpt>
      <trkpt lat="57.40224" lon="-6.20043">
        <ele>23.21</ele>
        <time>2021-03-20T17:52:30Z</time>
      </trkpt>
      <trkpt lat="57.40127" lon="-6.20066">
        <ele>24.32</ele>
        <time>2021-03-20T17:52:36Z</time>
      </trkpt>
      <trkpt lat="57.40091" lon="-6.20077">
        <ele>27.95</ele>
        <time>2021-03-20T17:52:43Z</time>
      </trkpt>
      <trkpt lat="57.40055" lon="-6.20077">
        <ele>31.37</ele>
        <time>2021-03-20T17:52:49Z</time>
      </trkpt>
      <trkpt lat="57.39961" lon="-6.20054">
        <ele>28.87</ele>
        <time>2021-03-20T17:52:56Z</time>
      </trkpt>
      <trkpt lat="57.39934" lon="-6.20055">
        <ele>27.11</ele>
        <time>2021-03-20T17:53:02Z</time>
      </trkpt>
      <trkpt lat="57.39904" lon="-6.20061">
        <ele>25.68</ele>
        <time>2021-03-20T17:53:09Z</time>
      </trkpt>
      <trkpt lat="57.39869" lon="-6.20075">
        <ele>24.94</ele>
        <time>2021-03-20T17:53:15Z</time>
      </trkpt>
      <trkpt lat="57.39831" lon="-6.20106">
        <ele>24.68</ele>
        <time>2021-03-20T17:53:22Z</time>
      </trkpt>
      <trkpt lat="57.39795" lon="-6.20147">
        <ele>26.19</ele>
        <time>2021-03-20T17:53:28Z</time>
      </trkpt>
      <trkpt lat="57.39758" lon="-6.20182">
        <ele>27.77</ele>
        <time>2021-03-20T17:53:35Z</time>
      </trkpt>
      <trkpt lat="57.39703" lon="-6.20223">
        <ele>29.42</ele>
        <time>2021-03-20T17:53:41Z</time>
      </trkpt>
      <trkpt lat="57.39457" lon="-6.20342">
        <ele>27.67</ele>
        <time>2021-03-20T17:53:48Z</time>
      </trkpt>
      <trkpt lat="57.39344" lon="-6.20409">
        <ele>27.24</ele>
        <time>2021-03-20T17:53:54Z</time>
      </trkpt>
      <trkpt lat="57.39209" lon="-6.20472">
        <ele>24.6</ele>
        <time>2021-03-20T17:54:01Z</time>
      </trkpt>
      <trkpt lat="57.39105" lon="-6.2051">
        <ele>25</ele>
        <time>2021-03-20T17:54:07Z</time>
      </trkpt>
      <trkpt lat="57.39058" lon="-6.20522">
        <ele>25.86</ele>
        <time>2021-03-20T17:54:14Z</time>
      </trkpt>
      <trkpt lat="57.39011" lon="-6.20511">
        <ele>25.89</ele>
        <time>2021-03-20T17:54:20Z</time>
      </trkpt>
      <trkpt lat="57.38949" lon="-6.2049">
        <ele>23.61</ele>
        <time>2021-03-20T17:54:27Z</time>
      </trkpt>
      <trkpt lat="57.38772" lon="-6.20405">
        <ele>20.97</ele>
        <time>2021-03-20T17:54:33Z</time>
      </trkpt>
      <trkpt lat="57.38753" lon="-6.20401">
        <ele>20.57</ele>
        <time>2021-03-20T17:54:40Z</time>
      </trkpt>
      <trkpt lat="57.3874" lon="-6.2038">
        <ele>17.42</ele>
        <time>2021-03-20T17:54:42Z</time>
      </trkpt>
      <trkpt lat="57.38717" lon="-6.20371">
        <ele>17.16</ele>
        <time>2021-03-20T17:54:44Z</time>
      </trkpt>
      <trkpt lat="57.38702" lon="-6.20354">
        <ele>14.99</ele>
        <time>2021-03-20T17:54:47Z</time>
      </trkpt>
      <trkpt lat="57.38697" lon="-6.20332">
        <ele>11.93</ele>
        <time>2021-03-20T17:54:49Z</time>
      </trkpt>
      <trkpt lat="57.38696" lon="-6.20286">
        <ele>9.53</ele>
        <time>2021-03-20T17:54:51Z</time>
      </trkpt>
      <trkpt lat="57.38703" lon="-6.20154">
        <ele>5</ele>
        <time>2021-03-20T17:54:54Z</time>
      </trkpt>
      <trkpt lat="57.38717" lon="-6.19695">
        <ele>19.17</ele>
        <time>2021-03-20T17:54:56Z</time>
      </trkpt>
      <trkpt lat="57.3873" lon="-6.19528">
        <ele>28.72</ele>
        <time>2021-03-20T17:54:58Z</time>
      </trkpt>
      <trkpt lat="57.3873" lon="-6.19506">
        <ele>29.73</ele>
        <time>2021-03-20T17:55:00Z</time>
      </trkpt>
      <trkpt lat="57.38726" lon="-6.19501">
        <ele>29.95</ele>
        <time>2021-03-20T17:55:03Z</time>
      </trkpt>
      <trkpt lat="57.38717" lon="-6.19497">
        <ele>30.33</ele>
        <time>2021-03-20T17:55:05Z</time>
      </trkpt>
      <trkpt lat="57.38664" lon="-6.19514">
        <ele>29.56</ele>
        <time>2021-03-20T17:55:07Z</time>
      </trkpt>
      <trkpt lat="57.38649" lon="-6.19516">
        <ele>29.72</ele>
        <time>2021-03-20T17:55:09Z</time>
      </trkpt>
      <trkpt lat="57.38623" lon="-6.19513">
        <ele>30.64</ele>
        <time>2021-03-20T17:55:12Z</time>
      </trkpt>
      <trkpt lat="57.38611" lon="-6.19509">
        <ele>31.38</ele>
        <time>2021-03-20T17:55:14Z</time>
      </trkpt>
      <trkpt lat="57.38588" lon="-6.19483">
        <ele>32.84</ele>
        <time>2021-03-20T17:55:16Z</time>
      </trkpt>
      <trkpt lat="57.38577" lon="-6.19511">
        <ele>32.46</ele>
        <time>2021-03-20T17:55:19Z</time>
      </trkpt>
      <trkpt lat="57.38573" lon="-6.19513">
        <ele>32.43</ele>
        <time>2021-03-20T17:55:22Z</time>
      </trkpt>
      <trkpt lat="57.38526" lon="-6.19498">
        <ele>34.02</ele>
        <time>2021-03-20T17:55:25Z</time>
      </trkpt>
      <trkpt lat="57.3845" lon="-6.19498">
        <ele>33.09</ele>
        <time>2021-03-20T17:55:28Z</time>
      </trkpt>
      <trkpt lat="57.38399" lon="-6.19493">
        <ele>32.84</ele>
        <time>2021-03-20T17:55:31Z</time>
      </trkpt>
      <trkpt lat="57.3832" lon="-6.1948">
        <ele>29.68</ele>
        <time>2021-03-20T17:55:34Z</time>
      </trkpt>
      <trkpt lat="57.38262" lon="-6.19463">
        <ele>26.53</ele>
        <time>2021-03-20T17:55:37Z</time>
      </trkpt>
      <trkpt lat="57.38211" lon="-6.19455">
        <ele>26.26</ele>
        <time>2021-03-20T17:55:40Z</time>
      </trkpt>
      <trkpt lat="57.38167" lon="-6.19463">
        <ele>25.65</ele>
        <time>2021-03-20T17:55:43Z</time>
      </trkpt>
      <trkpt lat="57.38133" lon="-6.19463">
        <ele>24.32</ele>
        <time>2021-03-20T17:55:46Z</time>
      </trkpt>
      <trkpt lat="57.38084" lon="-6.19472">
        <ele>26.94</ele>
        <time>2021-03-20T17:55:48Z</time>
      </trkpt>
      <trkpt lat="57.3795" lon="-6.19506">
        <ele>24.56</ele>
        <time>2021-03-20T17:55:51Z</time>
      </trkpt>
      <trkpt lat="57.37881" lon="-6.19493">
        <ele>26.73</ele>
        <time>2021-03-20T17:55:54Z</time>
      </trkpt>
      <trkpt lat="57.37825" lon="-6.19489">
        <ele>26.89</ele>
        <time>2021-03-20T17:55:57Z</time>
      </trkpt>
      <trkpt lat="57.37781" lon="-6.19498">
        <ele>25.26</ele>
        <time>2021-03-20T17:56:00Z</time>
      </trkpt>
      <trkpt lat="57.37694" lon="-6.19504">
        <ele>22.57</ele>
        <time>2021-03-20T17:56:03Z</time>
      </trkpt>
      <trkpt lat="57.37679" lon="-6.19517">
        <ele>21.48</ele>
        <time>2021-03-20T17:56:06Z</time>
      </trkpt>
      <trkpt lat="57.3767" lon="-6.19503">
        <ele>22.74</ele>
        <time>2021-03-20T17:56:10Z</time>
      </trkpt>
      <trkpt lat="57.37646" lon="-6.19476">
        <ele>26.39</ele>
        <time>2021-03-20T17:56:13Z</time>
      </trkpt>
      <trkpt lat="57.37623" lon="-6.19466">
        <ele>28.44</ele>
        <time>2021-03-20T17:56:16Z</time>
      </trkpt>
      <trkpt lat="57.3759" lon="-6.19465">
        <ele>29.82</ele>
        <time>2021-03-20T17:56:20Z</time>
      </trkpt>
      <trkpt lat="57.37517" lon="-6.19475">
        <ele>29.32</ele>
        <time>2021-03-20T17:56:23Z</time>
      </trkpt>
      <trkpt lat="57.37463" lon="-6.19468">
        <ele>29.01</ele>
        <time>2021-03-20T17:56:26Z</time>
      </trkpt>
      <trkpt lat="57.37408" lon="-6.19464">
        <ele>29.56</ele>
        <time>2021-03-20T17:56:30Z</time>
      </trkpt>
      <trkpt lat="57.37351" lon="-6.19468">
        <ele>28.51</ele>
        <time>2021-03-20T17:56:33Z</time>
      </trkpt>
      <trkpt lat="57.37314" lon="-6.19463">
        <ele>28.29</ele>
        <time>2021-03-20T17:56:37Z</time>
      </trkpt>
      <trkpt lat="57.37183" lon="-6.19425">
        <ele>33.09</ele>
        <time>2021-03-20T17:56:40Z</time>
      </trkpt>
      <trkpt lat="57.36966" lon="-6.19393">
        <ele>40.28</ele>
        <time>2021-03-20T17:56:43Z</time>
      </trkpt>
      <trkpt lat="57.36883" lon="-6.19393">
        <ele>41.19</ele>
        <time>2021-03-20T17:56:47Z</time>
      </trkpt>
      <trkpt lat="57.3682" lon="-6.19403">
        <ele>40.78</ele>
        <time>2021-03-20T17:56:50Z</time>
      </trkpt>
      <trkpt lat="57.36804" lon="-6.19397">
        <ele>41.08</ele>
        <time>2021-03-20T17:56:54Z</time>
      </trkpt>
      <trkpt lat="57.36743" lon="-6.19352">
        <ele>44.89</ele>
        <time>2021-03-20T17:56:57Z</time>
      </trkpt>
      <trkpt lat="57.36712" lon="-6.19333">
        <ele>45.62</ele>
        <time>2021-03-20T17:57:00Z</time>
      </trkpt>
      <trkpt lat="57.36687" lon="-6.19328">
        <ele>45.78</ele>
        <time>2021-03-20T17:57:04Z</time>
      </trkpt>
      <trkpt lat="57.36661" lon="-6.19328">
        <ele>45.41</ele>
        <time>2021-03-20T17:57:07Z</time>
      </trkpt>
      <trkpt lat="57.3663" lon="-6.1934">
        <ele>43.63</ele>
        <time>2021-03-20T17:57:11Z</time>
      </trkpt>
      <trkpt lat="57.36591" lon="-6.19363">
        <ele>42.65</ele>
        <time>2021-03-20T17:57:14Z</time>
      </trkpt>
      <trkpt lat="57.36357" lon="-6.1952">
        <ele>43.69</ele>
        <time>2021-03-20T17:57:17Z</time>
      </trkpt>
      <trkpt lat="57.36334" lon="-6.19539">
        <ele>43.58</ele>
        <time>2021-03-20T17:57:21Z</time>
      </trkpt>
      <trkpt lat="57.36275" lon="-6.19613">
        <ele>44.24</ele>
        <time>2021-03-20T17:57:24Z</time>
      </trkpt>
      <trkpt lat="57.36241" lon="-6.1964">
        <ele>44.92</ele>
        <time>2021-03-20T17:57:28Z</time>
      </trkpt>
      <trkpt lat="57.36042" lon="-6.19744">
        <ele>46.8</ele>
        <time>2021-03-20T17:57:31Z</time>
      </trkpt>
      <trkpt lat="57.35968" lon="-6.19761">
        <ele>48.35</ele>
        <time>2021-03-20T17:57:34Z</time>
      </trkpt>
      <trkpt lat="57.35923" lon="-6.19763">
        <ele>49.84</ele>
        <time>2021-03-20T17:57:38Z</time>
      </trkpt>
      <trkpt lat="57.35898" lon="-6.19753">
        <ele>50.76</ele>
        <time>2021-03-20T17:57:41Z</time>
      </trkpt>
      <trkpt lat="57.35825" lon="-6.1971">
        <ele>51.7</ele>
        <time>2021-03-20T17:57:44Z</time>
      </trkpt>
      <trkpt lat="57.35794" lon="-6.19701">
        <ele>52.73</ele>
        <time>2021-03-20T17:57:48Z</time>
      </trkpt>
      <trkpt lat="57.35586" lon="-6.19677">
        <ele>55.28</ele>
        <time>2021-03-20T17:57:51Z</time>
      </trkpt>
      <trkpt lat="57.35542" lon="-6.19682">
        <ele>56.64</ele>
        <time>2021-03-20T17:57:55Z</time>
      </trkpt>
      <trkpt lat="57.35511" lon="-6.197">
        <ele>57.28</ele>
        <time>2021-03-20T17:57:58Z</time>
      </trkpt>
      <trkpt lat="57.35469" lon="-6.19734">
        <ele>56.26</ele>
        <time>2021-03-20T17:58:01Z</time>
      </trkpt>
      <trkpt lat="57.35442" lon="-6.19743">
        <ele>56.58</ele>
        <time>2021-03-20T17:58:05Z</time>
      </trkpt>
      <trkpt lat="57.35424" lon="-6.19739">
        <ele>57.23</ele>
        <time>2021-03-20T17:58:08Z</time>
      </trkpt>
      <trkpt lat="57.35387" lon="-6.19716">
        <ele>58.29</ele>
        <time>2021-03-20T17:58:12Z</time>
      </trkpt>
      <trkpt lat="57.35351" lon="-6.19684">
        <ele>57.75</ele>
        <time>2021-03-20T17:58:15Z</time>
      </trkpt>
      <trkpt lat="57.35316" lon="-6.19669">
        <ele>58.37</ele>
        <time>2021-03-20T17:58:18Z</time>
      </trkpt>
      <trkpt lat="57.35316" lon="-6.19669">
        <ele>58.37</ele>
        <time>2021-03-20T17:58:18Z</time>
      </trkpt>
      <trkpt lat="57.35301" lon="-6.19663">
        <ele>58.99</ele>
        <time>2021-03-20T17:58:23Z</time>
      </trkpt>
      <trkpt lat="57.35121" lon="-6.19617">
        <ele>59.27</ele>
        <time>2021-03-20T17:58:28Z</time>
      </trkpt>
      <trkpt lat="57.35074" lon="-6.1961">
        <ele>64.14</ele>
        <time>2021-03-20T17:58:33Z</time>
      </trkpt>
      <trkpt lat="57.35047" lon="-6.19623">
        <ele>66</ele>
        <time>2021-03-20T17:58:38Z</time>
      </trkpt>
      <trkpt lat="57.35012" lon="-6.19654">
        <ele>67.65</ele>
        <time>2021-03-20T17:58:43Z</time>
      </trkpt>
      <trkpt lat="57.34977" lon="-6.19678">
        <ele>68.47</ele>
        <time>2021-03-20T17:58:48Z</time>
      </trkpt>
      <trkpt lat="57.34953" lon="-6.19684">
        <ele>69.05</ele>
        <time>2021-03-20T17:58:53Z</time>
      </trkpt>
      <trkpt lat="57.34909" lon="-6.19685">
        <ele>70.39</ele>
        <time>2021-03-20T17:58:57Z</time>
      </trkpt>
      <trkpt lat="57.34749" lon="-6.19678">
        <ele>76.43</ele>
        <time>2021-03-20T17:59:02Z</time>
      </trkpt>
      <trkpt lat="57.34704" lon="-6.19682">
        <ele>76.17</ele>
        <time>2021-03-20T17:59:07Z</time>
      </trkpt>
      <trkpt lat="57.34613" lon="-6.19726">
        <ele>79.15</ele>
        <time>2021-03-20T17:59:12Z</time>
      </trkpt>
      <trkpt lat="57.34522" lon="-6.19762">
        <ele>79.27</ele>
        <time>2021-03-20T17:59:17Z</time>
      </trkpt>
      <trkpt lat="57.34498" lon="-6.19766">
        <ele>80.16</ele>
        <time>2021-03-20T17:59:22Z</time>
      </trkpt>
      <trkpt lat="57.34466" lon="-6.19766">
        <ele>79.93</ele>
        <time>2021-03-20T17:59:27Z</time>
      </trkpt>
      <trkpt lat="57.34427" lon="-6.19753">
        <ele>80.13</ele>
        <time>2021-03-20T17:59:32Z</time>
      </trkpt>
      <trkpt lat="57.34387" lon="-6.19731">
        <ele>83.02</ele>
        <time>2021-03-20T17:59:37Z</time>
      </trkpt>
      <trkpt lat="57.34366" lon="-6.19727">
        <ele>83.93</ele>
        <time>2021-03-20T17:59:41Z</time>
      </trkpt>
      <trkpt lat="57.34345" lon="-6.19732">
        <ele>83.47</ele>
        <time>2021-03-20T17:59:46Z</time>
      </trkpt>
      <trkpt lat="57.3429" lon="-6.19758">
        <ele>82.11</ele>
        <time>2021-03-20T17:59:51Z</time>
      </trkpt>
      <trkpt lat="57.34075" lon="-6.19872">
        <ele>90.62</ele>
        <time>2021-03-20T17:59:56Z</time>
      </trkpt>
      <trkpt lat="57.34029" lon="-6.19891">
        <ele>89.66</ele>
        <time>2021-03-20T18:00:01Z</time>
      </trkpt>
      <trkpt lat="57.3396" lon="-6.199">
        <ele>93.99</ele>
        <time>2021-03-20T18:00:06Z</time>
      </trkpt>
      <trkpt lat="57.33739" lon="-6.199">
        <ele>97.35</ele>
        <time>2021-03-20T18:00:11Z</time>
      </trkpt>
      <trkpt lat="57.33694" lon="-6.19892">
        <ele>100.58</ele>
        <time>2021-03-20T18:00:16Z</time>
      </trkpt>
      <trkpt lat="57.33523" lon="-6.19829">
        <ele>103.66</ele>
        <time>2021-03-20T18:00:20Z</time>
      </trkpt>
      <trkpt lat="57.33495" lon="-6.1983">
        <ele>103.85</ele>
        <time>2021-03-20T18:00:25Z</time>
      </trkpt>
      <trkpt lat="57.33449" lon="-6.19835">
        <ele>104.65</ele>
        <time>2021-03-20T18:00:30Z</time>
      </trkpt>
      <trkpt lat="57.33359" lon="-6.19888">
        <ele>102.26</ele>
        <time>2021-03-20T18:00:35Z</time>
      </trkpt>
      <trkpt lat="57.33236" lon="-6.20017">
        <ele>101</ele>
        <time>2021-03-20T18:00:40Z</time>
      </trkpt>
      <trkpt lat="57.33107" lon="-6.2014">
        <ele>99.29</ele>
        <time>2021-03-20T18:00:45Z</time>
      </trkpt>
      <trkpt lat="57.32936" lon="-6.20282">
        <ele>97.49</ele>
        <time>2021-03-20T18:00:50Z</time>
      </trkpt>
      <trkpt lat="57.32895" lon="-6.20298">
        <ele>99.26</ele>
        <time>2021-03-20T18:00:55Z</time>
      </trkpt>
      <trkpt lat="57.32866" lon="-6.20297">
        <ele>100.47</ele>
        <time>2021-03-20T18:00:59Z</time>
      </trkpt>
      <trkpt lat="57.32787" lon="-6.20281">
        <ele>103.33</ele>
        <time>2021-03-20T18:01:04Z</time>
      </trkpt>
      <trkpt lat="57.32749" lon="-6.20283">
        <ele>105.49</ele>
        <time>2021-03-20T18:01:09Z</time>
      </trkpt>
      <trkpt lat="57.32663" lon="-6.20323">
        <ele>102.4</ele>
        <time>2021-03-20T18:01:14Z</time>
      </trkpt>
      <trkpt lat="57.32372" lon="-6.20468">
        <ele>106.04</ele>
        <time>2021-03-20T18:01:19Z</time>
      </trkpt>
      <trkpt lat="57.32315" lon="-6.20488">
        <ele>106</ele>
        <time>2021-03-20T18:01:24Z</time>
      </trkpt>
      <trkpt lat="57.32102" lon="-6.20516">
        <ele>110.44</ele>
        <time>2021-03-20T18:01:29Z</time>
      </trkpt>
      <trkpt lat="57.32073" lon="-6.20509">
        <ele>111.04</ele>
        <time>2021-03-20T18:01:34Z</time>
      </trkpt>
      <trkpt lat="57.31669" lon="-6.20148">
        <ele>110.86</ele>
        <time>2021-03-20T18:01:39Z</time>
      </trkpt>
      <trkpt lat="57.3153" lon="-6.20019">
        <ele>109.81</ele>
        <time>2021-03-20T18:01:43Z</time>
      </trkpt>
      <trkpt lat="57.31367" lon="-6.19846">
        <ele>104.95</ele>
        <time>2021-03-20T18:01:48Z</time>
      </trkpt>
      <trkpt lat="57.31322" lon="-6.1979">
        <ele>104.71</ele>
        <time>2021-03-20T18:01:53Z</time>
      </trkpt>
      <trkpt lat="57.3101" lon="-6.19344">
        <ele>105</ele>
        <time>2021-03-20T18:01:58Z</time>
      </trkpt>
      <trkpt lat="57.30983" lon="-6.193">
        <ele>103.82</ele>
        <time>2021-03-20T18:02:03Z</time>
      </trkpt>
      <trkpt lat="57.30916" lon="-6.19078">
        <ele>102.95</ele>
        <time>2021-03-20T18:02:08Z</time>
      </trkpt>
      <trkpt lat="57.30887" lon="-6.19024">
        <ele>99.04</ele>
        <time>2021-03-20T18:02:13Z</time>
      </trkpt>
      <trkpt lat="57.30857" lon="-6.18987">
        <ele>97.99</ele>
        <time>2021-03-20T18:02:18Z</time>
      </trkpt>
      <trkpt lat="57.30807" lon="-6.18939">
        <ele>95.35</ele>
        <time>2021-03-20T18:02:22Z</time>
      </trkpt>
      <trkpt lat="57.30755" lon="-6.18901">
        <ele>91.49</ele>
        <time>2021-03-20T18:02:27Z</time>
      </trkpt>
      <trkpt lat="57.30565" lon="-6.18786">
        <ele>84.47</ele>
        <time>2021-03-20T18:02:32Z</time>
      </trkpt>
      <trkpt lat="57.3035" lon="-6.18708">
        <ele>78</ele>
        <time>2021-03-20T18:02:37Z</time>
      </trkpt>
      <trkpt lat="57.30268" lon="-6.18661">
        <ele>76.29</ele>
        <time>2021-03-20T18:02:42Z</time>
      </trkpt>
      <trkpt lat="57.30227" lon="-6.18621">
        <ele>75.62</ele>
        <time>2021-03-20T18:02:47Z</time>
      </trkpt>
      <trkpt lat="57.30068" lon="-6.18437">
        <ele>70.82</ele>
        <time>2021-03-20T18:02:52Z</time>
      </trkpt>
      <trkpt lat="57.30031" lon="-6.18391">
        <ele>70.96</ele>
        <time>2021-03-20T18:02:57Z</time>
      </trkpt>
      <trkpt lat="57.2995" lon="-6.18303">
        <ele>65.94</ele>
        <time>2021-03-20T18:03:02Z</time>
      </trkpt>
      <trkpt lat="57.29887" lon="-6.18267">
        <ele>64.13</ele>
        <time>2021-03-20T18:03:06Z</time>
      </trkpt>
      <trkpt lat="57.29733" lon="-6.18222">
        <ele>52.36</ele>
        <time>2021-03-20T18:03:11Z</time>
      </trkpt>
      <trkpt lat="57.297" lon="-6.18193">
        <ele>51.67</ele>
        <time>2021-03-20T18:03:16Z</time>
      </trkpt>
      <trkpt lat="57.29621" lon="-6.18082">
        <ele>46.88</ele>
        <time>2021-03-20T18:03:21Z</time>
      </trkpt>
      <trkpt lat="57.29358" lon="-6.17909">
        <ele>31.53</ele>
        <time>2021-03-20T18:03:26Z</time>
      </trkpt>
      <trkpt lat="57.29255" lon="-6.17851">
        <ele>24.91</ele>
        <time>2021-03-20T18:03:31Z</time>
      </trkpt>
      <trkpt lat="57.2922" lon="-6.17823">
        <ele>22.47</ele>
        <time>2021-03-20T18:03:36Z</time>
      </trkpt>
      <trkpt lat="57.29179" lon="-6.1777">
        <ele>18.15</ele>
        <time>2021-03-20T18:03:41Z</time>
      </trkpt>
      <trkpt lat="57.2914" lon="-6.17697">
        <ele>16.07</ele>
        <time>2021-03-20T18:03:45Z</time>
      </trkpt>
      <trkpt lat="57.29101" lon="-6.17615">
        <ele>14.93</ele>
        <time>2021-03-20T18:03:50Z</time>
      </trkpt>
      <trkpt lat="57.29079" lon="-6.17561">
        <ele>12.71</ele>
        <time>2021-03-20T18:03:55Z</time>
      </trkpt>
      <trkpt lat="57.29054" lon="-6.17493">
        <ele>12.07</ele>
        <time>2021-03-20T18:04:00Z</time>
      </trkpt>
      <trkpt lat="57.29038" lon="-6.17444">
        <ele>11.62</ele>
        <time>2021-03-20T18:04:05Z</time>
      </trkpt>
      <trkpt lat="57.29026" lon="-6.17372">
        <ele>10.46</ele>
        <time>2021-03-20T18:04:10Z</time>
      </trkpt>
      <trkpt lat="57.29023" lon="-6.17328">
        <ele>9.81</ele>
        <time>2021-03-20T18:04:15Z</time>
      </trkpt>
      <trkpt lat="57.29024" lon="-6.17273">
        <ele>9</ele>
        <time>2021-03-20T18:04:20Z</time>
      </trkpt>
      <trkpt lat="57.2903" lon="-6.17213">
        <ele>10.29</ele>
        <time>2021-03-20T18:04:24Z</time>
      </trkpt>
      <trkpt lat="57.29037" lon="-6.17181">
        <ele>11.15</ele>
        <time>2021-03-20T18:04:29Z</time>
      </trkpt>
      <trkpt lat="57.29046" lon="-6.17147">
        <ele>11.59</ele>
        <time>2021-03-20T18:04:34Z</time>
      </trkpt>
      <trkpt lat="57.29058" lon="-6.17113">
        <ele>11.85</ele>
        <time>2021-03-20T18:04:39Z</time>
      </trkpt>
      <trkpt lat="57.29081" lon="-6.17068">
        <ele>13.18</ele>
        <time>2021-03-20T18:04:44Z</time>
      </trkpt>
      <trkpt lat="57.291" lon="-6.17037">
        <ele>12.85</ele>
        <time>2021-03-20T18:04:49Z</time>
      </trkpt>
      <trkpt lat="57.29263" lon="-6.16794">
        <ele>12.35</ele>
        <time>2021-03-20T18:04:54Z</time>
      </trkpt>
      <trkpt lat="57.29363" lon="-6.16607">
        <ele>11.17</ele>
        <time>2021-03-20T18:04:59Z</time>
      </trkpt>
      <trkpt lat="57.29469" lon="-6.16466">
        <ele>10.71</ele>
        <time>2021-03-20T18:05:04Z</time>
      </trkpt>
      <trkpt lat="57.29536" lon="-6.16371">
        <ele>9.48</ele>
        <time>2021-03-20T18:05:08Z</time>
      </trkpt>
      <trkpt lat="57.2957" lon="-6.16316">
        <ele>8.14</ele>
        <time>2021-03-20T18:05:13Z</time>
      </trkpt>
      <trkpt lat="57.29596" lon="-6.16265">
        <ele>9.19</ele>
        <time>2021-03-20T18:05:18Z</time>
      </trkpt>
      <trkpt lat="57.29622" lon="-6.16197">
        <ele>9.28</ele>
        <time>2021-03-20T18:05:23Z</time>
      </trkpt>
      <trkpt lat="57.29637" lon="-6.16128">
        <ele>9.63</ele>
        <time>2021-03-20T18:05:28Z</time>
      </trkpt>
      <trkpt lat="57.29645" lon="-6.16062">
        <ele>9.73</ele>
        <time>2021-03-20T18:05:33Z</time>
      </trkpt>
      <trkpt lat="57.29651" lon="-6.15711">
        <ele>11.48</ele>
        <time>2021-03-20T18:05:38Z</time>
      </trkpt>
      <trkpt lat="57.29655" lon="-6.15662">
        <ele>12.37</ele>
        <time>2021-03-20T18:05:43Z</time>
      </trkpt>
      <trkpt lat="57.29685" lon="-6.1555">
        <ele>13.7</ele>
        <time>2021-03-20T18:05:47Z</time>
      </trkpt>
      <trkpt lat="57.29835" lon="-6.15117">
        <ele>17.86</ele>
        <time>2021-03-20T18:05:52Z</time>
      </trkpt>
      <trkpt lat="57.29853" lon="-6.15047">
        <ele>18.66</ele>
        <time>2021-03-20T18:05:57Z</time>
      </trkpt>
      <trkpt lat="57.2988" lon="-6.14891">
        <ele>21.09</ele>
        <time>2021-03-20T18:06:02Z</time>
      </trkpt>
      <trkpt lat="57.29912" lon="-6.14793">
        <ele>22.25</ele>
        <time>2021-03-20T18:06:07Z</time>
      </trkpt>
      <trkpt lat="57.29938" lon="-6.1473">
        <ele>23.8</ele>
        <time>2021-03-20T18:06:12Z</time>
      </trkpt>
      <trkpt lat="57.29973" lon="-6.14668">
        <ele>21.5</ele>
        <time>2021-03-20T18:06:17Z</time>
      </trkpt>
      <trkpt lat="57.30204" lon="-6.14323">
        <ele>27.37</ele>
        <time>2021-03-20T18:06:22Z</time>
      </trkpt>
      <trkpt lat="57.30233" lon="-6.14273">
        <ele>29.01</ele>
        <time>2021-03-20T18:06:27Z</time>
      </trkpt>
      <trkpt lat="57.30258" lon="-6.14211">
        <ele>31</ele>
        <time>2021-03-20T18:06:31Z</time>
      </trkpt>
      <trkpt lat="57.30278" lon="-6.1413">
        <ele>33.29</ele>
        <time>2021-03-20T18:06:36Z</time>
      </trkpt>
      <trkpt lat="57.30348" lon="-6.13791">
        <ele>26.71</ele>
        <time>2021-03-20T18:06:41Z</time>
      </trkpt>
      <trkpt lat="57.30362" lon="-6.13731">
        <ele>25.53</ele>
        <time>2021-03-20T18:06:46Z</time>
      </trkpt>
      <trkpt lat="57.30383" lon="-6.13667">
        <ele>27.1</ele>
        <time>2021-03-20T18:06:51Z</time>
      </trkpt>
      <trkpt lat="57.30504" lon="-6.13404">
        <ele>26.88</ele>
        <time>2021-03-20T18:06:56Z</time>
      </trkpt>
      <trkpt lat="57.30536" lon="-6.13343">
        <ele>27.6</ele>
        <time>2021-03-20T18:07:01Z</time>
      </trkpt>
      <trkpt lat="57.30615" lon="-6.13203">
        <ele>27.33</ele>
        <time>2021-03-20T18:07:06Z</time>
      </trkpt>
      <trkpt lat="57.30663" lon="-6.1313">
        <ele>29.14</ele>
        <time>2021-03-20T18:07:10Z</time>
      </trkpt>
      <trkpt lat="57.30726" lon="-6.13038">
        <ele>28.24</ele>
        <time>2021-03-20T18:07:15Z</time>
      </trkpt>
      <trkpt lat="57.308" lon="-6.12953">
        <ele>26.2</ele>
        <time>2021-03-20T18:07:20Z</time>
      </trkpt>
      <trkpt lat="57.30844" lon="-6.12877">
        <ele>25.18</ele>
        <time>2021-03-20T18:07:25Z</time>
      </trkpt>
      <trkpt lat="57.30906" lon="-6.12734">
        <ele>24.58</ele>
        <time>2021-03-20T18:07:30Z</time>
      </trkpt>
      <trkpt lat="57.3104" lon="-6.12416">
        <ele>24.09</ele>
        <time>2021-03-20T18:07:35Z</time>
      </trkpt>
      <trkpt lat="57.31097" lon="-6.12302">
        <ele>24.54</ele>
        <time>2021-03-20T18:07:40Z</time>
      </trkpt>
      <trkpt lat="57.31247" lon="-6.12021">
        <ele>15.64</ele>
        <time>2021-03-20T18:07:45Z</time>
      </trkpt>
      <trkpt lat="57.3128" lon="-6.11925">
        <ele>13.68</ele>
        <time>2021-03-20T18:07:50Z</time>
      </trkpt>
      <trkpt lat="57.31303" lon="-6.11828">
        <ele>13.33</ele>
        <time>2021-03-20T18:07:54Z</time>
      </trkpt>
      <trkpt lat="57.31308" lon="-6.11766">
        <ele>12.27</ele>
        <time>2021-03-20T18:07:59Z</time>
      </trkpt>
      <trkpt lat="57.31311" lon="-6.11697">
        <ele>10.65</ele>
        <time>2021-03-20T18:08:04Z</time>
      </trkpt>
      <trkpt lat="57.3131" lon="-6.11604">
        <ele>6.59</ele>
        <time>2021-03-20T18:08:09Z</time>
      </trkpt>
      <trkpt lat="57.31303" lon="-6.11446">
        <ele>4.12</ele>
        <time>2021-03-20T18:08:14Z</time>
      </trkpt>
      <trkpt lat="57.31303" lon="-6.11365">
        <ele>4.2</ele>
        <time>2021-03-20T18:08:19Z</time>
      </trkpt>
      <trkpt lat="57.31307" lon="-6.11281">
        <ele>4.7</ele>
        <time>2021-03-20T18:08:24Z</time>
      </trkpt>
      <trkpt lat="57.31319" lon="-6.11172">
        <ele>9.17</ele>
        <time>2021-03-20T18:08:29Z</time>
      </trkpt>
      <trkpt lat="57.31335" lon="-6.11073">
        <ele>10.14</ele>
        <time>2021-03-20T18:08:33Z</time>
      </trkpt>
      <trkpt lat="57.31354" lon="-6.10995">
        <ele>8.74</ele>
        <time>2021-03-20T18:08:38Z</time>
      </trkpt>
      <trkpt lat="57.31374" lon="-6.10903">
        <ele>8.46</ele>
        <time>2021-03-20T18:08:43Z</time>
      </trkpt>
      <trkpt lat="57.31393" lon="-6.10779">
        <ele>8.26</ele>
        <time>2021-03-20T18:08:48Z</time>
      </trkpt>
      <trkpt lat="57.31422" lon="-6.10543">
        <ele>7.37</ele>
        <time>2021-03-20T18:08:53Z</time>
      </trkpt>
      <trkpt lat="57.31428" lon="-6.10437">
        <ele>7.94</ele>
        <time>2021-03-20T18:08:58Z</time>
      </trkpt>
      <trkpt lat="57.31425" lon="-6.1035">
        <ele>6.7</ele>
        <time>2021-03-20T18:09:03Z</time>
      </trkpt>
      <trkpt lat="57.31411" lon="-6.10259">
        <ele>7.18</ele>
        <time>2021-03-20T18:09:08Z</time>
      </trkpt>
      <trkpt lat="57.31388" lon="-6.10174">
        <ele>7.67</ele>
        <time>2021-03-20T18:09:12Z</time>
      </trkpt>
      <trkpt lat="57.31361" lon="-6.10108">
        <ele>9.99</ele>
        <time>2021-03-20T18:09:17Z</time>
      </trkpt>
      <trkpt lat="57.31325" lon="-6.10047">
        <ele>11.51</ele>
        <time>2021-03-20T18:09:22Z</time>
      </trkpt>
      <trkpt lat="57.31185" lon="-6.09849">
        <ele>16.27</ele>
        <time>2021-03-20T18:09:27Z</time>
      </trkpt>
      <trkpt lat="57.30972" lon="-6.0952">
        <ele>23.73</ele>
        <time>2021-03-20T18:09:32Z</time>
      </trkpt>
      <trkpt lat="57.30874" lon="-6.09381">
        <ele>24.36</ele>
        <time>2021-03-20T18:09:37Z</time>
      </trkpt>
      <trkpt lat="57.30795" lon="-6.09285">
        <ele>29.75</ele>
        <time>2021-03-20T18:09:42Z</time>
      </trkpt>
      <trkpt lat="57.30713" lon="-6.09215">
        <ele>30.09</ele>
        <time>2021-03-20T18:09:47Z</time>
      </trkpt>
      <trkpt lat="57.30645" lon="-6.09163">
        <ele>30.53</ele>
        <time>2021-03-20T18:09:52Z</time>
      </trkpt>
      <trkpt lat="57.30566" lon="-6.09122">
        <ele>29.6</ele>
        <time>2021-03-20T18:09:56Z</time>
      </trkpt>
      <trkpt lat="57.30479" lon="-6.09089">
        <ele>24.46</ele>
        <time>2021-03-20T18:10:01Z</time>
      </trkpt>
      <trkpt lat="57.30383" lon="-6.09061">
        <ele>23.82</ele>
        <time>2021-03-20T18:10:06Z</time>
      </trkpt>
      <trkpt lat="57.29937" lon="-6.08942">
        <ele>26</ele>
        <time>2021-03-20T18:10:11Z</time>
      </trkpt>
      <trkpt lat="57.29881" lon="-6.08913">
        <ele>27.31</ele>
        <time>2021-03-20T18:10:16Z</time>
      </trkpt>
      <trkpt lat="57.29839" lon="-6.08876">
        <ele>29.8</ele>
        <time>2021-03-20T18:10:21Z</time>
      </trkpt>
      <trkpt lat="57.29754" lon="-6.08785">
        <ele>32.5</ele>
        <time>2021-03-20T18:10:26Z</time>
      </trkpt>
      <trkpt lat="57.29712" lon="-6.08761">
        <ele>34.22</ele>
        <time>2021-03-20T18:10:31Z</time>
      </trkpt>
      <trkpt lat="57.29655" lon="-6.08747">
        <ele>38.74</ele>
        <time>2021-03-20T18:10:35Z</time>
      </trkpt>
      <trkpt lat="57.29584" lon="-6.08748">
        <ele>45.15</ele>
        <time>2021-03-20T18:10:40Z</time>
      </trkpt>
      <trkpt lat="57.2946" lon="-6.0877">
        <ele>49.42</ele>
        <time>2021-03-20T18:10:45Z</time>
      </trkpt>
      <trkpt lat="57.2941" lon="-6.08784">
        <ele>50.6</ele>
        <time>2021-03-20T18:10:50Z</time>
      </trkpt>
      <trkpt lat="57.29374" lon="-6.08803">
        <ele>52.02</ele>
        <time>2021-03-20T18:10:55Z</time>
      </trkpt>
      <trkpt lat="57.29347" lon="-6.08825">
        <ele>54.19</ele>
        <time>2021-03-20T18:11:00Z</time>
      </trkpt>
      <trkpt lat="57.29318" lon="-6.08855">
        <ele>59.09</ele>
        <time>2021-03-20T18:11:05Z</time>
      </trkpt>
      <trkpt lat="57.29318" lon="-6.08855">
        <ele>59.09</ele>
        <time>2021-03-20T18:11:05Z</time>
      </trkpt>
      <trkpt lat="57.29208" lon="-6.08968">
        <ele>63.98</ele>
        <time>2021-03-20T18:11:09Z</time>
      </trkpt>
      <trkpt lat="57.29137" lon="-6.09038">
        <ele>68.26</ele>
        <time>2021-03-20T18:11:13Z</time>
      </trkpt>
      <trkpt lat="57.29036" lon="-6.09111">
        <ele>75.57</ele>
        <time>2021-03-20T18:11:18Z</time>
      </trkpt>
      <trkpt lat="57.28932" lon="-6.09192">
        <ele>81.55</ele>
        <time>2021-03-20T18:11:22Z</time>
      </trkpt>
      <trkpt lat="57.28801" lon="-6.09354">
        <ele>88.63</ele>
        <time>2021-03-20T18:11:26Z</time>
      </trkpt>
      <trkpt lat="57.28771" lon="-6.09376">
        <ele>90.24</ele>
        <time>2021-03-20T18:11:30Z</time>
      </trkpt>
      <trkpt lat="57.28734" lon="-6.09389">
        <ele>92.13</ele>
        <time>2021-03-20T18:11:35Z</time>
      </trkpt>
      <trkpt lat="57.28692" lon="-6.09395">
        <ele>94.41</ele>
        <time>2021-03-20T18:11:39Z</time>
      </trkpt>
      <trkpt lat="57.28464" lon="-6.09375">
        <ele>111.17</ele>
        <time>2021-03-20T18:11:43Z</time>
      </trkpt>
      <trkpt lat="57.28365" lon="-6.09385">
        <ele>114.35</ele>
        <time>2021-03-20T18:11:47Z</time>
      </trkpt>
      <trkpt lat="57.28264" lon="-6.09405">
        <ele>118.39</ele>
        <time>2021-03-20T18:11:52Z</time>
      </trkpt>
      <trkpt lat="57.27976" lon="-6.09479">
        <ele>128.46</ele>
        <time>2021-03-20T18:11:56Z</time>
      </trkpt>
      <trkpt lat="57.27892" lon="-6.09514">
        <ele>130.87</ele>
        <time>2021-03-20T18:12:00Z</time>
      </trkpt>
      <trkpt lat="57.27815" lon="-6.09567">
        <ele>129.77</ele>
        <time>2021-03-20T18:12:04Z</time>
      </trkpt>
      <trkpt lat="57.27732" lon="-6.09636">
        <ele>126.08</ele>
        <time>2021-03-20T18:12:09Z</time>
      </trkpt>
      <trkpt lat="57.2757" lon="-6.09796">
        <ele>126.31</ele>
        <time>2021-03-20T18:12:13Z</time>
      </trkpt>
      <trkpt lat="57.27514" lon="-6.09853">
        <ele>128.4</ele>
        <time>2021-03-20T18:12:17Z</time>
      </trkpt>
      <trkpt lat="57.27467" lon="-6.0989">
        <ele>126.31</ele>
        <time>2021-03-20T18:12:21Z</time>
      </trkpt>
      <trkpt lat="57.27434" lon="-6.09894">
        <ele>121.66</ele>
        <time>2021-03-20T18:12:26Z</time>
      </trkpt>
      <trkpt lat="57.27399" lon="-6.09879">
        <ele>113.5</ele>
        <time>2021-03-20T18:12:30Z</time>
      </trkpt>
      <trkpt lat="57.27375" lon="-6.09845">
        <ele>109.71</ele>
        <time>2021-03-20T18:12:34Z</time>
      </trkpt>
      <trkpt lat="57.27365" lon="-6.09804">
        <ele>109.49</ele>
        <time>2021-03-20T18:12:38Z</time>
      </trkpt>
      <trkpt lat="57.27364" lon="-6.0975">
        <ele>108.42</ele>
        <time>2021-03-20T18:12:43Z</time>
      </trkpt>
      <trkpt lat="57.27366" lon="-6.0971">
        <ele>108.86</ele>
        <time>2021-03-20T18:12:47Z</time>
      </trkpt>
      <trkpt lat="57.2741" lon="-6.09546">
        <ele>97.72</ele>
        <time>2021-03-20T18:12:51Z</time>
      </trkpt>
      <trkpt lat="57.27434" lon="-6.0943">
        <ele>97.6</ele>
        <time>2021-03-20T18:12:55Z</time>
      </trkpt>
      <trkpt lat="57.27436" lon="-6.09377">
        <ele>99.07</ele>
        <time>2021-03-20T18:13:00Z</time>
      </trkpt>
      <trkpt lat="57.27435" lon="-6.09321">
        <ele>97.93</ele>
        <time>2021-03-20T18:13:04Z</time>
      </trkpt>
      <trkpt lat="57.27427" lon="-6.0926">
        <ele>94.42</ele>
        <time>2021-03-20T18:13:08Z</time>
      </trkpt>
      <trkpt lat="57.27406" lon="-6.09201">
        <ele>92.82</ele>
        <time>2021-03-20T18:13:12Z</time>
      </trkpt>
      <trkpt lat="57.2738" lon="-6.09145">
        <ele>89.52</ele>
        <time>2021-03-20T18:13:17Z</time>
      </trkpt>
      <trkpt lat="57.27344" lon="-6.09094">
        <ele>87.19</ele>
        <time>2021-03-20T18:13:21Z</time>
      </trkpt>
      <trkpt lat="57.27247" lon="-6.09001">
        <ele>80.1</ele>
        <time>2021-03-20T18:13:25Z</time>
      </trkpt>
      <trkpt lat="57.27177" lon="-6.08971">
        <ele>75.37</ele>
        <time>2021-03-20T18:13:29Z</time>
      </trkpt>
      <trkpt lat="57.27148" lon="-6.08963">
        <ele>69.63</ele>
        <time>2021-03-20T18:13:34Z</time>
      </trkpt>
      <trkpt lat="57.27148" lon="-6.08963">
        <ele>69.63</ele>
        <time>2021-03-20T18:13:34Z</time>
      </trkpt>
      <trkpt lat="57.26926" lon="-6.089">
        <ele>63.89</ele>
        <time>2021-03-20T18:13:39Z</time>
      </trkpt>
      <trkpt lat="57.26896" lon="-6.08898">
        <ele>61.74</ele>
        <time>2021-03-20T18:13:43Z</time>
      </trkpt>
      <trkpt lat="57.26853" lon="-6.08901">
        <ele>57.26</ele>
        <time>2021-03-20T18:13:48Z</time>
      </trkpt>
      <trkpt lat="57.26805" lon="-6.08929">
        <ele>55.06</ele>
        <time>2021-03-20T18:13:53Z</time>
      </trkpt>
      <trkpt lat="57.26737" lon="-6.08983">
        <ele>52.69</ele>
        <time>2021-03-20T18:13:58Z</time>
      </trkpt>
      <trkpt lat="57.2668" lon="-6.09013">
        <ele>48.3</ele>
        <time>2021-03-20T18:14:03Z</time>
      </trkpt>
      <trkpt lat="57.2647" lon="-6.09095">
        <ele>33.41</ele>
        <time>2021-03-20T18:14:08Z</time>
      </trkpt>
      <trkpt lat="57.26435" lon="-6.09104">
        <ele>30</ele>
        <time>2021-03-20T18:14:13Z</time>
      </trkpt>
      <trkpt lat="57.2641" lon="-6.09105">
        <ele>27.59</ele>
        <time>2021-03-20T18:14:17Z</time>
      </trkpt>
      <trkpt lat="57.26364" lon="-6.09089">
        <ele>22.53</ele>
        <time>2021-03-20T18:14:22Z</time>
      </trkpt>
      <trkpt lat="57.26324" lon="-6.09068">
        <ele>21.48</ele>
        <time>2021-03-20T18:14:27Z</time>
      </trkpt>
      <trkpt lat="57.26289" lon="-6.0903">
        <ele>23.88</ele>
        <time>2021-03-20T18:14:32Z</time>
      </trkpt>
      <trkpt lat="57.26261" lon="-6.0898">
        <ele>25.22</ele>
        <time>2021-03-20T18:14:37Z</time>
      </trkpt>
      <trkpt lat="57.2624" lon="-6.08918">
        <ele>23.15</ele>
        <time>2021-03-20T18:14:42Z</time>
      </trkpt>
      <trkpt lat="57.26226" lon="-6.08855">
        <ele>20.33</ele>
        <time>2021-03-20T18:14:47Z</time>
      </trkpt>
      <trkpt lat="57.2622" lon="-6.08789">
        <ele>17.66</ele>
        <time>2021-03-20T18:14:52Z</time>
      </trkpt>
      <trkpt lat="57.26221" lon="-6.08703">
        <ele>17.05</ele>
        <time>2021-03-20T18:14:56Z</time>
      </trkpt>
      <trkpt lat="57.26253" lon="-6.08568">
        <ele>13.78</ele>
        <time>2021-03-20T18:15:01Z</time>
      </trkpt>
      <trkpt lat="57.26468" lon="-6.08042">
        <ele>17.28</ele>
        <time>2021-03-20T18:15:06Z</time>
      </trkpt>
      <trkpt lat="57.26501" lon="-6.0794">
        <ele>15.93</ele>
        <time>2021-03-20T18:15:11Z</time>
      </trkpt>
      <trkpt lat="57.26537" lon="-6.078">
        <ele>11.71</ele>
        <time>2021-03-20T18:15:16Z</time>
      </trkpt>
      <trkpt lat="57.26573" lon="-6.07635">
        <ele>6.86</ele>
        <time>2021-03-20T18:15:21Z</time>
      </trkpt>
      <trkpt lat="57.26607" lon="-6.07494">
        <ele>2.3</ele>
        <time>2021-03-20T18:15:26Z</time>
      </trkpt>
      <trkpt lat="57.26625" lon="-6.07398">
        <ele>3.2</ele>
        <time>2021-03-20T18:15:30Z</time>
      </trkpt>
      <trkpt lat="57.26667" lon="-6.07069">
        <ele>4.01</ele>
        <time>2021-03-20T18:15:35Z</time>
      </trkpt>
      <trkpt lat="57.26684" lon="-6.06978">
        <ele>5.18</ele>
        <time>2021-03-20T18:15:40Z</time>
      </trkpt>
      <trkpt lat="57.26709" lon="-6.06899">
        <ele>9.07</ele>
        <time>2021-03-20T18:15:45Z</time>
      </trkpt>
      <trkpt lat="57.26752" lon="-6.06823">
        <ele>8.57</ele>
        <time>2021-03-20T18:15:50Z</time>
      </trkpt>
      <trkpt lat="57.26909" lon="-6.06637">
        <ele>6.95</ele>
        <time>2021-03-20T18:15:55Z</time>
      </trkpt>
      <trkpt lat="57.27035" lon="-6.06494">
        <ele>6.87</ele>
        <time>2021-03-20T18:16:00Z</time>
      </trkpt>
      <trkpt lat="57.2708" lon="-6.0643">
        <ele>6.41</ele>
        <time>2021-03-20T18:16:05Z</time>
      </trkpt>
      <trkpt lat="57.27212" lon="-6.06182">
        <ele>7.38</ele>
        <time>2021-03-20T18:16:09Z</time>
      </trkpt>
      <trkpt lat="57.2732" lon="-6.05957">
        <ele>16.27</ele>
        <time>2021-03-20T18:16:14Z</time>
      </trkpt>
      <trkpt lat="57.27364" lon="-6.05853">
        <ele>20.35</ele>
        <time>2021-03-20T18:16:19Z</time>
      </trkpt>
      <trkpt lat="57.27398" lon="-6.05757">
        <ele>22.36</ele>
        <time>2021-03-20T18:16:24Z</time>
      </trkpt>
      <trkpt lat="57.27484" lon="-6.05495">
        <ele>18.77</ele>
        <time>2021-03-20T18:16:29Z</time>
      </trkpt>
      <trkpt lat="57.27521" lon="-6.05402">
        <ele>19.91</ele>
        <time>2021-03-20T18:16:34Z</time>
      </trkpt>
      <trkpt lat="57.27554" lon="-6.05303">
        <ele>20.52</ele>
        <time>2021-03-20T18:16:39Z</time>
      </trkpt>
      <trkpt lat="57.27547" lon="-6.05279">
        <ele>24.1</ele>
        <time>2021-03-20T18:16:41Z</time>
      </trkpt>
      <trkpt lat="57.27549" lon="-6.05268">
        <ele>24.58</ele>
        <time>2021-03-20T18:16:43Z</time>
      </trkpt>
      <trkpt lat="57.27588" lon="-6.05144">
        <ele>28.32</ele>
        <time>2021-03-20T18:16:45Z</time>
      </trkpt>
      <trkpt lat="57.27609" lon="-6.05059">
        <ele>28.24</ele>
        <time>2021-03-20T18:16:47Z</time>
      </trkpt>
      <trkpt lat="57.2763" lon="-6.04952">
        <ele>26.73</ele>
        <time>2021-03-20T18:16:49Z</time>
      </trkpt>
      <trkpt lat="57.27638" lon="-6.04892">
        <ele>25.28</ele>
        <time>2021-03-20T18:16:51Z</time>
      </trkpt>
      <trkpt lat="57.27638" lon="-6.04848">
        <ele>23.63</ele>
        <time>2021-03-20T18:16:54Z</time>
      </trkpt>
      <trkpt lat="57.27634" lon="-6.04791">
        <ele>22.34</ele>
        <time>2021-03-20T18:16:56Z</time>
      </trkpt>
      <trkpt lat="57.27626" lon="-6.04732">
        <ele>22.71</ele>
        <time>2021-03-20T18:16:58Z</time>
      </trkpt>
      <trkpt lat="57.27595" lon="-6.04569">
        <ele>16.28</ele>
        <time>2021-03-20T18:17:00Z</time>
      </trkpt>
      <trkpt lat="57.27566" lon="-6.04502">
        <ele>13.06</ele>
        <time>2021-03-20T18:17:02Z</time>
      </trkpt>
      <trkpt lat="57.27498" lon="-6.04367">
        <ele>9.33</ele>
        <time>2021-03-20T18:17:04Z</time>
      </trkpt>
      <trkpt lat="57.2749" lon="-6.04343">
        <ele>8.81</ele>
        <time>2021-03-20T18:17:06Z</time>
      </trkpt>
      <trkpt lat="57.27487" lon="-6.04319">
        <ele>8.46</ele>
        <time>2021-03-20T18:17:08Z</time>
      </trkpt>
      <trkpt lat="57.27492" lon="-6.04299">
        <ele>8.05</ele>
        <time>2021-03-20T18:17:11Z</time>
      </trkpt>
      <trkpt lat="57.275" lon="-6.04283">
        <ele>7.21</ele>
        <time>2021-03-20T18:17:13Z</time>
      </trkpt>
      <trkpt lat="57.27511" lon="-6.04264">
        <ele>6.18</ele>
        <time>2021-03-20T18:17:15Z</time>
      </trkpt>
      <trkpt lat="57.27536" lon="-6.04232">
        <ele>5.66</ele>
        <time>2021-03-20T18:17:17Z</time>
      </trkpt>
      <trkpt lat="57.27565" lon="-6.04218">
        <ele>5.79</ele>
        <time>2021-03-20T18:17:19Z</time>
      </trkpt>
      <trkpt lat="57.27669" lon="-6.04193">
        <ele>6.13</ele>
        <time>2021-03-20T18:17:21Z</time>
      </trkpt>
      <trkpt lat="57.27684" lon="-6.04216">
        <ele>4.76</ele>
        <time>2021-03-20T18:17:23Z</time>
      </trkpt>
      <trkpt lat="57.27716" lon="-6.04175">
        <ele>7.39</ele>
        <time>2021-03-20T18:17:29Z</time>
      </trkpt>
      <trkpt lat="57.27786" lon="-6.04105">
        <ele>9.82</ele>
        <time>2021-03-20T18:17:34Z</time>
      </trkpt>
      <trkpt lat="57.27865" lon="-6.04037">
        <ele>8.41</ele>
        <time>2021-03-20T18:17:40Z</time>
      </trkpt>
      <trkpt lat="57.27923" lon="-6.03971">
        <ele>7.64</ele>
        <time>2021-03-20T18:17:45Z</time>
      </trkpt>
      <trkpt lat="57.28007" lon="-6.0385">
        <ele>6.38</ele>
        <time>2021-03-20T18:17:51Z</time>
      </trkpt>
      <trkpt lat="57.28042" lon="-6.03809">
        <ele>5.22</ele>
        <time>2021-03-20T18:17:57Z</time>
      </trkpt>
      <trkpt lat="57.28186" lon="-6.03703">
        <ele>6.88</ele>
        <time>2021-03-20T18:18:02Z</time>
      </trkpt>
      <trkpt lat="57.28233" lon="-6.03641">
        <ele>7.33</ele>
        <time>2021-03-20T18:18:08Z</time>
      </trkpt>
      <trkpt lat="57.2828" lon="-6.03543">
        <ele>9.04</ele>
        <time>2021-03-20T18:18:13Z</time>
      </trkpt>
      <trkpt lat="57.28427" lon="-6.03104">
        <ele>14.73</ele>
        <time>2021-03-20T18:18:19Z</time>
      </trkpt>
      <trkpt lat="57.28525" lon="-6.02755">
        <ele>11.35</ele>
        <time>2021-03-20T18:18:24Z</time>
      </trkpt>
      <trkpt lat="57.28567" lon="-6.02626">
        <ele>14.07</ele>
        <time>2021-03-20T18:18:30Z</time>
      </trkpt>
      <trkpt lat="57.28618" lon="-6.02513">
        <ele>18.68</ele>
        <time>2021-03-20T18:18:35Z</time>
      </trkpt>
      <trkpt lat="57.28632" lon="-6.02478">
        <ele>19.51</ele>
        <time>2021-03-20T18:18:41Z</time>
      </trkpt>
      <trkpt lat="57.2865" lon="-6.02415">
        <ele>21.92</ele>
        <time>2021-03-20T18:18:46Z</time>
      </trkpt>
      <trkpt lat="57.28655" lon="-6.02385">
        <ele>22.69</ele>
        <time>2021-03-20T18:18:52Z</time>
      </trkpt>
      <trkpt lat="57.28659" lon="-6.02349">
        <ele>22.26</ele>
        <time>2021-03-20T18:18:58Z</time>
      </trkpt>
      <trkpt lat="57.28661" lon="-6.02311">
        <ele>22.05</ele>
        <time>2021-03-20T18:19:03Z</time>
      </trkpt>
      <trkpt lat="57.2866" lon="-6.02275">
        <ele>21.13</ele>
        <time>2021-03-20T18:19:09Z</time>
      </trkpt>
      <trkpt lat="57.28652" lon="-6.02165">
        <ele>22.56</ele>
        <time>2021-03-20T18:19:14Z</time>
      </trkpt>
      <trkpt lat="57.28642" lon="-6.02053">
        <ele>24.52</ele>
        <time>2021-03-20T18:19:20Z</time>
      </trkpt>
      <trkpt lat="57.28634" lon="-6.02008">
        <ele>24.09</ele>
        <time>2021-03-20T18:19:25Z</time>
      </trkpt>
      <trkpt lat="57.28624" lon="-6.01964">
        <ele>24.37</ele>
        <time>2021-03-20T18:19:31Z</time>
      </trkpt>
      <trkpt lat="57.28603" lon="-6.01905">
        <ele>25.63</ele>
        <time>2021-03-20T18:19:36Z</time>
      </trkpt>
      <trkpt lat="57.2859" lon="-6.01876">
        <ele>25.33</ele>
        <time>2021-03-20T18:19:42Z</time>
      </trkpt>
      <trkpt lat="57.28489" lon="-6.01667">
        <ele>23.89</ele>
        <time>2021-03-20T18:19:47Z</time>
      </trkpt>
      <trkpt lat="57.28407" lon="-6.01535">
        <ele>22.76</ele>
        <time>2021-03-20T18:19:53Z</time>
      </trkpt>
      <trkpt lat="57.28347" lon="-6.01462">
        <ele>20.49</ele>
        <time>2021-03-20T18:19:59Z</time>
      </trkpt>
      <trkpt lat="57.28176" lon="-6.01273">
        <ele>17.99</ele>
        <time>2021-03-20T18:20:04Z</time>
      </trkpt>
      <trkpt lat="57.27972" lon="-6.00938">
        <ele>20.73</ele>
        <time>2021-03-20T18:20:10Z</time>
      </trkpt>
      <trkpt lat="57.27731" lon="-6.00589">
        <ele>25.76</ele>
        <time>2021-03-20T18:20:15Z</time>
      </trkpt>
      <trkpt lat="57.27689" lon="-6.00504">
        <ele>24.05</ele>
        <time>2021-03-20T18:20:21Z</time>
      </trkpt>
      <trkpt lat="57.2765" lon="-6.00406">
        <ele>20.95</ele>
        <time>2021-03-20T18:20:26Z</time>
      </trkpt>
      <trkpt lat="57.27619" lon="-6.00339">
        <ele>20.73</ele>
        <time>2021-03-20T18:20:32Z</time>
      </trkpt>
      <trkpt lat="57.27583" lon="-6.0028">
        <ele>17.4</ele>
        <time>2021-03-20T18:20:37Z</time>
      </trkpt>
      <trkpt lat="57.27509" lon="-6.00169">
        <ele>13.31</ele>
        <time>2021-03-20T18:20:43Z</time>
      </trkpt>
      <trkpt lat="57.27451" lon="-6.00089">
        <ele>11.11</ele>
        <time>2021-03-20T18:20:48Z</time>
      </trkpt>
      <trkpt lat="57.27415" lon="-6.00053">
        <ele>10.93</ele>
        <time>2021-03-20T18:20:54Z</time>
      </trkpt>
      <trkpt lat="57.27318" lon="-5.99986">
        <ele>10.69</ele>
        <time>2021-03-20T18:21:00Z</time>
      </trkpt>
      <trkpt lat="57.27296" lon="-5.9996">
        <ele>11.23</ele>
        <time>2021-03-20T18:21:05Z</time>
      </trkpt>
      <trkpt lat="57.27207" lon="-5.99799">
        <ele>8.21</ele>
        <time>2021-03-20T18:21:11Z</time>
      </trkpt>
      <trkpt lat="57.27114" lon="-5.99658">
        <ele>8.4</ele>
        <time>2021-03-20T18:21:16Z</time>
      </trkpt>
      <trkpt lat="57.27039" lon="-5.99502">
        <ele>6.27</ele>
        <time>2021-03-20T18:21:22Z</time>
      </trkpt>
      <trkpt lat="57.27014" lon="-5.99426">
        <ele>6</ele>
        <time>2021-03-20T18:21:27Z</time>
      </trkpt>
      <trkpt lat="57.27006" lon="-5.99385">
        <ele>6.54</ele>
        <time>2021-03-20T18:21:33Z</time>
      </trkpt>
      <trkpt lat="57.27" lon="-5.99323">
        <ele>7.06</ele>
        <time>2021-03-20T18:21:38Z</time>
      </trkpt>
      <trkpt lat="57.27" lon="-5.99245">
        <ele>7.04</ele>
        <time>2021-03-20T18:21:44Z</time>
      </trkpt>
      <trkpt lat="57.27003" lon="-5.99068">
        <ele>7.2</ele>
        <time>2021-03-20T18:21:49Z</time>
      </trkpt>
      <trkpt lat="57.27002" lon="-5.98998">
        <ele>7.83</ele>
        <time>2021-03-20T18:21:55Z</time>
      </trkpt>
      <trkpt lat="57.26994" lon="-5.98931">
        <ele>7.21</ele>
        <time>2021-03-20T18:22:01Z</time>
      </trkpt>
      <trkpt lat="57.26978" lon="-5.98867">
        <ele>7</ele>
        <time>2021-03-20T18:22:06Z</time>
      </trkpt>
      <trkpt lat="57.26957" lon="-5.98801">
        <ele>7.18</ele>
        <time>2021-03-20T18:22:12Z</time>
      </trkpt>
      <trkpt lat="57.26853" lon="-5.98597">
        <ele>10.79</ele>
        <time>2021-03-20T18:22:17Z</time>
      </trkpt>
      <trkpt lat="57.26794" lon="-5.98476">
        <ele>7.88</ele>
        <time>2021-03-20T18:22:23Z</time>
      </trkpt>
      <trkpt lat="57.26769" lon="-5.98407">
        <ele>7.88</ele>
        <time>2021-03-20T18:22:28Z</time>
      </trkpt>
      <trkpt lat="57.26751" lon="-5.9829">
        <ele>7.35</ele>
        <time>2021-03-20T18:22:34Z</time>
      </trkpt>
      <trkpt lat="57.26727" lon="-5.98049">
        <ele>11.35</ele>
        <time>2021-03-20T18:22:39Z</time>
      </trkpt>
      <trkpt lat="57.2672" lon="-5.97935">
        <ele>9.34</ele>
        <time>2021-03-20T18:22:45Z</time>
      </trkpt>
      <trkpt lat="57.26727" lon="-5.97856">
        <ele>7.53</ele>
        <time>2021-03-20T18:22:50Z</time>
      </trkpt>
      <trkpt lat="57.2674" lon="-5.9779">
        <ele>7.36</ele>
        <time>2021-03-20T18:22:56Z</time>
      </trkpt>
      <trkpt lat="57.26759" lon="-5.97726">
        <ele>5.92</ele>
        <time>2021-03-20T18:23:02Z</time>
      </trkpt>
      <trkpt lat="57.2678" lon="-5.97683">
        <ele>5.28</ele>
        <time>2021-03-20T18:23:07Z</time>
      </trkpt>
      <trkpt lat="57.26851" lon="-5.97553">
        <ele>8.48</ele>
        <time>2021-03-20T18:23:13Z</time>
      </trkpt>
      <trkpt lat="57.26864" lon="-5.97511">
        <ele>10.03</ele>
        <time>2021-03-20T18:23:18Z</time>
      </trkpt>
      <trkpt lat="57.26879" lon="-5.97446">
        <ele>12.3</ele>
        <time>2021-03-20T18:23:24Z</time>
      </trkpt>
      <trkpt lat="57.26885" lon="-5.9739">
        <ele>12.51</ele>
        <time>2021-03-20T18:23:29Z</time>
      </trkpt>
      <trkpt lat="57.26884" lon="-5.97276">
        <ele>10.27</ele>
        <time>2021-03-20T18:23:35Z</time>
      </trkpt>
      <trkpt lat="57.26873" lon="-5.97129">
        <ele>11.43</ele>
        <time>2021-03-20T18:23:40Z</time>
      </trkpt>
      <trkpt lat="57.26855" lon="-5.9701">
        <ele>8.65</ele>
        <time>2021-03-20T18:23:46Z</time>
      </trkpt>
      <trkpt lat="57.26825" lon="-5.96893">
        <ele>8.89</ele>
        <time>2021-03-20T18:23:51Z</time>
      </trkpt>
      <trkpt lat="57.26563" lon="-5.96082">
        <ele>13.67</ele>
        <time>2021-03-20T18:23:57Z</time>
      </trkpt>
      <trkpt lat="57.26455" lon="-5.95696">
        <ele>10.23</ele>
        <time>2021-03-20T18:24:03Z</time>
      </trkpt>
      <trkpt lat="57.26361" lon="-5.95331">
        <ele>7.98</ele>
        <time>2021-03-20T18:24:08Z</time>
      </trkpt>
      <trkpt lat="57.26351" lon="-5.95287">
        <ele>8.24</ele>
        <time>2021-03-20T18:24:14Z</time>
      </trkpt>
      <trkpt lat="57.26304" lon="-5.95018">
        <ele>11.41</ele>
        <time>2021-03-20T18:24:19Z</time>
      </trkpt>
      <trkpt lat="57.26231" lon="-5.94771">
        <ele>12.06</ele>
        <time>2021-03-20T18:24:25Z</time>
      </trkpt>
      <trkpt lat="57.26074" lon="-5.94479">
        <ele>16.2</ele>
        <time>2021-03-20T18:24:30Z</time>
      </trkpt>
      <trkpt lat="57.25935" lon="-5.94271">
        <ele>32.35</ele>
        <time>2021-03-20T18:24:36Z</time>
      </trkpt>
      <trkpt lat="57.25791" lon="-5.94118">
        <ele>28.04</ele>
        <time>2021-03-20T18:24:41Z</time>
      </trkpt>
      <trkpt lat="57.25663" lon="-5.94">
        <ele>28.14</ele>
        <time>2021-03-20T18:24:47Z</time>
      </trkpt>
      <trkpt lat="57.25217" lon="-5.93641">
        <ele>28.76</ele>
        <time>2021-03-20T18:24:52Z</time>
      </trkpt>
      <trkpt lat="57.25099" lon="-5.93519">
        <ele>25.12</ele>
        <time>2021-03-20T18:24:58Z</time>
      </trkpt>
      <trkpt lat="57.24974" lon="-5.93351">
        <ele>25.02</ele>
        <time>2021-03-20T18:25:04Z</time>
      </trkpt>
      <trkpt lat="57.24643" lon="-5.92777">
        <ele>20.38</ele>
        <time>2021-03-20T18:25:09Z</time>
      </trkpt>
      <trkpt lat="57.24598" lon="-5.92669">
        <ele>23.98</ele>
        <time>2021-03-20T18:25:15Z</time>
      </trkpt>
      <trkpt lat="57.24576" lon="-5.9261">
        <ele>23.97</ele>
        <time>2021-03-20T18:25:20Z</time>
      </trkpt>
      <trkpt lat="57.24551" lon="-5.92533">
        <ele>24.31</ele>
        <time>2021-03-20T18:25:26Z</time>
      </trkpt>
      <trkpt lat="57.24507" lon="-5.92362">
        <ele>23.16</ele>
        <time>2021-03-20T18:25:31Z</time>
      </trkpt>
      <trkpt lat="57.24429" lon="-5.91921">
        <ele>15.7</ele>
        <time>2021-03-20T18:25:37Z</time>
      </trkpt>
      <trkpt lat="57.24412" lon="-5.91823">
        <ele>12.48</ele>
        <time>2021-03-20T18:25:42Z</time>
      </trkpt>
      <trkpt lat="57.24401" lon="-5.9183">
        <ele>11.35</ele>
        <time>2021-03-20T18:25:50Z</time>
      </trkpt>
      <trkpt lat="57.24368" lon="-5.91715">
        <ele>9.31</ele>
        <time>2021-03-20T18:25:57Z</time>
      </trkpt>
      <trkpt lat="57.24316" lon="-5.91477">
        <ele>10.26</ele>
        <time>2021-03-20T18:26:04Z</time>
      </trkpt>
      <trkpt lat="57.24287" lon="-5.91377">
        <ele>8.98</ele>
        <time>2021-03-20T18:26:12Z</time>
      </trkpt>
      <trkpt lat="57.24263" lon="-5.91312">
        <ele>8.47</ele>
        <time>2021-03-20T18:26:19Z</time>
      </trkpt>
      <trkpt lat="57.2427" lon="-5.91302">
        <ele>8.7</ele>
        <time>2021-03-20T18:26:26Z</time>
      </trkpt>
      <trkpt lat="57.24228" lon="-5.9123">
        <ele>7.07</ele>
        <time>2021-03-20T18:26:33Z</time>
      </trkpt>
      <trkpt lat="57.242" lon="-5.91173">
        <ele>7.01</ele>
        <time>2021-03-20T18:26:40Z</time>
      </trkpt>
      <trkpt lat="57.24178" lon="-5.9111">
        <ele>5.2</ele>
        <time>2021-03-20T18:26:47Z</time>
      </trkpt>
      <trkpt lat="57.24152" lon="-5.91022">
        <ele>5.97</ele>
        <time>2021-03-20T18:26:54Z</time>
      </trkpt>
      <trkpt lat="57.2414" lon="-5.90969">
        <ele>5.94</ele>
        <time>2021-03-20T18:27:01Z</time>
      </trkpt>
      <trkpt lat="57.2413" lon="-5.90911">
        <ele>6.55</ele>
        <time>2021-03-20T18:27:08Z</time>
      </trkpt>
      <trkpt lat="57.24123" lon="-5.90848">
        <ele>7.07</ele>
        <time>2021-03-20T18:27:15Z</time>
      </trkpt>
      <trkpt lat="57.24107" lon="-5.9067">
        <ele>11.28</ele>
        <time>2021-03-20T18:27:22Z</time>
      </trkpt>
      <trkpt lat="57.24072" lon="-5.90383">
        <ele>10.65</ele>
        <time>2021-03-20T18:27:29Z</time>
      </trkpt>
      <trkpt lat="57.24061" lon="-5.90305">
        <ele>12.12</ele>
        <time>2021-03-20T18:27:36Z</time>
      </trkpt>
      <trkpt lat="57.24046" lon="-5.90219">
        <ele>10.69</ele>
        <time>2021-03-20T18:27:43Z</time>
      </trkpt>
      <trkpt lat="57.24033" lon="-5.90162">
        <ele>11.22</ele>
        <time>2021-03-20T18:27:50Z</time>
      </trkpt>
      <trkpt lat="57.23992" lon="-5.90021">
        <ele>8.72</ele>
        <time>2021-03-20T18:27:57Z</time>
      </trkpt>
      <trkpt lat="57.23967" lon="-5.89962">
        <ele>8.45</ele>
        <time>2021-03-20T18:28:04Z</time>
      </trkpt>
      <trkpt lat="57.23911" lon="-5.89837">
        <ele>7.33</ele>
        <time>2021-03-20T18:28:11Z</time>
      </trkpt>
      <trkpt lat="57.23892" lon="-5.89789">
        <ele>8.4</ele>
        <time>2021-03-20T18:28:18Z</time>
      </trkpt>
      <trkpt lat="57.23829" lon="-5.89605">
        <ele>12.83</ele>
        <time>2021-03-20T18:28:25Z</time>
      </trkpt>
      <trkpt lat="57.23819" lon="-5.89573">
        <ele>12.48</ele>
        <time>2021-03-20T18:28:32Z</time>
      </trkpt>
      <trkpt lat="57.23814" lon="-5.8955">
        <ele>12.28</ele>
        <time>2021-03-20T18:28:39Z</time>
      </trkpt>
      <trkpt lat="57.23808" lon="-5.89506">
        <ele>12.74</ele>
        <time>2021-03-20T18:28:46Z</time>
      </trkpt>
      <trkpt lat="57.23805" lon="-5.89439">
        <ele>13</ele>
        <time>2021-03-20T18:28:52Z</time>
      </trkpt>
      <trkpt lat="57.23792" lon="-5.88987">
        <ele>8.47</ele>
        <time>2021-03-20T18:28:59Z</time>
      </trkpt>
      <trkpt lat="57.23786" lon="-5.8884">
        <ele>9.48</ele>
        <time>2021-03-20T18:29:06Z</time>
      </trkpt>
      <trkpt lat="57.2377" lon="-5.88667">
        <ele>7.54</ele>
        <time>2021-03-20T18:29:13Z</time>
      </trkpt>
      <trkpt lat="57.23769" lon="-5.88621">
        <ele>7.02</ele>
        <time>2021-03-20T18:29:20Z</time>
      </trkpt>
      <trkpt lat="57.23772" lon="-5.88573">
        <ele>6.4</ele>
        <time>2021-03-20T18:29:27Z</time>
      </trkpt>
      <trkpt lat="57.23781" lon="-5.88529">
        <ele>5.69</ele>
        <time>2021-03-20T18:29:34Z</time>
      </trkpt>
      <trkpt lat="57.23823" lon="-5.88351">
        <ele>5.75</ele>
        <time>2021-03-20T18:29:41Z</time>
      </trkpt>
      <trkpt lat="57.2383" lon="-5.88304">
        <ele>6.14</ele>
        <time>2021-03-20T18:29:48Z</time>
      </trkpt>
      <trkpt lat="57.2383" lon="-5.88253">
        <ele>6.11</ele>
        <time>2021-03-20T18:29:55Z</time>
      </trkpt>
      <trkpt lat="57.23823" lon="-5.8819">
        <ele>6.28</ele>
        <time>2021-03-20T18:30:02Z</time>
      </trkpt>
      <trkpt lat="57.23817" lon="-5.88165">
        <ele>6.2</ele>
        <time>2021-03-20T18:30:09Z</time>
      </trkpt>
      <trkpt lat="57.23805" lon="-5.88131">
        <ele>7.03</ele>
        <time>2021-03-20T18:30:16Z</time>
      </trkpt>
      <trkpt lat="57.23785" lon="-5.8809">
        <ele>8.49</ele>
        <time>2021-03-20T18:30:23Z</time>
      </trkpt>
      <trkpt lat="57.23759" lon="-5.88053">
        <ele>10.35</ele>
        <time>2021-03-20T18:30:30Z</time>
      </trkpt>
      <trkpt lat="57.23712" lon="-5.87993">
        <ele>11.35</ele>
        <time>2021-03-20T18:30:37Z</time>
      </trkpt>
      <trkpt lat="57.23689" lon="-5.87949">
        <ele>11.33</ele>
        <time>2021-03-20T18:30:44Z</time>
      </trkpt>
      <trkpt lat="57.23679" lon="-5.87914">
        <ele>11.65</ele>
        <time>2021-03-20T18:30:51Z</time>
      </trkpt>
      <trkpt lat="57.23674" lon="-5.87885">
        <ele>12.78</ele>
        <time>2021-03-20T18:30:58Z</time>
      </trkpt>
      <trkpt lat="57.23673" lon="-5.8783">
        <ele>14</ele>
        <time>2021-03-20T18:31:05Z</time>
      </trkpt>
      <trkpt lat="57.23689" lon="-5.87599">
        <ele>15.19</ele>
        <time>2021-03-20T18:31:12Z</time>
      </trkpt>
      <trkpt lat="57.23689" lon="-5.87571">
        <ele>15.19</ele>
        <time>2021-03-20T18:31:19Z</time>
      </trkpt>
      <trkpt lat="57.23687" lon="-5.87543">
        <ele>15.27</ele>
        <time>2021-03-20T18:31:26Z</time>
      </trkpt>
      <trkpt lat="57.23674" lon="-5.87495">
        <ele>15.72</ele>
        <time>2021-03-20T18:31:33Z</time>
      </trkpt>
      <trkpt lat="57.23617" lon="-5.8735">
        <ele>18.19</ele>
        <time>2021-03-20T18:31:40Z</time>
      </trkpt>
      <trkpt lat="57.23605" lon="-5.8731">
        <ele>19</ele>
        <time>2021-03-20T18:31:47Z</time>
      </trkpt>
      <trkpt lat="57.23599" lon="-5.87276">
        <ele>19.42</ele>
        <time>2021-03-20T18:31:54Z</time>
      </trkpt>
      <trkpt lat="57.23602" lon="-5.87228">
        <ele>18.8</ele>
        <time>2021-03-20T18:32:00Z</time>
      </trkpt>
      <trkpt lat="57.2365" lon="-5.86874">
        <ele>13.69</ele>
        <time>2021-03-20T18:32:07Z</time>
      </trkpt>
      <trkpt lat="57.23754" lon="-5.86063">
        <ele>20.11</ele>
        <time>2021-03-20T18:32:14Z</time>
      </trkpt>
      <trkpt lat="57.23794" lon="-5.85771">
        <ele>27</ele>
        <time>2021-03-20T18:32:21Z</time>
      </trkpt>
      <trkpt lat="57.23886" lon="-5.85568">
        <ele>26.55</ele>
        <time>2021-03-20T18:32:30Z</time>
      </trkpt>
      <trkpt lat="57.24158" lon="-5.84935">
        <ele>29</ele>
        <time>2021-03-20T18:32:38Z</time>
      </trkpt>
      <trkpt lat="57.2446" lon="-5.84241">
        <ele>27.43</ele>
        <time>2021-03-20T18:32:46Z</time>
      </trkpt>
      <trkpt lat="57.24489" lon="-5.84169">
        <ele>27.32</ele>
        <time>2021-03-20T18:32:55Z</time>
      </trkpt>
      <trkpt lat="57.2459" lon="-5.83934">
        <ele>25.9</ele>
        <time>2021-03-20T18:33:03Z</time>
      </trkpt>
      <trkpt lat="57.24706" lon="-5.83658">
        <ele>25.19</ele>
        <time>2021-03-20T18:33:11Z</time>
      </trkpt>
      <trkpt lat="57.24732" lon="-5.83596">
        <ele>24.28</ele>
        <time>2021-03-20T18:33:20Z</time>
      </trkpt>
      <trkpt lat="57.24743" lon="-5.83576">
        <ele>23.8</ele>
        <time>2021-03-20T18:33:28Z</time>
      </trkpt>
      <trkpt lat="57.24818" lon="-5.8333">
        <ele>20.88</ele>
        <time>2021-03-20T18:33:37Z</time>
      </trkpt>
      <trkpt lat="57.2482" lon="-5.83305">
        <ele>19.99</ele>
        <time>2021-03-20T18:33:45Z</time>
      </trkpt>
      <trkpt lat="57.24816" lon="-5.83301">
        <ele>19.82</ele>
        <time>2021-03-20T18:33:53Z</time>
      </trkpt>
      <trkpt lat="57.24812" lon="-5.83292">
        <ele>19.5</ele>
        <time>2021-03-20T18:34:02Z</time>
      </trkpt>
      <trkpt lat="57.2475" lon="-5.83214">
        <ele>18.01</ele>
        <time>2021-03-20T18:34:10Z</time>
      </trkpt>
      <trkpt lat="57.24707" lon="-5.83151">
        <ele>18.54</ele>
        <time>2021-03-20T18:34:18Z</time>
      </trkpt>
      <trkpt lat="57.24656" lon="-5.83042">
        <ele>24.8</ele>
        <time>2021-03-20T18:34:27Z</time>
      </trkpt>
      <trkpt lat="57.24669" lon="-5.83013">
        <ele>23.89</ele>
        <time>2021-03-20T18:34:32Z</time>
      </trkpt>
      <trkpt lat="57.24707" lon="-5.82941">
        <ele>24.55</ele>
        <time>2021-03-20T18:34:38Z</time>
      </trkpt>
      <trkpt lat="57.24832" lon="-5.82702">
        <ele>24</ele>
        <time>2021-03-20T18:34:43Z</time>
      </trkpt>
      <trkpt lat="57.25013" lon="-5.82367">
        <ele>22</ele>
        <time>2021-03-20T18:34:49Z</time>
      </trkpt>
      <trkpt lat="57.25054" lon="-5.82271">
        <ele>22.35</ele>
        <time>2021-03-20T18:34:55Z</time>
      </trkpt>
      <trkpt lat="57.25086" lon="-5.82183">
        <ele>23.11</ele>
        <time>2021-03-20T18:35:00Z</time>
      </trkpt>
      <trkpt lat="57.25202" lon="-5.81899">
        <ele>18.54</ele>
        <time>2021-03-20T18:35:06Z</time>
      </trkpt>
      <trkpt lat="57.25303" lon="-5.81624">
        <ele>21.11</ele>
        <time>2021-03-20T18:35:11Z</time>
      </trkpt>
      <trkpt lat="57.2535" lon="-5.8148">
        <ele>21.53</ele>
        <time>2021-03-20T18:35:17Z</time>
      </trkpt>
      <trkpt lat="57.25409" lon="-5.81289">
        <ele>21.17</ele>
        <time>2021-03-20T18:35:22Z</time>
      </trkpt>
      <trkpt lat="57.2547" lon="-5.81075">
        <ele>17.63</ele>
        <time>2021-03-20T18:35:28Z</time>
      </trkpt>
      <trkpt lat="57.25526" lon="-5.80905">
        <ele>21.03</ele>
        <time>2021-03-20T18:35:34Z</time>
      </trkpt>
      <trkpt lat="57.25613" lon="-5.80685">
        <ele>19.13</ele>
        <time>2021-03-20T18:35:39Z</time>
      </trkpt>
      <trkpt lat="57.25711" lon="-5.80467">
        <ele>18.44</ele>
        <time>2021-03-20T18:35:45Z</time>
      </trkpt>
      <trkpt lat="57.25843" lon="-5.80194">
        <ele>20.67</ele>
        <time>2021-03-20T18:35:50Z</time>
      </trkpt>
      <trkpt lat="57.26026" lon="-5.79772">
        <ele>21.15</ele>
        <time>2021-03-20T18:35:56Z</time>
      </trkpt>
      <trkpt lat="57.26069" lon="-5.79658">
        <ele>20.55</ele>
        <time>2021-03-20T18:36:01Z</time>
      </trkpt>
      <trkpt lat="57.26148" lon="-5.79438">
        <ele>15.36</ele>
        <time>2021-03-20T18:36:07Z</time>
      </trkpt>
      <trkpt lat="57.26205" lon="-5.79267">
        <ele>16.3</ele>
        <time>2021-03-20T18:36:12Z</time>
      </trkpt>
      <trkpt lat="57.26294" lon="-5.79018">
        <ele>18.2</ele>
        <time>2021-03-20T18:36:18Z</time>
      </trkpt>
      <trkpt lat="57.26332" lon="-5.78908">
        <ele>22.78</ele>
        <time>2021-03-20T18:36:24Z</time>
      </trkpt>
      <trkpt lat="57.2641" lon="-5.78665">
        <ele>27.03</ele>
        <time>2021-03-20T18:36:29Z</time>
      </trkpt>
      <trkpt lat="57.26436" lon="-5.78591">
        <ele>24.19</ele>
        <time>2021-03-20T18:36:35Z</time>
      </trkpt>
      <trkpt lat="57.2648" lon="-5.78432">
        <ele>26.56</ele>
        <time>2021-03-20T18:36:40Z</time>
      </trkpt>
      <trkpt lat="57.26514" lon="-5.78288">
        <ele>28.11</ele>
        <time>2021-03-20T18:36:46Z</time>
      </trkpt>
      <trkpt lat="57.26567" lon="-5.78081">
        <ele>28.52</ele>
        <time>2021-03-20T18:36:51Z</time>
      </trkpt>
      <trkpt lat="57.2669" lon="-5.77505">
        <ele>33.9</ele>
        <time>2021-03-20T18:36:57Z</time>
      </trkpt>
      <trkpt lat="57.26711" lon="-5.77355">
        <ele>34.52</ele>
        <time>2021-03-20T18:37:03Z</time>
      </trkpt>
      <trkpt lat="57.26723" lon="-5.77229">
        <ele>35.92</ele>
        <time>2021-03-20T18:37:08Z</time>
      </trkpt>
      <trkpt lat="57.26729" lon="-5.77125">
        <ele>38.27</ele>
        <time>2021-03-20T18:37:14Z</time>
      </trkpt>
      <trkpt lat="57.26731" lon="-5.77044">
        <ele>38.34</ele>
        <time>2021-03-20T18:37:19Z</time>
      </trkpt>
      <trkpt lat="57.2673" lon="-5.76916">
        <ele>37.41</ele>
        <time>2021-03-20T18:37:25Z</time>
      </trkpt>
      <trkpt lat="57.26727" lon="-5.76855">
        <ele>36.6</ele>
        <time>2021-03-20T18:37:30Z</time>
      </trkpt>
      <trkpt lat="57.26717" lon="-5.76721">
        <ele>37.8</ele>
        <time>2021-03-20T18:37:36Z</time>
      </trkpt>
      <trkpt lat="57.26704" lon="-5.76613">
        <ele>37.65</ele>
        <time>2021-03-20T18:37:42Z</time>
      </trkpt>
      <trkpt lat="57.26676" lon="-5.76418">
        <ele>34.3</ele>
        <time>2021-03-20T18:37:47Z</time>
      </trkpt>
      <trkpt lat="57.2667" lon="-5.76327">
        <ele>34.87</ele>
        <time>2021-03-20T18:37:53Z</time>
      </trkpt>
      <trkpt lat="57.26669" lon="-5.76251">
        <ele>34.91</ele>
        <time>2021-03-20T18:37:58Z</time>
      </trkpt>
      <trkpt lat="57.26672" lon="-5.76176">
        <ele>34.81</ele>
        <time>2021-03-20T18:38:04Z</time>
      </trkpt>
      <trkpt lat="57.2668" lon="-5.7609">
        <ele>34</ele>
        <time>2021-03-20T18:38:09Z</time>
      </trkpt>
      <trkpt lat="57.26695" lon="-5.75997">
        <ele>34</ele>
        <time>2021-03-20T18:38:15Z</time>
      </trkpt>
      <trkpt lat="57.26716" lon="-5.75908">
        <ele>33.76</ele>
        <time>2021-03-20T18:38:21Z</time>
      </trkpt>
      <trkpt lat="57.26742" lon="-5.75824">
        <ele>33</ele>
        <time>2021-03-20T18:38:26Z</time>
      </trkpt>
      <trkpt lat="57.26777" lon="-5.7574">
        <ele>30.66</ele>
        <time>2021-03-20T18:38:32Z</time>
      </trkpt>
      <trkpt lat="57.26817" lon="-5.75669">
        <ele>29.09</ele>
        <time>2021-03-20T18:38:37Z</time>
      </trkpt>
      <trkpt lat="57.26881" lon="-5.75573">
        <ele>28.83</ele>
        <time>2021-03-20T18:38:43Z</time>
      </trkpt>
      <trkpt lat="57.26937" lon="-5.75485">
        <ele>29.22</ele>
        <time>2021-03-20T18:38:48Z</time>
      </trkpt>
      <trkpt lat="57.26965" lon="-5.75436">
        <ele>29.39</ele>
        <time>2021-03-20T18:38:54Z</time>
      </trkpt>
      <trkpt lat="57.26995" lon="-5.75375">
        <ele>31.32</ele>
        <time>2021-03-20T18:38:59Z</time>
      </trkpt>
      <trkpt lat="57.27035" lon="-5.75287">
        <ele>34.62</ele>
        <time>2021-03-20T18:39:05Z</time>
      </trkpt>
      <trkpt lat="57.27096" lon="-5.75122">
        <ele>33.71</ele>
        <time>2021-03-20T18:39:11Z</time>
      </trkpt>
      <trkpt lat="57.2714" lon="-5.74962">
        <ele>30.92</ele>
        <time>2021-03-20T18:39:16Z</time>
      </trkpt>
      <trkpt lat="57.27162" lon="-5.74871">
        <ele>30.27</ele>
        <time>2021-03-20T18:39:22Z</time>
      </trkpt>
      <trkpt lat="57.27211" lon="-5.74623">
        <ele>27.41</ele>
        <time>2021-03-20T18:39:27Z</time>
      </trkpt>
      <trkpt lat="57.27227" lon="-5.74555">
        <ele>27</ele>
        <time>2021-03-20T18:39:33Z</time>
      </trkpt>
      <trkpt lat="57.27246" lon="-5.74487">
        <ele>26.15</ele>
        <time>2021-03-20T18:39:38Z</time>
      </trkpt>
      <trkpt lat="57.27251" lon="-5.74495">
        <ele>25.98</ele>
        <time>2021-03-20T18:39:44Z</time>
      </trkpt>
      <trkpt lat="57.27255" lon="-5.74497">
        <ele>25.81</ele>
        <time>2021-03-20T18:39:50Z</time>
      </trkpt>
      <trkpt lat="57.27262" lon="-5.74494">
        <ele>25.56</ele>
        <time>2021-03-20T18:39:55Z</time>
      </trkpt>
      <trkpt lat="57.27267" lon="-5.74485">
        <ele>25.4</ele>
        <time>2021-03-20T18:40:01Z</time>
      </trkpt>
      <trkpt lat="57.27282" lon="-5.74494">
        <ele>24.7</ele>
        <time>2021-03-20T18:40:07Z</time>
      </trkpt>
      <trkpt lat="57.27317" lon="-5.74498">
        <ele>22.69</ele>
        <time>2021-03-20T18:40:12Z</time>
      </trkpt>
      <trkpt lat="57.27357" lon="-5.74491">
        <ele>21.26</ele>
        <time>2021-03-20T18:40:18Z</time>
      </trkpt>
      <trkpt lat="57.27399" lon="-5.74468">
        <ele>20.72</ele>
        <time>2021-03-20T18:40:23Z</time>
      </trkpt>
      <trkpt lat="57.27511" lon="-5.74386">
        <ele>18.81</ele>
        <time>2021-03-20T18:40:29Z</time>
      </trkpt>
      <trkpt lat="57.27782" lon="-5.74172">
        <ele>14.1</ele>
        <time>2021-03-20T18:40:35Z</time>
      </trkpt>
      <trkpt lat="57.27879" lon="-5.74088">
        <ele>12.36</ele>
        <time>2021-03-20T18:40:40Z</time>
      </trkpt>
      <trkpt lat="57.27896" lon="-5.7407">
        <ele>11.63</ele>
        <time>2021-03-20T18:40:46Z</time>
      </trkpt>
      <trkpt lat="57.27916" lon="-5.74044">
        <ele>10.59</ele>
        <time>2021-03-20T18:40:51Z</time>
      </trkpt>
      <trkpt lat="57.27937" lon="-5.74007">
        <ele>9.23</ele>
        <time>2021-03-20T18:40:57Z</time>
      </trkpt>
      <trkpt lat="57.27957" lon="-5.73964">
        <ele>7.23</ele>
        <time>2021-03-20T18:41:03Z</time>
      </trkpt>
      <trkpt lat="57.27976" lon="-5.73907">
        <ele>5.76</ele>
        <time>2021-03-20T18:41:08Z</time>
      </trkpt>
      <trkpt lat="57.27994" lon="-5.73834">
        <ele>4.21</ele>
        <time>2021-03-20T18:41:14Z</time>
      </trkpt>
      <trkpt lat="57.2817" lon="-5.73028">
        <ele>10</ele>
        <time>2021-03-20T18:41:19Z</time>
      </trkpt>
      <trkpt lat="57.28184" lon="-5.7292">
        <ele>7.71</ele>
        <time>2021-03-20T18:41:25Z</time>
      </trkpt>
      <trkpt lat="57.28187" lon="-5.72872">
        <ele>6.72</ele>
        <time>2021-03-20T18:41:31Z</time>
      </trkpt>
      <trkpt lat="57.28183" lon="-5.72806">
        <ele>8.59</ele>
        <time>2021-03-20T18:41:36Z</time>
      </trkpt>
      <trkpt lat="57.28179" lon="-5.72759">
        <ele>10.15</ele>
        <time>2021-03-20T18:41:42Z</time>
      </trkpt>
      <trkpt lat="57.28169" lon="-5.72704">
        <ele>10.9</ele>
        <time>2021-03-20T18:41:47Z</time>
      </trkpt>
      <trkpt lat="57.28156" lon="-5.72657">
        <ele>11.88</ele>
        <time>2021-03-20T18:41:53Z</time>
      </trkpt>
      <trkpt lat="57.28142" lon="-5.72616">
        <ele>14.83</ele>
        <time>2021-03-20T18:41:59Z</time>
      </trkpt>
      <trkpt lat="57.28123" lon="-5.72572">
        <ele>17.13</ele>
        <time>2021-03-20T18:42:04Z</time>
      </trkpt>
      <trkpt lat="57.28064" lon="-5.72456">
        <ele>15.96</ele>
        <time>2021-03-20T18:42:10Z</time>
      </trkpt>
      <trkpt lat="57.28035" lon="-5.72386">
        <ele>12.53</ele>
        <time>2021-03-20T18:42:16Z</time>
      </trkpt>
      <trkpt lat="57.28022" lon="-5.72339">
        <ele>11.77</ele>
        <time>2021-03-20T18:42:21Z</time>
      </trkpt>
      <trkpt lat="57.28008" lon="-5.72266">
        <ele>10.42</ele>
        <time>2021-03-20T18:42:27Z</time>
      </trkpt>
      <trkpt lat="57.28004" lon="-5.72236">
        <ele>9.76</ele>
        <time>2021-03-20T18:42:32Z</time>
      </trkpt>
      <trkpt lat="57.28002" lon="-5.72194">
        <ele>9.34</ele>
        <time>2021-03-20T18:42:38Z</time>
      </trkpt>
      <trkpt lat="57.28002" lon="-5.72147">
        <ele>8.37</ele>
        <time>2021-03-20T18:42:44Z</time>
      </trkpt>
      <trkpt lat="57.28004" lon="-5.72103">
        <ele>7.7</ele>
        <time>2021-03-20T18:42:49Z</time>
      </trkpt>
      <trkpt lat="57.28012" lon="-5.72049">
        <ele>8.09</ele>
        <time>2021-03-20T18:42:55Z</time>
      </trkpt>
      <trkpt lat="57.28021" lon="-5.71998">
        <ele>9.87</ele>
        <time>2021-03-20T18:43:00Z</time>
      </trkpt>
      <trkpt lat="57.28041" lon="-5.71921">
        <ele>14.45</ele>
        <time>2021-03-20T18:43:06Z</time>
      </trkpt>
      <trkpt lat="57.28073" lon="-5.71823">
        <ele>16.83</ele>
        <time>2021-03-20T18:43:12Z</time>
      </trkpt>
      <trkpt lat="57.28094" lon="-5.71735">
        <ele>15.22</ele>
        <time>2021-03-20T18:43:17Z</time>
      </trkpt>
      <trkpt lat="57.281" lon="-5.71685">
        <ele>13.51</ele>
        <time>2021-03-20T18:43:23Z</time>
      </trkpt>
      <trkpt lat="57.28094" lon="-5.71622">
        <ele>9.9</ele>
        <time>2021-03-20T18:43:28Z</time>
      </trkpt>
      <trkpt lat="57.28107" lon="-5.71608">
        <ele>9.86</ele>
        <time>2021-03-20T18:43:32Z</time>
      </trkpt>
      <trkpt lat="57.28174" lon="-5.71567">
        <ele>11.75</ele>
        <time>2021-03-20T18:43:36Z</time>
      </trkpt>
      <trkpt lat="57.28202" lon="-5.71542">
        <ele>10.24</ele>
        <time>2021-03-20T18:43:39Z</time>
      </trkpt>
      <trkpt lat="57.28217" lon="-5.71525">
        <ele>8.58</ele>
        <time>2021-03-20T18:43:43Z</time>
      </trkpt>
      <trkpt lat="57.28235" lon="-5.71491">
        <ele>7.69</ele>
        <time>2021-03-20T18:43:46Z</time>
      </trkpt>
      <trkpt lat="57.28247" lon="-5.71455">
        <ele>9.14</ele>
        <time>2021-03-20T18:43:50Z</time>
      </trkpt>
      <trkpt lat="57.28249" lon="-5.71439">
        <ele>10.35</ele>
        <time>2021-03-20T18:43:54Z</time>
      </trkpt>
      <trkpt lat="57.28261" lon="-5.71438">
        <ele>10.88</ele>
        <time>2021-03-20T18:43:57Z</time>
      </trkpt>
      <trkpt lat="57.28292" lon="-5.71421">
        <ele>12.66</ele>
        <time>2021-03-20T18:44:00Z</time>
      </trkpt>
      <trkpt lat="57.283" lon="-5.71413">
        <ele>13.28</ele>
        <time>2021-03-20T18:44:03Z</time>
      </trkpt>
      <trkpt lat="57.28312" lon="-5.71393">
        <ele>14.49</ele>
        <time>2021-03-20T18:44:06Z</time>
      </trkpt>
      <trkpt lat="57.28341" lon="-5.71333">
        <ele>17.01</ele>
        <time>2021-03-20T18:44:09Z</time>
      </trkpt>
      <trkpt lat="57.28351" lon="-5.71315">
        <ele>18.29</ele>
        <time>2021-03-20T18:44:13Z</time>
      </trkpt>
      <trkpt lat="57.28363" lon="-5.71302">
        <ele>19.39</ele>
        <time>2021-03-20T18:44:16Z</time>
      </trkpt>
      <trkpt lat="57.28376" lon="-5.71299">
        <ele>20.47</ele>
        <time>2021-03-20T18:44:19Z</time>
      </trkpt>
      <trkpt lat="57.28423" lon="-5.71319">
        <ele>24.47</ele>
        <time>2021-03-20T18:44:22Z</time>
      </trkpt>
      <trkpt lat="57.28451" lon="-5.7134">
        <ele>25.8</ele>
        <time>2021-03-20T18:44:25Z</time>
      </trkpt>
      <trkpt lat="57.28525" lon="-5.71454">
        <ele>29.23</ele>
        <time>2021-03-20T18:44:28Z</time>
      </trkpt>
      <trkpt lat="57.28539" lon="-5.71466">
        <ele>31.09</ele>
        <time>2021-03-20T18:44:32Z</time>
      </trkpt>
      <trkpt lat="57.28557" lon="-5.71479">
        <ele>32.42</ele>
        <time>2021-03-20T18:44:35Z</time>
      </trkpt>
      <trkpt lat="57.28587" lon="-5.71493">
        <ele>32.99</ele>
        <time>2021-03-20T18:44:38Z</time>
      </trkpt>
      <trkpt lat="57.28666" lon="-5.71527">
        <ele>34.01</ele>
        <time>2021-03-20T18:44:41Z</time>
      </trkpt>
      <trkpt lat="57.28748" lon="-5.71584">
        <ele>32.94</ele>
        <time>2021-03-20T18:44:44Z</time>
      </trkpt>
      <trkpt lat="57.28757" lon="-5.71594">
        <ele>33.71</ele>
        <time>2021-03-20T18:44:47Z</time>
      </trkpt>
      <trkpt lat="57.28764" lon="-5.71611">
        <ele>34.46</ele>
        <time>2021-03-20T18:44:51Z</time>
      </trkpt>
      <trkpt lat="57.28764" lon="-5.71625">
        <ele>34.29</ele>
        <time>2021-03-20T18:44:54Z</time>
      </trkpt>
      <trkpt lat="57.28757" lon="-5.71667">
        <ele>32.96</ele>
        <time>2021-03-20T18:44:57Z</time>
      </trkpt>
      <trkpt lat="57.2875" lon="-5.71692">
        <ele>31.09</ele>
        <time>2021-03-20T18:45:00Z</time>
      </trkpt>
      <trkpt lat="57.28737" lon="-5.71758">
        <ele>28.21</ele>
        <time>2021-03-20T18:45:03Z</time>
      </trkpt>
      <trkpt lat="57.28736" lon="-5.71773">
        <ele>27.66</ele>
        <time>2021-03-20T18:45:06Z</time>
      </trkpt>
      <trkpt lat="57.28742" lon="-5.71803">
        <ele>25.49</ele>
        <time>2021-03-20T18:45:09Z</time>
      </trkpt>
      <trkpt lat="57.28748" lon="-5.71816">
        <ele>24.29</ele>
        <time>2021-03-20T18:45:13Z</time>
      </trkpt>
      <trkpt lat="57.28783" lon="-5.71835">
        <ele>23.88</ele>
        <time>2021-03-20T18:45:16Z</time>
      </trkpt>
      <trkpt lat="57.28795" lon="-5.71831">
        <ele>24.22</ele>
        <time>2021-03-20T18:45:19Z</time>
      </trkpt>
      <trkpt lat="57.28845" lon="-5.71829">
        <ele>25.73</ele>
        <time>2021-03-20T18:45:22Z</time>
      </trkpt>
      <trkpt lat="57.28905" lon="-5.71836">
        <ele>26.36</ele>
        <time>2021-03-20T18:45:25Z</time>
      </trkpt>
      <trkpt lat="57.28932" lon="-5.71843">
        <ele>27.77</ele>
        <time>2021-03-20T18:45:28Z</time>
      </trkpt>
      <trkpt lat="57.28945" lon="-5.71851">
        <ele>28.2</ele>
        <time>2021-03-20T18:45:32Z</time>
      </trkpt>
      <trkpt lat="57.28955" lon="-5.7186">
        <ele>29.42</ele>
        <time>2021-03-20T18:45:35Z</time>
      </trkpt>
      <trkpt lat="57.28977" lon="-5.71893">
        <ele>31.78</ele>
        <time>2021-03-20T18:45:38Z</time>
      </trkpt>
      <trkpt lat="57.2913" lon="-5.72254">
        <ele>13.56</ele>
        <time>2021-03-20T18:45:41Z</time>
      </trkpt>
      <trkpt lat="57.29156" lon="-5.72289">
        <ele>12.35</ele>
        <time>2021-03-20T18:45:44Z</time>
      </trkpt>
      <trkpt lat="57.29179" lon="-5.72308">
        <ele>12.65</ele>
        <time>2021-03-20T18:45:47Z</time>
      </trkpt>
      <trkpt lat="57.29222" lon="-5.72328">
        <ele>12.56</ele>
        <time>2021-03-20T18:45:51Z</time>
      </trkpt>
      <trkpt lat="57.29288" lon="-5.72355">
        <ele>8.89</ele>
        <time>2021-03-20T18:45:54Z</time>
      </trkpt>
      <trkpt lat="57.29317" lon="-5.72376">
        <ele>9.01</ele>
        <time>2021-03-20T18:45:57Z</time>
      </trkpt>
      <trkpt lat="57.29339" lon="-5.72401">
        <ele>10.05</ele>
        <time>2021-03-20T18:46:00Z</time>
      </trkpt>
      <trkpt lat="57.29378" lon="-5.72456">
        <ele>11.57</ele>
        <time>2021-03-20T18:46:03Z</time>
      </trkpt>
      <trkpt lat="57.29427" lon="-5.72526">
        <ele>12.27</ele>
        <time>2021-03-20T18:46:06Z</time>
      </trkpt>
      <trkpt lat="57.29469" lon="-5.72572">
        <ele>12.59</ele>
        <time>2021-03-20T18:46:10Z</time>
      </trkpt>
      <trkpt lat="57.29495" lon="-5.72591">
        <ele>12.48</ele>
        <time>2021-03-20T18:46:13Z</time>
      </trkpt>
      <trkpt lat="57.29599" lon="-5.72616">
        <ele>17.93</ele>
        <time>2021-03-20T18:46:16Z</time>
      </trkpt>
      <trkpt lat="57.29607" lon="-5.72614">
        <ele>18.57</ele>
        <time>2021-03-20T18:46:19Z</time>
      </trkpt>
      <trkpt lat="57.29615" lon="-5.72609">
        <ele>19.08</ele>
        <time>2021-03-20T18:46:22Z</time>
      </trkpt>
      <trkpt lat="57.29624" lon="-5.726">
        <ele>19.42</ele>
        <time>2021-03-20T18:46:25Z</time>
      </trkpt>
      <trkpt lat="57.29632" lon="-5.72587">
        <ele>19.86</ele>
        <time>2021-03-20T18:46:28Z</time>
      </trkpt>
      <trkpt lat="57.29707" lon="-5.72404">
        <ele>26.05</ele>
        <time>2021-03-20T18:46:32Z</time>
      </trkpt>
      <trkpt lat="57.29748" lon="-5.72322">
        <ele>25.54</ele>
        <time>2021-03-20T18:46:35Z</time>
      </trkpt>
      <trkpt lat="57.29765" lon="-5.72301">
        <ele>25.78</ele>
        <time>2021-03-20T18:46:38Z</time>
      </trkpt>
      <trkpt lat="57.29807" lon="-5.72261">
        <ele>27.51</ele>
        <time>2021-03-20T18:46:41Z</time>
      </trkpt>
      <trkpt lat="57.2983" lon="-5.72232">
        <ele>27.46</ele>
        <time>2021-03-20T18:46:44Z</time>
      </trkpt>
      <trkpt lat="57.29935" lon="-5.72063">
        <ele>30.58</ele>
        <time>2021-03-20T18:46:47Z</time>
      </trkpt>
      <trkpt lat="57.2996" lon="-5.72008">
        <ele>34.91</ele>
        <time>2021-03-20T18:46:51Z</time>
      </trkpt>
      <trkpt lat="57.29983" lon="-5.71964">
        <ele>36.99</ele>
        <time>2021-03-20T18:46:54Z</time>
      </trkpt>
      <trkpt lat="57.29999" lon="-5.71944">
        <ele>37.16</ele>
        <time>2021-03-20T18:46:57Z</time>
      </trkpt>
      <trkpt lat="57.30015" lon="-5.71929">
        <ele>35.14</ele>
        <time>2021-03-20T18:47:00Z</time>
      </trkpt>
      <trkpt lat="57.30043" lon="-5.71883">
        <ele>30.2</ele>
        <time>2021-03-20T18:47:03Z</time>
      </trkpt>
      <trkpt lat="57.3006" lon="-5.71834">
        <ele>28.58</ele>
        <time>2021-03-20T18:47:06Z</time>
      </trkpt>
      <trkpt lat="57.3009" lon="-5.71689">
        <ele>29.5</ele>
        <time>2021-03-20T18:47:10Z</time>
      </trkpt>
      <trkpt lat="57.30108" lon="-5.71635">
        <ele>25.19</ele>
        <time>2021-03-20T18:47:13Z</time>
      </trkpt>
      <trkpt lat="57.30131" lon="-5.71552">
        <ele>22.49</ele>
        <time>2021-03-20T18:47:16Z</time>
      </trkpt>
      <trkpt lat="57.3014" lon="-5.71528">
        <ele>21.82</ele>
        <time>2021-03-20T18:47:19Z</time>
      </trkpt>
      <trkpt lat="57.30184" lon="-5.71368">
        <ele>27.6</ele>
        <time>2021-03-20T18:47:22Z</time>
      </trkpt>
      <trkpt lat="57.30208" lon="-5.71259">
        <ele>30.05</ele>
        <time>2021-03-20T18:47:25Z</time>
      </trkpt>
      <trkpt lat="57.30235" lon="-5.71104">
        <ele>28.77</ele>
        <time>2021-03-20T18:47:29Z</time>
      </trkpt>
      <trkpt lat="57.30259" lon="-5.70981">
        <ele>27.35</ele>
        <time>2021-03-20T18:47:32Z</time>
      </trkpt>
      <trkpt lat="57.30281" lon="-5.70883">
        <ele>27.11</ele>
        <time>2021-03-20T18:47:35Z</time>
      </trkpt>
      <trkpt lat="57.3029" lon="-5.7082">
        <ele>28.43</ele>
        <time>2021-03-20T18:47:38Z</time>
      </trkpt>
      <trkpt lat="57.30315" lon="-5.7058">
        <ele>33.56</ele>
        <time>2021-03-20T18:47:41Z</time>
      </trkpt>
      <trkpt lat="57.30323" lon="-5.70533">
        <ele>36.97</ele>
        <time>2021-03-20T18:47:44Z</time>
      </trkpt>
      <trkpt lat="57.3036" lon="-5.7037">
        <ele>42.31</ele>
        <time>2021-03-20T18:47:47Z</time>
      </trkpt>
      <trkpt lat="57.30395" lon="-5.70204">
        <ele>47.42</ele>
        <time>2021-03-20T18:47:51Z</time>
      </trkpt>
      <trkpt lat="57.30427" lon="-5.70061">
        <ele>52.18</ele>
        <time>2021-03-20T18:47:54Z</time>
      </trkpt>
      <trkpt lat="57.30446" lon="-5.70011">
        <ele>54.01</ele>
        <time>2021-03-20T18:47:57Z</time>
      </trkpt>
      <trkpt lat="57.30473" lon="-5.69974">
        <ele>58.07</ele>
        <time>2021-03-20T18:48:00Z</time>
      </trkpt>
      <trkpt lat="57.30494" lon="-5.69954">
        <ele>61.86</ele>
        <time>2021-03-20T18:48:03Z</time>
      </trkpt>
      <trkpt lat="57.3052" lon="-5.69941">
        <ele>65.89</ele>
        <time>2021-03-20T18:48:06Z</time>
      </trkpt>
      <trkpt lat="57.30573" lon="-5.69938">
        <ele>67.4</ele>
        <time>2021-03-20T18:48:10Z</time>
      </trkpt>
      <trkpt lat="57.30617" lon="-5.69923">
        <ele>68.68</ele>
        <time>2021-03-20T18:48:13Z</time>
      </trkpt>
      <trkpt lat="57.30644" lon="-5.69907">
        <ele>67.25</ele>
        <time>2021-03-20T18:48:16Z</time>
      </trkpt>
      <trkpt lat="57.30723" lon="-5.69842">
        <ele>63.03</ele>
        <time>2021-03-20T18:48:19Z</time>
      </trkpt>
      <trkpt lat="57.30863" lon="-5.69744">
        <ele>61.37</ele>
        <time>2021-03-20T18:48:22Z</time>
      </trkpt>
      <trkpt lat="57.30907" lon="-5.6974">
        <ele>60.27</ele>
        <time>2021-03-20T18:48:25Z</time>
      </trkpt>
      <trkpt lat="57.31025" lon="-5.69768">
        <ele>56.78</ele>
        <time>2021-03-20T18:48:29Z</time>
      </trkpt>
      <trkpt lat="57.31046" lon="-5.69765">
        <ele>54.94</ele>
        <time>2021-03-20T18:48:32Z</time>
      </trkpt>
      <trkpt lat="57.31072" lon="-5.69744">
        <ele>53.75</ele>
        <time>2021-03-20T18:48:35Z</time>
      </trkpt>
      <trkpt lat="57.31093" lon="-5.69709">
        <ele>53.1</ele>
        <time>2021-03-20T18:48:38Z</time>
      </trkpt>
      <trkpt lat="57.31138" lon="-5.69607">
        <ele>49.3</ele>
        <time>2021-03-20T18:48:41Z</time>
      </trkpt>
      <trkpt lat="57.31154" lon="-5.69581">
        <ele>47.48</ele>
        <time>2021-03-20T18:48:44Z</time>
      </trkpt>
      <trkpt lat="57.31179" lon="-5.69566">
        <ele>46.18</ele>
        <time>2021-03-20T18:48:48Z</time>
      </trkpt>
      <trkpt lat="57.31212" lon="-5.69558">
        <ele>44.67</ele>
        <time>2021-03-20T18:48:51Z</time>
      </trkpt>
      <trkpt lat="57.3124" lon="-5.69546">
        <ele>43.42</ele>
        <time>2021-03-20T18:48:54Z</time>
      </trkpt>
      <trkpt lat="57.31285" lon="-5.69519">
        <ele>40.5</ele>
        <time>2021-03-20T18:48:57Z</time>
      </trkpt>
      <trkpt lat="57.31304" lon="-5.69499">
        <ele>38.33</ele>
        <time>2021-03-20T18:49:00Z</time>
      </trkpt>
      <trkpt lat="57.31338" lon="-5.69415">
        <ele>35.73</ele>
        <time>2021-03-20T18:49:03Z</time>
      </trkpt>
      <trkpt lat="57.31346" lon="-5.69405">
        <ele>35.54</ele>
        <time>2021-03-20T18:49:06Z</time>
      </trkpt>
      <trkpt lat="57.31352" lon="-5.69399">
        <ele>35.28</ele>
        <time>2021-03-20T18:49:10Z</time>
      </trkpt>
      <trkpt lat="57.31361" lon="-5.69396">
        <ele>34.76</ele>
        <time>2021-03-20T18:49:13Z</time>
      </trkpt>
      <trkpt lat="57.31414" lon="-5.69394">
        <ele>30.82</ele>
        <time>2021-03-20T18:49:16Z</time>
      </trkpt>
      <trkpt lat="57.31448" lon="-5.69386">
        <ele>28.72</ele>
        <time>2021-03-20T18:49:19Z</time>
      </trkpt>
      <trkpt lat="57.31467" lon="-5.69373">
        <ele>27.13</ele>
        <time>2021-03-20T18:49:22Z</time>
      </trkpt>
      <trkpt lat="57.31483" lon="-5.69356">
        <ele>26.17</ele>
        <time>2021-03-20T18:49:25Z</time>
      </trkpt>
      <trkpt lat="57.31497" lon="-5.69337">
        <ele>25.34</ele>
        <time>2021-03-20T18:49:29Z</time>
      </trkpt>
      <trkpt lat="57.31512" lon="-5.69308">
        <ele>23.21</ele>
        <time>2021-03-20T18:49:32Z</time>
      </trkpt>
      <trkpt lat="57.31519" lon="-5.69293">
        <ele>22.32</ele>
        <time>2021-03-20T18:49:35Z</time>
      </trkpt>
      <trkpt lat="57.3152" lon="-5.69268">
        <ele>22.08</ele>
        <time>2021-03-20T18:49:38Z</time>
      </trkpt>
      <trkpt lat="57.31517" lon="-5.69244">
        <ele>21.86</ele>
        <time>2021-03-20T18:49:41Z</time>
      </trkpt>
      <trkpt lat="57.315" lon="-5.69193">
        <ele>21.91</ele>
        <time>2021-03-20T18:49:44Z</time>
      </trkpt>
      <trkpt lat="57.31491" lon="-5.69154">
        <ele>22.6</ele>
        <time>2021-03-20T18:49:48Z</time>
      </trkpt>
      <trkpt lat="57.31489" lon="-5.69116">
        <ele>23.97</ele>
        <time>2021-03-20T18:49:51Z</time>
      </trkpt>
      <trkpt lat="57.31497" lon="-5.69022">
        <ele>26.51</ele>
        <time>2021-03-20T18:49:54Z</time>
      </trkpt>
      <trkpt lat="57.31491" lon="-5.68941">
        <ele>29.11</ele>
        <time>2021-03-20T18:49:57Z</time>
      </trkpt>
      <trkpt lat="57.31493" lon="-5.68913">
        <ele>30.23</ele>
        <time>2021-03-20T18:50:00Z</time>
      </trkpt>
      <trkpt lat="57.31501" lon="-5.68887">
        <ele>31.14</ele>
        <time>2021-03-20T18:50:03Z</time>
      </trkpt>
      <trkpt lat="57.31555" lon="-5.68838">
        <ele>28.82</ele>
        <time>2021-03-20T18:50:07Z</time>
      </trkpt>
      <trkpt lat="57.31566" lon="-5.68822">
        <ele>28.94</ele>
        <time>2021-03-20T18:50:10Z</time>
      </trkpt>
      <trkpt lat="57.31603" lon="-5.68745">
        <ele>28.03</ele>
        <time>2021-03-20T18:50:13Z</time>
      </trkpt>
      <trkpt lat="57.31612" lon="-5.68736">
        <ele>27.46</ele>
        <time>2021-03-20T18:50:16Z</time>
      </trkpt>
      <trkpt lat="57.31621" lon="-5.68731">
        <ele>27.22</ele>
        <time>2021-03-20T18:50:19Z</time>
      </trkpt>
      <trkpt lat="57.31646" lon="-5.68722">
        <ele>26.74</ele>
        <time>2021-03-20T18:50:22Z</time>
      </trkpt>
      <trkpt lat="57.31667" lon="-5.6871">
        <ele>26.46</ele>
        <time>2021-03-20T18:50:25Z</time>
      </trkpt>
      <trkpt lat="57.3169" lon="-5.68676">
        <ele>27.77</ele>
        <time>2021-03-20T18:50:29Z</time>
      </trkpt>
      <trkpt lat="57.31704" lon="-5.68639">
        <ele>27.56</ele>
        <time>2021-03-20T18:50:32Z</time>
      </trkpt>
      <trkpt lat="57.31713" lon="-5.686">
        <ele>27.36</ele>
        <time>2021-03-20T18:50:35Z</time>
      </trkpt>
      <trkpt lat="57.31719" lon="-5.68549">
        <ele>27.45</ele>
        <time>2021-03-20T18:50:38Z</time>
      </trkpt>
      <trkpt lat="57.31723" lon="-5.68476">
        <ele>28.82</ele>
        <time>2021-03-20T18:50:41Z</time>
      </trkpt>
      <trkpt lat="57.3173" lon="-5.68442">
        <ele>29.57</ele>
        <time>2021-03-20T18:50:44Z</time>
      </trkpt>
      <trkpt lat="57.31756" lon="-5.68391">
        <ele>29.68</ele>
        <time>2021-03-20T18:50:48Z</time>
      </trkpt>
      <trkpt lat="57.31773" lon="-5.6837">
        <ele>30.67</ele>
        <time>2021-03-20T18:50:51Z</time>
      </trkpt>
      <trkpt lat="57.31797" lon="-5.68329">
        <ele>32.33</ele>
        <time>2021-03-20T18:50:54Z</time>
      </trkpt>
      <trkpt lat="57.31822" lon="-5.68238">
        <ele>34.06</ele>
        <time>2021-03-20T18:50:57Z</time>
      </trkpt>
      <trkpt lat="57.31835" lon="-5.68156">
        <ele>33.84</ele>
        <time>2021-03-20T18:51:00Z</time>
      </trkpt>
      <trkpt lat="57.31839" lon="-5.68107">
        <ele>33.59</ele>
        <time>2021-03-20T18:51:03Z</time>
      </trkpt>
      <trkpt lat="57.3184" lon="-5.68057">
        <ele>33.52</ele>
        <time>2021-03-20T18:51:07Z</time>
      </trkpt>
      <trkpt lat="57.31843" lon="-5.68017">
        <ele>33.32</ele>
        <time>2021-03-20T18:51:10Z</time>
      </trkpt>
      <trkpt lat="57.31842" lon="-5.67977">
        <ele>33.37</ele>
        <time>2021-03-20T18:51:13Z</time>
      </trkpt>
      <trkpt lat="57.31809" lon="-5.67803">
        <ele>35.01</ele>
        <time>2021-03-20T18:51:16Z</time>
      </trkpt>
      <trkpt lat="57.31774" lon="-5.67652">
        <ele>39.42</ele>
        <time>2021-03-20T18:51:19Z</time>
      </trkpt>
      <trkpt lat="57.31793" lon="-5.67643">
        <ele>38.46</ele>
        <time>2021-03-20T18:51:22Z</time>
      </trkpt>
      <trkpt lat="57.31804" lon="-5.67641">
        <ele>38.06</ele>
        <time>2021-03-20T18:51:24Z</time>
      </trkpt>
      <trkpt lat="57.31816" lon="-5.67632">
        <ele>39.77</ele>
        <time>2021-03-20T18:51:27Z</time>
      </trkpt>
      <trkpt lat="57.31829" lon="-5.67618">
        <ele>42.19</ele>
        <time>2021-03-20T18:51:29Z</time>
      </trkpt>
      <trkpt lat="57.31842" lon="-5.67591">
        <ele>44.52</ele>
        <time>2021-03-20T18:51:31Z</time>
      </trkpt>
      <trkpt lat="57.31859" lon="-5.67553">
        <ele>47.63</ele>
        <time>2021-03-20T18:51:34Z</time>
      </trkpt>
      <trkpt lat="57.31913" lon="-5.67457">
        <ele>48.25</ele>
        <time>2021-03-20T18:51:36Z</time>
      </trkpt>
      <trkpt lat="57.31881" lon="-5.67332">
        <ele>45.2</ele>
        <time>2021-03-20T18:51:40Z</time>
      </trkpt>
      <trkpt lat="57.31856" lon="-5.67246">
        <ele>45.57</ele>
        <time>2021-03-20T18:51:44Z</time>
      </trkpt>
      <trkpt lat="57.31836" lon="-5.67158">
        <ele>48.93</ele>
        <time>2021-03-20T18:51:47Z</time>
      </trkpt>
      <trkpt lat="57.31827" lon="-5.67105">
        <ele>51.31</ele>
        <time>2021-03-20T18:51:51Z</time>
      </trkpt>
      <trkpt lat="57.31825" lon="-5.67073">
        <ele>51.34</ele>
        <time>2021-03-20T18:51:55Z</time>
      </trkpt>
      <trkpt lat="57.31823" lon="-5.6689">
        <ele>57.44</ele>
        <time>2021-03-20T18:51:59Z</time>
      </trkpt>
      <trkpt lat="57.31832" lon="-5.66717">
        <ele>54.67</ele>
        <time>2021-03-20T18:52:02Z</time>
      </trkpt>
      <trkpt lat="57.31851" lon="-5.66546">
        <ele>56.29</ele>
        <time>2021-03-20T18:52:06Z</time>
      </trkpt>
      <trkpt lat="57.31877" lon="-5.66384">
        <ele>56.11</ele>
        <time>2021-03-20T18:52:10Z</time>
      </trkpt>
      <trkpt lat="57.3192" lon="-5.6628">
        <ele>56.53</ele>
        <time>2021-03-20T18:52:14Z</time>
      </trkpt>
      <trkpt lat="57.31957" lon="-5.66201">
        <ele>62.11</ele>
        <time>2021-03-20T18:52:17Z</time>
      </trkpt>
      <trkpt lat="57.3198" lon="-5.66096">
        <ele>69.24</ele>
        <time>2021-03-20T18:52:21Z</time>
      </trkpt>
      <trkpt lat="57.31984" lon="-5.6601">
        <ele>73.05</ele>
        <time>2021-03-20T18:52:25Z</time>
      </trkpt>
      <trkpt lat="57.31977" lon="-5.65903">
        <ele>78.54</ele>
        <time>2021-03-20T18:52:29Z</time>
      </trkpt>
      <trkpt lat="57.31985" lon="-5.65739">
        <ele>85.8</ele>
        <time>2021-03-20T18:52:32Z</time>
      </trkpt>
      <trkpt lat="57.31997" lon="-5.65608">
        <ele>90.34</ele>
        <time>2021-03-20T18:52:36Z</time>
      </trkpt>
      <trkpt lat="57.32013" lon="-5.65489">
        <ele>99.04</ele>
        <time>2021-03-20T18:52:40Z</time>
      </trkpt>
      <trkpt lat="57.32033" lon="-5.65401">
        <ele>104.44</ele>
        <time>2021-03-20T18:52:43Z</time>
      </trkpt>
      <trkpt lat="57.32049" lon="-5.65257">
        <ele>101.39</ele>
        <time>2021-03-20T18:52:47Z</time>
      </trkpt>
      <trkpt lat="57.32063" lon="-5.65158">
        <ele>99.06</ele>
        <time>2021-03-20T18:52:51Z</time>
      </trkpt>
      <trkpt lat="57.32078" lon="-5.65106">
        <ele>102.21</ele>
        <time>2021-03-20T18:52:55Z</time>
      </trkpt>
      <trkpt lat="57.32103" lon="-5.65036">
        <ele>105.02</ele>
        <time>2021-03-20T18:52:58Z</time>
      </trkpt>
      <trkpt lat="57.32141" lon="-5.64985">
        <ele>109.82</ele>
        <time>2021-03-20T18:53:02Z</time>
      </trkpt>
      <trkpt lat="57.32325" lon="-5.64799">
        <ele>115.97</ele>
        <time>2021-03-20T18:53:06Z</time>
      </trkpt>
      <trkpt lat="57.32351" lon="-5.64755">
        <ele>115.11</ele>
        <time>2021-03-20T18:53:10Z</time>
      </trkpt>
      <trkpt lat="57.32375" lon="-5.64702">
        <ele>114.16</ele>
        <time>2021-03-20T18:53:13Z</time>
      </trkpt>
      <trkpt lat="57.32456" lon="-5.64494">
        <ele>115.91</ele>
        <time>2021-03-20T18:53:17Z</time>
      </trkpt>
      <trkpt lat="57.32485" lon="-5.64451">
        <ele>117.03</ele>
        <time>2021-03-20T18:53:21Z</time>
      </trkpt>
      <trkpt lat="57.32572" lon="-5.64402">
        <ele>116.77</ele>
        <time>2021-03-20T18:53:24Z</time>
      </trkpt>
      <trkpt lat="57.32594" lon="-5.64373">
        <ele>114.83</ele>
        <time>2021-03-20T18:53:28Z</time>
      </trkpt>
      <trkpt lat="57.32693" lon="-5.64124">
        <ele>109.39</ele>
        <time>2021-03-20T18:53:32Z</time>
      </trkpt>
      <trkpt lat="57.32705" lon="-5.64102">
        <ele>109.05</ele>
        <time>2021-03-20T18:53:36Z</time>
      </trkpt>
      <trkpt lat="57.32718" lon="-5.6409">
        <ele>109.1</ele>
        <time>2021-03-20T18:53:39Z</time>
      </trkpt>
      <trkpt lat="57.32744" lon="-5.64086">
        <ele>108.31</ele>
        <time>2021-03-20T18:53:43Z</time>
      </trkpt>
      <trkpt lat="57.32775" lon="-5.64111">
        <ele>109.03</ele>
        <time>2021-03-20T18:53:47Z</time>
      </trkpt>
      <trkpt lat="57.32823" lon="-5.64182">
        <ele>112.15</ele>
        <time>2021-03-20T18:53:51Z</time>
      </trkpt>
      <trkpt lat="57.32841" lon="-5.64198">
        <ele>111.07</ele>
        <time>2021-03-20T18:53:54Z</time>
      </trkpt>
      <trkpt lat="57.32863" lon="-5.642">
        <ele>107.72</ele>
        <time>2021-03-20T18:53:58Z</time>
      </trkpt>
      <trkpt lat="57.32882" lon="-5.64189">
        <ele>104.43</ele>
        <time>2021-03-20T18:54:02Z</time>
      </trkpt>
      <trkpt lat="57.32916" lon="-5.6416">
        <ele>99.07</ele>
        <time>2021-03-20T18:54:06Z</time>
      </trkpt>
      <trkpt lat="57.3299" lon="-5.64068">
        <ele>97.29</ele>
        <time>2021-03-20T18:54:09Z</time>
      </trkpt>
      <trkpt lat="57.33021" lon="-5.64041">
        <ele>93.68</ele>
        <time>2021-03-20T18:54:13Z</time>
      </trkpt>
      <trkpt lat="57.33057" lon="-5.64002">
        <ele>90.9</ele>
        <time>2021-03-20T18:54:17Z</time>
      </trkpt>
      <trkpt lat="57.33072" lon="-5.64">
        <ele>89.84</ele>
        <time>2021-03-20T18:54:20Z</time>
      </trkpt>
      <trkpt lat="57.33089" lon="-5.64017">
        <ele>87.9</ele>
        <time>2021-03-20T18:54:24Z</time>
      </trkpt>
      <trkpt lat="57.33099" lon="-5.64042">
        <ele>85.53</ele>
        <time>2021-03-20T18:54:28Z</time>
      </trkpt>
      <trkpt lat="57.33106" lon="-5.64098">
        <ele>82.76</ele>
        <time>2021-03-20T18:54:32Z</time>
      </trkpt>
      <trkpt lat="57.33106" lon="-5.64229">
        <ele>79.95</ele>
        <time>2021-03-20T18:54:35Z</time>
      </trkpt>
      <trkpt lat="57.33125" lon="-5.64268">
        <ele>75.63</ele>
        <time>2021-03-20T18:54:39Z</time>
      </trkpt>
      <trkpt lat="57.33145" lon="-5.64277">
        <ele>70.45</ele>
        <time>2021-03-20T18:54:42Z</time>
      </trkpt>
      <trkpt lat="57.33156" lon="-5.64274">
        <ele>67.84</ele>
        <time>2021-03-20T18:54:45Z</time>
      </trkpt>
      <trkpt lat="57.33172" lon="-5.64262">
        <ele>64.74</ele>
        <time>2021-03-20T18:54:47Z</time>
      </trkpt>
      <trkpt lat="57.33182" lon="-5.64232">
        <ele>65.04</ele>
        <time>2021-03-20T18:54:50Z</time>
      </trkpt>
      <trkpt lat="57.33192" lon="-5.64209">
        <ele>64.77</ele>
        <time>2021-03-20T18:54:53Z</time>
      </trkpt>
      <trkpt lat="57.33227" lon="-5.64101">
        <ele>62.19</ele>
        <time>2021-03-20T18:54:56Z</time>
      </trkpt>
      <trkpt lat="57.3325" lon="-5.6405">
        <ele>61.38</ele>
        <time>2021-03-20T18:54:59Z</time>
      </trkpt>
      <trkpt lat="57.33271" lon="-5.64011">
        <ele>61.75</ele>
        <time>2021-03-20T18:55:01Z</time>
      </trkpt>
      <trkpt lat="57.33293" lon="-5.63978">
        <ele>61.23</ele>
        <time>2021-03-20T18:55:04Z</time>
      </trkpt>
      <trkpt lat="57.33367" lon="-5.63893">
        <ele>59.53</ele>
        <time>2021-03-20T18:55:07Z</time>
      </trkpt>
      <trkpt lat="57.33393" lon="-5.63833">
        <ele>61.76</ele>
        <time>2021-03-20T18:55:10Z</time>
      </trkpt>
      <trkpt lat="57.3341" lon="-5.63779">
        <ele>60.93</ele>
        <time>2021-03-20T18:55:12Z</time>
      </trkpt>
      <trkpt lat="57.33417" lon="-5.63751">
        <ele>59.99</ele>
        <time>2021-03-20T18:55:15Z</time>
      </trkpt>
      <trkpt lat="57.33423" lon="-5.63715">
        <ele>59.09</ele>
        <time>2021-03-20T18:55:18Z</time>
      </trkpt>
      <trkpt lat="57.33425" lon="-5.63658">
        <ele>57.34</ele>
        <time>2021-03-20T18:55:21Z</time>
      </trkpt>
      <trkpt lat="57.33423" lon="-5.63563">
        <ele>53.35</ele>
        <time>2021-03-20T18:55:23Z</time>
      </trkpt>
      <trkpt lat="57.33411" lon="-5.63493">
        <ele>55.38</ele>
        <time>2021-03-20T18:55:26Z</time>
      </trkpt>
      <trkpt lat="57.33412" lon="-5.63474">
        <ele>55.9</ele>
        <time>2021-03-20T18:55:29Z</time>
      </trkpt>
      <trkpt lat="57.33419" lon="-5.63421">
        <ele>56.15</ele>
        <time>2021-03-20T18:55:32Z</time>
      </trkpt>
      <trkpt lat="57.3342" lon="-5.63396">
        <ele>56.66</ele>
        <time>2021-03-20T18:55:35Z</time>
      </trkpt>
      <trkpt lat="57.33415" lon="-5.63325">
        <ele>59.72</ele>
        <time>2021-03-20T18:55:37Z</time>
      </trkpt>
      <trkpt lat="57.33426" lon="-5.6328">
        <ele>58.35</ele>
        <time>2021-03-20T18:55:40Z</time>
      </trkpt>
      <trkpt lat="57.3344" lon="-5.63236">
        <ele>57.92</ele>
        <time>2021-03-20T18:55:43Z</time>
      </trkpt>
      <trkpt lat="57.33482" lon="-5.63158">
        <ele>56.46</ele>
        <time>2021-03-20T18:55:46Z</time>
      </trkpt>
      <trkpt lat="57.33504" lon="-5.63111">
        <ele>55.77</ele>
        <time>2021-03-20T18:55:48Z</time>
      </trkpt>
      <trkpt lat="57.33557" lon="-5.6297">
        <ele>61.23</ele>
        <time>2021-03-20T18:55:51Z</time>
      </trkpt>
      <trkpt lat="57.33583" lon="-5.62876">
        <ele>65.49</ele>
        <time>2021-03-20T18:55:54Z</time>
      </trkpt>
      <trkpt lat="57.33611" lon="-5.62728">
        <ele>67.1</ele>
        <time>2021-03-20T18:55:57Z</time>
      </trkpt>
      <trkpt lat="57.33619" lon="-5.62654">
        <ele>66.06</ele>
        <time>2021-03-20T18:55:59Z</time>
      </trkpt>
      <trkpt lat="57.33622" lon="-5.62587">
        <ele>67.18</ele>
        <time>2021-03-20T18:56:02Z</time>
      </trkpt>
      <trkpt lat="57.33617" lon="-5.62482">
        <ele>61.34</ele>
        <time>2021-03-20T18:56:05Z</time>
      </trkpt>
      <trkpt lat="57.33599" lon="-5.62314">
        <ele>53.53</ele>
        <time>2021-03-20T18:56:08Z</time>
      </trkpt>
      <trkpt lat="57.33602" lon="-5.62263">
        <ele>49.89</ele>
        <time>2021-03-20T18:56:11Z</time>
      </trkpt>
      <trkpt lat="57.33598" lon="-5.62226">
        <ele>49.45</ele>
        <time>2021-03-20T18:56:13Z</time>
      </trkpt>
      <trkpt lat="57.33587" lon="-5.62184">
        <ele>51.47</ele>
        <time>2021-03-20T18:56:16Z</time>
      </trkpt>
      <trkpt lat="57.33585" lon="-5.62152">
        <ele>52.09</ele>
        <time>2021-03-20T18:56:19Z</time>
      </trkpt>
      <trkpt lat="57.33589" lon="-5.62118">
        <ele>51.52</ele>
        <time>2021-03-20T18:56:22Z</time>
      </trkpt>
      <trkpt lat="57.33635" lon="-5.61967">
        <ele>38.95</ele>
        <time>2021-03-20T18:56:24Z</time>
      </trkpt>
      <trkpt lat="57.33641" lon="-5.6194">
        <ele>37.03</ele>
        <time>2021-03-20T18:56:27Z</time>
      </trkpt>
      <trkpt lat="57.33642" lon="-5.61903">
        <ele>37.26</ele>
        <time>2021-03-20T18:56:30Z</time>
      </trkpt>
      <trkpt lat="57.33647" lon="-5.6185">
        <ele>35.89</ele>
        <time>2021-03-20T18:56:33Z</time>
      </trkpt>
      <trkpt lat="57.3364" lon="-5.61815">
        <ele>37.66</ele>
        <time>2021-03-20T18:56:35Z</time>
      </trkpt>
      <trkpt lat="57.33629" lon="-5.61785">
        <ele>39.91</ele>
        <time>2021-03-20T18:56:38Z</time>
      </trkpt>
      <trkpt lat="57.33626" lon="-5.61767">
        <ele>40.92</ele>
        <time>2021-03-20T18:56:41Z</time>
      </trkpt>
      <trkpt lat="57.33631" lon="-5.61745">
        <ele>41.54</ele>
        <time>2021-03-20T18:56:44Z</time>
      </trkpt>
      <trkpt lat="57.33641" lon="-5.61733">
        <ele>40.88</ele>
        <time>2021-03-20T18:56:47Z</time>
      </trkpt>
      <trkpt lat="57.3365" lon="-5.61727">
        <ele>39.73</ele>
        <time>2021-03-20T18:56:49Z</time>
      </trkpt>
      <trkpt lat="57.33682" lon="-5.61716">
        <ele>33.84</ele>
        <time>2021-03-20T18:56:52Z</time>
      </trkpt>
      <trkpt lat="57.33694" lon="-5.61699">
        <ele>32.72</ele>
        <time>2021-03-20T18:56:55Z</time>
      </trkpt>
      <trkpt lat="57.33703" lon="-5.61673">
        <ele>33.58</ele>
        <time>2021-03-20T18:56:58Z</time>
      </trkpt>
      <trkpt lat="57.33722" lon="-5.61598">
        <ele>34.36</ele>
        <time>2021-03-20T18:57:00Z</time>
      </trkpt>
      <trkpt lat="57.33734" lon="-5.61558">
        <ele>36.68</ele>
        <time>2021-03-20T18:57:03Z</time>
      </trkpt>
      <trkpt lat="57.33756" lon="-5.6151">
        <ele>39.46</ele>
        <time>2021-03-20T18:57:06Z</time>
      </trkpt>
      <trkpt lat="57.33797" lon="-5.61454">
        <ele>37.64</ele>
        <time>2021-03-20T18:57:09Z</time>
      </trkpt>
      <trkpt lat="57.33815" lon="-5.61419">
        <ele>38.1</ele>
        <time>2021-03-20T18:57:11Z</time>
      </trkpt>
      <trkpt lat="57.33869" lon="-5.61271">
        <ele>36.77</ele>
        <time>2021-03-20T18:57:14Z</time>
      </trkpt>
      <trkpt lat="57.33901" lon="-5.6118">
        <ele>34.9</ele>
        <time>2021-03-20T18:57:17Z</time>
      </trkpt>
      <trkpt lat="57.33918" lon="-5.61124">
        <ele>38.24</ele>
        <time>2021-03-20T18:57:20Z</time>
      </trkpt>
      <trkpt lat="57.33925" lon="-5.61083">
        <ele>40.53</ele>
        <time>2021-03-20T18:57:23Z</time>
      </trkpt>
      <trkpt lat="57.3393" lon="-5.61026">
        <ele>45.39</ele>
        <time>2021-03-20T18:57:25Z</time>
      </trkpt>
      <trkpt lat="57.33938" lon="-5.61">
        <ele>46.18</ele>
        <time>2021-03-20T18:57:28Z</time>
      </trkpt>
      <trkpt lat="57.33958" lon="-5.6097">
        <ele>43.5</ele>
        <time>2021-03-20T18:57:31Z</time>
      </trkpt>
      <trkpt lat="57.33968" lon="-5.60944">
        <ele>43.35</ele>
        <time>2021-03-20T18:57:34Z</time>
      </trkpt>
      <trkpt lat="57.33974" lon="-5.60897">
        <ele>45.58</ele>
        <time>2021-03-20T18:57:36Z</time>
      </trkpt>
      <trkpt lat="57.33982" lon="-5.60728">
        <ele>47.64</ele>
        <time>2021-03-20T18:57:39Z</time>
      </trkpt>
      <trkpt lat="57.33989" lon="-5.6066">
        <ele>47.23</ele>
        <time>2021-03-20T18:57:42Z</time>
      </trkpt>
      <trkpt lat="57.33999" lon="-5.60594">
        <ele>47.53</ele>
        <time>2021-03-20T18:57:45Z</time>
      </trkpt>
      <trkpt lat="57.34016" lon="-5.60549">
        <ele>46.71</ele>
        <time>2021-03-20T18:57:47Z</time>
      </trkpt>
      <trkpt lat="57.34066" lon="-5.60447">
        <ele>45.25</ele>
        <time>2021-03-20T18:57:50Z</time>
      </trkpt>
      <trkpt lat="57.34088" lon="-5.60392">
        <ele>44.38</ele>
        <time>2021-03-20T18:57:53Z</time>
      </trkpt>
      <trkpt lat="57.34107" lon="-5.60336">
        <ele>46.03</ele>
        <time>2021-03-20T18:57:56Z</time>
      </trkpt>
      <trkpt lat="57.34132" lon="-5.60229">
        <ele>48.64</ele>
        <time>2021-03-20T18:57:59Z</time>
      </trkpt>
      <trkpt lat="57.34158" lon="-5.60156">
        <ele>48.78</ele>
        <time>2021-03-20T18:58:01Z</time>
      </trkpt>
      <trkpt lat="57.34173" lon="-5.60125">
        <ele>49.65</ele>
        <time>2021-03-20T18:58:04Z</time>
      </trkpt>
      <trkpt lat="57.3419" lon="-5.60095">
        <ele>50.39</ele>
        <time>2021-03-20T18:58:07Z</time>
      </trkpt>
      <trkpt lat="57.34226" lon="-5.60056">
        <ele>49.78</ele>
        <time>2021-03-20T18:58:10Z</time>
      </trkpt>
      <trkpt lat="57.34244" lon="-5.60024">
        <ele>49.54</ele>
        <time>2021-03-20T18:58:12Z</time>
      </trkpt>
      <trkpt lat="57.34257" lon="-5.59982">
        <ele>50.72</ele>
        <time>2021-03-20T18:58:15Z</time>
      </trkpt>
      <trkpt lat="57.34263" lon="-5.59947">
        <ele>53.53</ele>
        <time>2021-03-20T18:58:18Z</time>
      </trkpt>
      <trkpt lat="57.34267" lon="-5.59881">
        <ele>55.06</ele>
        <time>2021-03-20T18:58:21Z</time>
      </trkpt>
      <trkpt lat="57.34283" lon="-5.59764">
        <ele>52.12</ele>
        <time>2021-03-20T18:58:23Z</time>
      </trkpt>
      <trkpt lat="57.34291" lon="-5.59659">
        <ele>68.05</ele>
        <time>2021-03-20T18:58:26Z</time>
      </trkpt>
      <trkpt lat="57.34282" lon="-5.5939">
        <ele>58.61</ele>
        <time>2021-03-20T18:58:29Z</time>
      </trkpt>
      <trkpt lat="57.34287" lon="-5.59294">
        <ele>62.52</ele>
        <time>2021-03-20T18:58:32Z</time>
      </trkpt>
      <trkpt lat="57.34297" lon="-5.59255">
        <ele>56.78</ele>
        <time>2021-03-20T18:58:35Z</time>
      </trkpt>
      <trkpt lat="57.34313" lon="-5.59223">
        <ele>50.58</ele>
        <time>2021-03-20T18:58:37Z</time>
      </trkpt>
      <trkpt lat="57.34354" lon="-5.59152">
        <ele>42.34</ele>
        <time>2021-03-20T18:58:40Z</time>
      </trkpt>
      <trkpt lat="57.34363" lon="-5.59124">
        <ele>38.27</ele>
        <time>2021-03-20T18:58:43Z</time>
      </trkpt>
      <trkpt lat="57.34367" lon="-5.59094">
        <ele>35.86</ele>
        <time>2021-03-20T18:58:46Z</time>
      </trkpt>
      <trkpt lat="57.34363" lon="-5.58982">
        <ele>40.27</ele>
        <time>2021-03-20T18:58:48Z</time>
      </trkpt>
      <trkpt lat="57.34363" lon="-5.58885">
        <ele>34.08</ele>
        <time>2021-03-20T18:58:51Z</time>
      </trkpt>
      <trkpt lat="57.34351" lon="-5.58765">
        <ele>32.77</ele>
        <time>2021-03-20T18:58:54Z</time>
      </trkpt>
      <trkpt lat="57.34336" lon="-5.58661">
        <ele>28.68</ele>
        <time>2021-03-20T18:58:57Z</time>
      </trkpt>
      <trkpt lat="57.34246" lon="-5.58334">
        <ele>20.55</ele>
        <time>2021-03-20T18:59:00Z</time>
      </trkpt>
      <trkpt lat="57.34216" lon="-5.58243">
        <ele>17.24</ele>
        <time>2021-03-20T18:59:02Z</time>
      </trkpt>
      <trkpt lat="57.3418" lon="-5.58164">
        <ele>18.26</ele>
        <time>2021-03-20T18:59:05Z</time>
      </trkpt>
      <trkpt lat="57.34141" lon="-5.58084">
        <ele>19.69</ele>
        <time>2021-03-20T18:59:08Z</time>
      </trkpt>
      <trkpt lat="57.3411" lon="-5.58018">
        <ele>19.51</ele>
        <time>2021-03-20T18:59:11Z</time>
      </trkpt>
      <trkpt lat="57.34085" lon="-5.57954">
        <ele>18.82</ele>
        <time>2021-03-20T18:59:13Z</time>
      </trkpt>
      <trkpt lat="57.34064" lon="-5.5788">
        <ele>16.29</ele>
        <time>2021-03-20T18:59:16Z</time>
      </trkpt>
      <trkpt lat="57.34055" lon="-5.57826">
        <ele>14.94</ele>
        <time>2021-03-20T18:59:19Z</time>
      </trkpt>
      <trkpt lat="57.34037" lon="-5.57762">
        <ele>16.02</ele>
        <time>2021-03-20T18:59:22Z</time>
      </trkpt>
      <trkpt lat="57.34033" lon="-5.57705">
        <ele>15.25</ele>
        <time>2021-03-20T18:59:24Z</time>
      </trkpt>
      <trkpt lat="57.34018" lon="-5.57652">
        <ele>16.81</ele>
        <time>2021-03-20T18:59:27Z</time>
      </trkpt>
      <trkpt lat="57.34015" lon="-5.57631">
        <ele>17.48</ele>
        <time>2021-03-20T18:59:30Z</time>
      </trkpt>
      <trkpt lat="57.34018" lon="-5.57619">
        <ele>17.29</ele>
        <time>2021-03-20T18:59:33Z</time>
      </trkpt>
      <trkpt lat="57.34054" lon="-5.57567">
        <ele>18.24</ele>
        <time>2021-03-20T18:59:36Z</time>
      </trkpt>
      <trkpt lat="57.34071" lon="-5.57532">
        <ele>19.08</ele>
        <time>2021-03-20T18:59:38Z</time>
      </trkpt>
      <trkpt lat="57.34089" lon="-5.57463">
        <ele>24.09</ele>
        <time>2021-03-20T18:59:41Z</time>
      </trkpt>
      <trkpt lat="57.34096" lon="-5.57406">
        <ele>26.74</ele>
        <time>2021-03-20T18:59:44Z</time>
      </trkpt>
      <trkpt lat="57.34096" lon="-5.57329">
        <ele>27.98</ele>
        <time>2021-03-20T18:59:47Z</time>
      </trkpt>
      <trkpt lat="57.34089" lon="-5.5726">
        <ele>26.77</ele>
        <time>2021-03-20T18:59:49Z</time>
      </trkpt>
      <trkpt lat="57.34067" lon="-5.57207">
        <ele>25.67</ele>
        <time>2021-03-20T18:59:52Z</time>
      </trkpt>
      <trkpt lat="57.33956" lon="-5.57037">
        <ele>24.75</ele>
        <time>2021-03-20T18:59:55Z</time>
      </trkpt>
      <trkpt lat="57.33905" lon="-5.56972">
        <ele>23.83</ele>
        <time>2021-03-20T18:59:58Z</time>
      </trkpt>
      <trkpt lat="57.33893" lon="-5.56953">
        <ele>23.42</ele>
        <time>2021-03-20T19:00:00Z</time>
      </trkpt>
      <trkpt lat="57.33877" lon="-5.56921">
        <ele>23.97</ele>
        <time>2021-03-20T19:00:03Z</time>
      </trkpt>
      <trkpt lat="57.3385" lon="-5.56846">
        <ele>23.65</ele>
        <time>2021-03-20T19:00:06Z</time>
      </trkpt>
      <trkpt lat="57.33824" lon="-5.5675">
        <ele>23.63</ele>
        <time>2021-03-20T19:00:09Z</time>
      </trkpt>
      <trkpt lat="57.33812" lon="-5.56661">
        <ele>19.68</ele>
        <time>2021-03-20T19:00:12Z</time>
      </trkpt>
      <trkpt lat="57.33812" lon="-5.56607">
        <ele>17.3</ele>
        <time>2021-03-20T19:00:14Z</time>
      </trkpt>
      <trkpt lat="57.33826" lon="-5.56551">
        <ele>15.55</ele>
        <time>2021-03-20T19:00:17Z</time>
      </trkpt>
      <trkpt lat="57.33847" lon="-5.56511">
        <ele>15.31</ele>
        <time>2021-03-20T19:00:20Z</time>
      </trkpt>
      <trkpt lat="57.33874" lon="-5.56479">
        <ele>15</ele>
        <time>2021-03-20T19:00:23Z</time>
      </trkpt>
      <trkpt lat="57.33909" lon="-5.56463">
        <ele>14.76</ele>
        <time>2021-03-20T19:00:25Z</time>
      </trkpt>
      <trkpt lat="57.33946" lon="-5.56458">
        <ele>15.02</ele>
        <time>2021-03-20T19:00:28Z</time>
      </trkpt>
      <trkpt lat="57.33998" lon="-5.56465">
        <ele>17.59</ele>
        <time>2021-03-20T19:00:31Z</time>
      </trkpt>
      <trkpt lat="57.34158" lon="-5.56477">
        <ele>26</ele>
        <time>2021-03-20T19:00:34Z</time>
      </trkpt>
      <trkpt lat="57.34201" lon="-5.56476">
        <ele>27.22</ele>
        <time>2021-03-20T19:00:36Z</time>
      </trkpt>
      <trkpt lat="57.34234" lon="-5.56466">
        <ele>28</ele>
        <time>2021-03-20T19:00:39Z</time>
      </trkpt>
      <trkpt lat="57.34259" lon="-5.5645">
        <ele>28.06</ele>
        <time>2021-03-20T19:00:42Z</time>
      </trkpt>
      <trkpt lat="57.34285" lon="-5.56421">
        <ele>28.82</ele>
        <time>2021-03-20T19:00:45Z</time>
      </trkpt>
      <trkpt lat="57.34309" lon="-5.56383">
        <ele>32.5</ele>
        <time>2021-03-20T19:00:48Z</time>
      </trkpt>
      <trkpt lat="57.3437" lon="-5.56277">
        <ele>38.91</ele>
        <time>2021-03-20T19:00:50Z</time>
      </trkpt>
      <trkpt lat="57.34376" lon="-5.56272">
        <ele>39.65</ele>
        <time>2021-03-20T19:00:53Z</time>
      </trkpt>
      <trkpt lat="57.3443" lon="-5.56256">
        <ele>44.47</ele>
        <time>2021-03-20T19:00:56Z</time>
      </trkpt>
      <trkpt lat="57.34491" lon="-5.56259">
        <ele>46.91</ele>
        <time>2021-03-20T19:00:59Z</time>
      </trkpt>
      <trkpt lat="57.34507" lon="-5.56255">
        <ele>48.24</ele>
        <time>2021-03-20T19:01:01Z</time>
      </trkpt>
      <trkpt lat="57.34516" lon="-5.56248">
        <ele>49.24</ele>
        <time>2021-03-20T19:01:04Z</time>
      </trkpt>
      <trkpt lat="57.34528" lon="-5.56233">
        <ele>49.84</ele>
        <time>2021-03-20T19:01:07Z</time>
      </trkpt>
      <trkpt lat="57.34562" lon="-5.56173">
        <ele>56.6</ele>
        <time>2021-03-20T19:01:10Z</time>
      </trkpt>
      <trkpt lat="57.34595" lon="-5.5612">
        <ele>59.74</ele>
        <time>2021-03-20T19:01:12Z</time>
      </trkpt>
      <trkpt lat="57.34598" lon="-5.56105">
        <ele>59.57</ele>
        <time>2021-03-20T19:01:15Z</time>
      </trkpt>
      <trkpt lat="57.34598" lon="-5.56089">
        <ele>59.23</ele>
        <time>2021-03-20T19:01:18Z</time>
      </trkpt>
      <trkpt lat="57.3459" lon="-5.56056">
        <ele>56.74</ele>
        <time>2021-03-20T19:01:21Z</time>
      </trkpt>
      <trkpt lat="57.34583" lon="-5.5604">
        <ele>55.96</ele>
        <time>2021-03-20T19:01:24Z</time>
      </trkpt>
      <trkpt lat="57.34601" lon="-5.56013">
        <ele>58.22</ele>
        <time>2021-03-20T19:01:27Z</time>
      </trkpt>
      <trkpt lat="57.34616" lon="-5.55984">
        <ele>61.51</ele>
        <time>2021-03-20T19:01:30Z</time>
      </trkpt>
      <trkpt lat="57.34638" lon="-5.5593">
        <ele>66.86</ele>
        <time>2021-03-20T19:01:33Z</time>
      </trkpt>
      <trkpt lat="57.34651" lon="-5.55891">
        <ele>69.59</ele>
        <time>2021-03-20T19:01:36Z</time>
      </trkpt>
      <trkpt lat="57.34662" lon="-5.55852">
        <ele>71.95</ele>
        <time>2021-03-20T19:01:39Z</time>
      </trkpt>
      <trkpt lat="57.34696" lon="-5.55706">
        <ele>78.18</ele>
        <time>2021-03-20T19:01:42Z</time>
      </trkpt>
      <trkpt lat="57.34722" lon="-5.55598">
        <ele>80.5</ele>
        <time>2021-03-20T19:01:45Z</time>
      </trkpt>
      <trkpt lat="57.34752" lon="-5.55508">
        <ele>83.83</ele>
        <time>2021-03-20T19:01:48Z</time>
      </trkpt>
      <trkpt lat="57.34774" lon="-5.55457">
        <ele>85.81</ele>
        <time>2021-03-20T19:01:51Z</time>
      </trkpt>
      <trkpt lat="57.34798" lon="-5.55407">
        <ele>86.94</ele>
        <time>2021-03-20T19:01:54Z</time>
      </trkpt>
      <trkpt lat="57.34864" lon="-5.55281">
        <ele>87.57</ele>
        <time>2021-03-20T19:01:57Z</time>
      </trkpt>
      <trkpt lat="57.34889" lon="-5.55222">
        <ele>88</ele>
        <time>2021-03-20T19:02:00Z</time>
      </trkpt>
      <trkpt lat="57.34912" lon="-5.55161">
        <ele>90.73</ele>
        <time>2021-03-20T19:02:03Z</time>
      </trkpt>
      <trkpt lat="57.34939" lon="-5.55068">
        <ele>94.22</ele>
        <time>2021-03-20T19:02:06Z</time>
      </trkpt>
      <trkpt lat="57.34965" lon="-5.54955">
        <ele>95.91</ele>
        <time>2021-03-20T19:02:09Z</time>
      </trkpt>
      <trkpt lat="57.34988" lon="-5.54808">
        <ele>103.89</ele>
        <time>2021-03-20T19:02:12Z</time>
      </trkpt>
      <trkpt lat="57.34996" lon="-5.54705">
        <ele>111.07</ele>
        <time>2021-03-20T19:02:15Z</time>
      </trkpt>
      <trkpt lat="57.35043" lon="-5.54376">
        <ele>113.75</ele>
        <time>2021-03-20T19:02:18Z</time>
      </trkpt>
      <trkpt lat="57.35047" lon="-5.54323">
        <ele>115.56</ele>
        <time>2021-03-20T19:02:21Z</time>
      </trkpt>
      <trkpt lat="57.35047" lon="-5.54275">
        <ele>113.61</ele>
        <time>2021-03-20T19:02:24Z</time>
      </trkpt>
      <trkpt lat="57.35039" lon="-5.54204">
        <ele>114.42</ele>
        <time>2021-03-20T19:02:27Z</time>
      </trkpt>
      <trkpt lat="57.35026" lon="-5.54159">
        <ele>116.35</ele>
        <time>2021-03-20T19:02:30Z</time>
      </trkpt>
      <trkpt lat="57.35003" lon="-5.54091">
        <ele>122.95</ele>
        <time>2021-03-20T19:02:33Z</time>
      </trkpt>
      <trkpt lat="57.34986" lon="-5.54029">
        <ele>124.39</ele>
        <time>2021-03-20T19:02:36Z</time>
      </trkpt>
      <trkpt lat="57.34958" lon="-5.53913">
        <ele>128.28</ele>
        <time>2021-03-20T19:02:39Z</time>
      </trkpt>
      <trkpt lat="57.34938" lon="-5.53864">
        <ele>130.18</ele>
        <time>2021-03-20T19:02:42Z</time>
      </trkpt>
      <trkpt lat="57.3492" lon="-5.53839">
        <ele>132.01</ele>
        <time>2021-03-20T19:02:45Z</time>
      </trkpt>
      <trkpt lat="57.34881" lon="-5.53797">
        <ele>134.74</ele>
        <time>2021-03-20T19:02:48Z</time>
      </trkpt>
      <trkpt lat="57.34868" lon="-5.53772">
        <ele>135.92</ele>
        <time>2021-03-20T19:02:51Z</time>
      </trkpt>
      <trkpt lat="57.34859" lon="-5.53742">
        <ele>138.26</ele>
        <time>2021-03-20T19:02:54Z</time>
      </trkpt>
      <trkpt lat="57.34858" lon="-5.53699">
        <ele>138.49</ele>
        <time>2021-03-20T19:02:57Z</time>
      </trkpt>
      <trkpt lat="57.34865" lon="-5.53661">
        <ele>139.37</ele>
        <time>2021-03-20T19:03:00Z</time>
      </trkpt>
      <trkpt lat="57.34895" lon="-5.5357">
        <ele>138.04</ele>
        <time>2021-03-20T19:03:03Z</time>
      </trkpt>
      <trkpt lat="57.34914" lon="-5.53527">
        <ele>133.5</ele>
        <time>2021-03-20T19:03:06Z</time>
      </trkpt>
      <trkpt lat="57.34928" lon="-5.53505">
        <ele>129.57</ele>
        <time>2021-03-20T19:03:09Z</time>
      </trkpt>
      <trkpt lat="57.3496" lon="-5.5347">
        <ele>121.2</ele>
        <time>2021-03-20T19:03:12Z</time>
      </trkpt>
      <trkpt lat="57.34983" lon="-5.53437">
        <ele>118.81</ele>
        <time>2021-03-20T19:03:15Z</time>
      </trkpt>
      <trkpt lat="57.35015" lon="-5.53381">
        <ele>118.44</ele>
        <time>2021-03-20T19:03:18Z</time>
      </trkpt>
      <trkpt lat="57.3505" lon="-5.53305">
        <ele>123.82</ele>
        <time>2021-03-20T19:03:21Z</time>
      </trkpt>
      <trkpt lat="57.35087" lon="-5.5319">
        <ele>131.6</ele>
        <time>2021-03-20T19:03:24Z</time>
      </trkpt>
      <trkpt lat="57.3511" lon="-5.53136">
        <ele>133.13</ele>
        <time>2021-03-20T19:03:27Z</time>
      </trkpt>
      <trkpt lat="57.35144" lon="-5.53069">
        <ele>133.58</ele>
        <time>2021-03-20T19:03:30Z</time>
      </trkpt>
      <trkpt lat="57.35162" lon="-5.53019">
        <ele>133.26</ele>
        <time>2021-03-20T19:03:33Z</time>
      </trkpt>
      <trkpt lat="57.35202" lon="-5.52877">
        <ele>134.82</ele>
        <time>2021-03-20T19:03:36Z</time>
      </trkpt>
      <trkpt lat="57.35236" lon="-5.52799">
        <ele>128.96</ele>
        <time>2021-03-20T19:03:39Z</time>
      </trkpt>
      <trkpt lat="57.35295" lon="-5.5267">
        <ele>122.76</ele>
        <time>2021-03-20T19:03:42Z</time>
      </trkpt>
      <trkpt lat="57.35334" lon="-5.52536">
        <ele>117.47</ele>
        <time>2021-03-20T19:03:45Z</time>
      </trkpt>
      <trkpt lat="57.35359" lon="-5.52483">
        <ele>115.04</ele>
        <time>2021-03-20T19:03:48Z</time>
      </trkpt>
      <trkpt lat="57.35384" lon="-5.52455">
        <ele>114.58</ele>
        <time>2021-03-20T19:03:51Z</time>
      </trkpt>
      <trkpt lat="57.35464" lon="-5.52401">
        <ele>107.83</ele>
        <time>2021-03-20T19:03:54Z</time>
      </trkpt>
      <trkpt lat="57.3548" lon="-5.52379">
        <ele>105.14</ele>
        <time>2021-03-20T19:03:57Z</time>
      </trkpt>
      <trkpt lat="57.35496" lon="-5.52337">
        <ele>103.99</ele>
        <time>2021-03-20T19:04:00Z</time>
      </trkpt>
      <trkpt lat="57.35516" lon="-5.52246">
        <ele>101.54</ele>
        <time>2021-03-20T19:04:03Z</time>
      </trkpt>
      <trkpt lat="57.3553" lon="-5.52196">
        <ele>101.48</ele>
        <time>2021-03-20T19:04:06Z</time>
      </trkpt>
      <trkpt lat="57.35558" lon="-5.52135">
        <ele>105.17</ele>
        <time>2021-03-20T19:04:10Z</time>
      </trkpt>
      <trkpt lat="57.35579" lon="-5.52106">
        <ele>105.65</ele>
        <time>2021-03-20T19:04:13Z</time>
      </trkpt>
      <trkpt lat="57.35644" lon="-5.52037">
        <ele>102.29</ele>
        <time>2021-03-20T19:04:16Z</time>
      </trkpt>
      <trkpt lat="57.35709" lon="-5.5194">
        <ele>99.01</ele>
        <time>2021-03-20T19:04:19Z</time>
      </trkpt>
      <trkpt lat="57.35728" lon="-5.51917">
        <ele>99</ele>
        <time>2021-03-20T19:04:22Z</time>
      </trkpt>
      <trkpt lat="57.35783" lon="-5.51863">
        <ele>94.07</ele>
        <time>2021-03-20T19:04:25Z</time>
      </trkpt>
      <trkpt lat="57.35836" lon="-5.51778">
        <ele>92.58</ele>
        <time>2021-03-20T19:04:28Z</time>
      </trkpt>
      <trkpt lat="57.3588" lon="-5.51726">
        <ele>90.72</ele>
        <time>2021-03-20T19:04:31Z</time>
      </trkpt>
      <trkpt lat="57.3589" lon="-5.517">
        <ele>90.86</ele>
        <time>2021-03-20T19:04:34Z</time>
      </trkpt>
      <trkpt lat="57.35916" lon="-5.51614">
        <ele>89.08</ele>
        <time>2021-03-20T19:04:37Z</time>
      </trkpt>
      <trkpt lat="57.35935" lon="-5.51577">
        <ele>85.54</ele>
        <time>2021-03-20T19:04:40Z</time>
      </trkpt>
      <trkpt lat="57.35992" lon="-5.51486">
        <ele>76.14</ele>
        <time>2021-03-20T19:04:43Z</time>
      </trkpt>
      <trkpt lat="57.36004" lon="-5.51455">
        <ele>75.58</ele>
        <time>2021-03-20T19:04:46Z</time>
      </trkpt>
      <trkpt lat="57.36019" lon="-5.51405">
        <ele>72.78</ele>
        <time>2021-03-20T19:04:49Z</time>
      </trkpt>
      <trkpt lat="57.36043" lon="-5.51275">
        <ele>61.23</ele>
        <time>2021-03-20T19:04:52Z</time>
      </trkpt>
      <trkpt lat="57.36056" lon="-5.51235">
        <ele>59.08</ele>
        <time>2021-03-20T19:04:55Z</time>
      </trkpt>
      <trkpt lat="57.36122" lon="-5.51108">
        <ele>45.42</ele>
        <time>2021-03-20T19:04:58Z</time>
      </trkpt>
      <trkpt lat="57.36164" lon="-5.51012">
        <ele>35.93</ele>
        <time>2021-03-20T19:05:01Z</time>
      </trkpt>
      <trkpt lat="57.36189" lon="-5.5097">
        <ele>30.81</ele>
        <time>2021-03-20T19:05:04Z</time>
      </trkpt>
      <trkpt lat="57.36219" lon="-5.50944">
        <ele>26.67</ele>
        <time>2021-03-20T19:05:07Z</time>
      </trkpt>
      <trkpt lat="57.36297" lon="-5.50891">
        <ele>19.73</ele>
        <time>2021-03-20T19:05:10Z</time>
      </trkpt>
      <trkpt lat="57.36324" lon="-5.50865">
        <ele>17.43</ele>
        <time>2021-03-20T19:05:13Z</time>
      </trkpt>
      <trkpt lat="57.36352" lon="-5.50828">
        <ele>14.72</ele>
        <time>2021-03-20T19:05:16Z</time>
      </trkpt>
      <trkpt lat="57.36384" lon="-5.50773">
        <ele>14.08</ele>
        <time>2021-03-20T19:05:19Z</time>
      </trkpt>
      <trkpt lat="57.36466" lon="-5.50601">
        <ele>22.84</ele>
        <time>2021-03-20T19:05:22Z</time>
      </trkpt>
      <trkpt lat="57.36492" lon="-5.50553">
        <ele>21.67</ele>
        <time>2021-03-20T19:05:25Z</time>
      </trkpt>
      <trkpt lat="57.36518" lon="-5.50514">
        <ele>24.11</ele>
        <time>2021-03-20T19:05:28Z</time>
      </trkpt>
      <trkpt lat="57.36552" lon="-5.50476">
        <ele>23.07</ele>
        <time>2021-03-20T19:05:31Z</time>
      </trkpt>
      <trkpt lat="57.36708" lon="-5.50366">
        <ele>9.8</ele>
        <time>2021-03-20T19:05:34Z</time>
      </trkpt>
      <trkpt lat="57.36735" lon="-5.50338">
        <ele>9</ele>
        <time>2021-03-20T19:05:37Z</time>
      </trkpt>
      <trkpt lat="57.36841" lon="-5.50176">
        <ele>18.32</ele>
        <time>2021-03-20T19:05:40Z</time>
      </trkpt>
      <trkpt lat="57.36872" lon="-5.50137">
        <ele>18.23</ele>
        <time>2021-03-20T19:05:43Z</time>
      </trkpt>
      <trkpt lat="57.3693" lon="-5.50073">
        <ele>15.94</ele>
        <time>2021-03-20T19:05:46Z</time>
      </trkpt>
      <trkpt lat="57.36971" lon="-5.50038">
        <ele>12.43</ele>
        <time>2021-03-20T19:05:49Z</time>
      </trkpt>
      <trkpt lat="57.3708" lon="-5.4997">
        <ele>9.33</ele>
        <time>2021-03-20T19:05:52Z</time>
      </trkpt>
      <trkpt lat="57.37112" lon="-5.49941">
        <ele>8.02</ele>
        <time>2021-03-20T19:05:55Z</time>
      </trkpt>
      <trkpt lat="57.37152" lon="-5.49897">
        <ele>6.35</ele>
        <time>2021-03-20T19:05:58Z</time>
      </trkpt>
      <trkpt lat="57.372" lon="-5.49823">
        <ele>9.28</ele>
        <time>2021-03-20T19:06:01Z</time>
      </trkpt>
      <trkpt lat="57.37305" lon="-5.49647">
        <ele>16.14</ele>
        <time>2021-03-20T19:06:04Z</time>
      </trkpt>
      <trkpt lat="57.3741" lon="-5.49511">
        <ele>10.2</ele>
        <time>2021-03-20T19:06:07Z</time>
      </trkpt>
      <trkpt lat="57.37453" lon="-5.49443">
        <ele>10.2</ele>
        <time>2021-03-20T19:06:10Z</time>
      </trkpt>
      <trkpt lat="57.37477" lon="-5.49381">
        <ele>11.61</ele>
        <time>2021-03-20T19:06:13Z</time>
      </trkpt>
      <trkpt lat="57.3749" lon="-5.49317">
        <ele>11.38</ele>
        <time>2021-03-20T19:06:16Z</time>
      </trkpt>
      <trkpt lat="57.37515" lon="-5.49115">
        <ele>24.18</ele>
        <time>2021-03-20T19:06:19Z</time>
      </trkpt>
      <trkpt lat="57.37559" lon="-5.48956">
        <ele>27.54</ele>
        <time>2021-03-20T19:06:22Z</time>
      </trkpt>
      <trkpt lat="57.37582" lon="-5.4885">
        <ele>28.9</ele>
        <time>2021-03-20T19:06:25Z</time>
      </trkpt>
      <trkpt lat="57.37616" lon="-5.48707">
        <ele>33.71</ele>
        <time>2021-03-20T19:06:28Z</time>
      </trkpt>
      <trkpt lat="57.37639" lon="-5.48633">
        <ele>20.2</ele>
        <time>2021-03-20T19:06:31Z</time>
      </trkpt>
      <trkpt lat="57.37665" lon="-5.48563">
        <ele>15.91</ele>
        <time>2021-03-20T19:06:34Z</time>
      </trkpt>
      <trkpt lat="57.37761" lon="-5.48342">
        <ele>21.96</ele>
        <time>2021-03-20T19:06:37Z</time>
      </trkpt>
      <trkpt lat="57.37795" lon="-5.48285">
        <ele>20.55</ele>
        <time>2021-03-20T19:06:40Z</time>
      </trkpt>
      <trkpt lat="57.37848" lon="-5.4823">
        <ele>16.22</ele>
        <time>2021-03-20T19:06:43Z</time>
      </trkpt>
      <trkpt lat="57.37902" lon="-5.48166">
        <ele>9.07</ele>
        <time>2021-03-20T19:06:46Z</time>
      </trkpt>
      <trkpt lat="57.37929" lon="-5.48108">
        <ele>6.54</ele>
        <time>2021-03-20T19:06:49Z</time>
      </trkpt>
      <trkpt lat="57.37969" lon="-5.47993">
        <ele>16.59</ele>
        <time>2021-03-20T19:06:52Z</time>
      </trkpt>
      <trkpt lat="57.38063" lon="-5.47799">
        <ele>25.07</ele>
        <time>2021-03-20T19:06:55Z</time>
      </trkpt>
      <trkpt lat="57.38102" lon="-5.47692">
        <ele>47.35</ele>
        <time>2021-03-20T19:06:58Z</time>
      </trkpt>
      <trkpt lat="57.38136" lon="-5.47566">
        <ele>47.25</ele>
        <time>2021-03-20T19:07:01Z</time>
      </trkpt>
      <trkpt lat="57.38207" lon="-5.47323">
        <ele>24.43</ele>
        <time>2021-03-20T19:07:04Z</time>
      </trkpt>
      <trkpt lat="57.38227" lon="-5.47268">
        <ele>23.42</ele>
        <time>2021-03-20T19:07:07Z</time>
      </trkpt>
      <trkpt lat="57.38251" lon="-5.47223">
        <ele>22.55</ele>
        <time>2021-03-20T19:07:10Z</time>
      </trkpt>
      <trkpt lat="57.38272" lon="-5.47191">
        <ele>22.07</ele>
        <time>2021-03-20T19:07:13Z</time>
      </trkpt>
      <trkpt lat="57.38329" lon="-5.47115">
        <ele>18.86</ele>
        <time>2021-03-20T19:07:16Z</time>
      </trkpt>
      <trkpt lat="57.38392" lon="-5.47043">
        <ele>15.46</ele>
        <time>2021-03-20T19:07:19Z</time>
      </trkpt>
      <trkpt lat="57.38456" lon="-5.46985">
        <ele>13.03</ele>
        <time>2021-03-20T19:07:22Z</time>
      </trkpt>
      <trkpt lat="57.38494" lon="-5.46948">
        <ele>12.56</ele>
        <time>2021-03-20T19:07:25Z</time>
      </trkpt>
      <trkpt lat="57.38516" lon="-5.46912">
        <ele>15.62</ele>
        <time>2021-03-20T19:07:28Z</time>
      </trkpt>
      <trkpt lat="57.38548" lon="-5.4685">
        <ele>19.34</ele>
        <time>2021-03-20T19:07:32Z</time>
      </trkpt>
      <trkpt lat="57.38557" lon="-5.4682">
        <ele>20.68</ele>
        <time>2021-03-20T19:07:35Z</time>
      </trkpt>
      <trkpt lat="57.38597" lon="-5.46658">
        <ele>22.17</ele>
        <time>2021-03-20T19:07:38Z</time>
      </trkpt>
      <trkpt lat="57.38621" lon="-5.46583">
        <ele>22.57</ele>
        <time>2021-03-20T19:07:41Z</time>
      </trkpt>
      <trkpt lat="57.38699" lon="-5.4639">
        <ele>26.4</ele>
        <time>2021-03-20T19:07:44Z</time>
      </trkpt>
      <trkpt lat="57.38719" lon="-5.46332">
        <ele>30.29</ele>
        <time>2021-03-20T19:07:47Z</time>
      </trkpt>
      <trkpt lat="57.38737" lon="-5.46268">
        <ele>32.13</ele>
        <time>2021-03-20T19:07:50Z</time>
      </trkpt>
      <trkpt lat="57.3877" lon="-5.46107">
        <ele>27.04</ele>
        <time>2021-03-20T19:07:53Z</time>
      </trkpt>
      <trkpt lat="57.38788" lon="-5.46033">
        <ele>23.19</ele>
        <time>2021-03-20T19:07:56Z</time>
      </trkpt>
      <trkpt lat="57.388" lon="-5.4599">
        <ele>20.51</ele>
        <time>2021-03-20T19:07:59Z</time>
      </trkpt>
      <trkpt lat="57.38813" lon="-5.45958">
        <ele>18.49</ele>
        <time>2021-03-20T19:08:02Z</time>
      </trkpt>
      <trkpt lat="57.38824" lon="-5.45934">
        <ele>17.58</ele>
        <time>2021-03-20T19:08:05Z</time>
      </trkpt>
      <trkpt lat="57.38843" lon="-5.45901">
        <ele>16.5</ele>
        <time>2021-03-20T19:08:08Z</time>
      </trkpt>
      <trkpt lat="57.38878" lon="-5.45855">
        <ele>12.62</ele>
        <time>2021-03-20T19:08:11Z</time>
      </trkpt>
      <trkpt lat="57.3909" lon="-5.45649">
        <ele>3.78</ele>
        <time>2021-03-20T19:08:14Z</time>
      </trkpt>
      <trkpt lat="57.39163" lon="-5.45582">
        <ele>3.06</ele>
        <time>2021-03-20T19:08:17Z</time>
      </trkpt>
      <trkpt lat="57.3921" lon="-5.45556">
        <ele>3.97</ele>
        <time>2021-03-20T19:08:20Z</time>
      </trkpt>
      <trkpt lat="57.39285" lon="-5.45524">
        <ele>5.52</ele>
        <time>2021-03-20T19:08:23Z</time>
      </trkpt>
      <trkpt lat="57.39312" lon="-5.45515">
        <ele>6.78</ele>
        <time>2021-03-20T19:08:26Z</time>
      </trkpt>
      <trkpt lat="57.39389" lon="-5.45505">
        <ele>5.83</ele>
        <time>2021-03-20T19:08:29Z</time>
      </trkpt>
      <trkpt lat="57.39433" lon="-5.45503">
        <ele>5.89</ele>
        <time>2021-03-20T19:08:32Z</time>
      </trkpt>
      <trkpt lat="57.39469" lon="-5.4551">
        <ele>6.51</ele>
        <time>2021-03-20T19:08:35Z</time>
      </trkpt>
      <trkpt lat="57.39582" lon="-5.4555">
        <ele>11.73</ele>
        <time>2021-03-20T19:08:38Z</time>
      </trkpt>
      <trkpt lat="57.39645" lon="-5.45585">
        <ele>15.32</ele>
        <time>2021-03-20T19:08:41Z</time>
      </trkpt>
      <trkpt lat="57.39672" lon="-5.45588">
        <ele>16.47</ele>
        <time>2021-03-20T19:08:44Z</time>
      </trkpt>
      <trkpt lat="57.39687" lon="-5.45587">
        <ele>16.25</ele>
        <time>2021-03-20T19:08:47Z</time>
      </trkpt>
      <trkpt lat="57.39721" lon="-5.45571">
        <ele>18.83</ele>
        <time>2021-03-20T19:08:50Z</time>
      </trkpt>
      <trkpt lat="57.39741" lon="-5.45546">
        <ele>23.31</ele>
        <time>2021-03-20T19:08:53Z</time>
      </trkpt>
      <trkpt lat="57.39767" lon="-5.45507">
        <ele>32.81</ele>
        <time>2021-03-20T19:08:56Z</time>
      </trkpt>
      <trkpt lat="57.39795" lon="-5.45482">
        <ele>36.99</ele>
        <time>2021-03-20T19:08:59Z</time>
      </trkpt>
      <trkpt lat="57.39818" lon="-5.4547">
        <ele>39.15</ele>
        <time>2021-03-20T19:09:02Z</time>
      </trkpt>
      <trkpt lat="57.39957" lon="-5.45413">
        <ele>57.35</ele>
        <time>2021-03-20T19:09:05Z</time>
      </trkpt>
      <trkpt lat="57.39978" lon="-5.45396">
        <ele>60.52</ele>
        <time>2021-03-20T19:09:08Z</time>
      </trkpt>
      <trkpt lat="57.39993" lon="-5.45377">
        <ele>63.43</ele>
        <time>2021-03-20T19:09:11Z</time>
      </trkpt>
      <trkpt lat="57.40027" lon="-5.45316">
        <ele>66.41</ele>
        <time>2021-03-20T19:09:14Z</time>
      </trkpt>
      <trkpt lat="57.40049" lon="-5.45264">
        <ele>66.25</ele>
        <time>2021-03-20T19:09:17Z</time>
      </trkpt>
      <trkpt lat="57.40139" lon="-5.45018">
        <ele>76.16</ele>
        <time>2021-03-20T19:09:20Z</time>
      </trkpt>
      <trkpt lat="57.40157" lon="-5.44956">
        <ele>79.18</ele>
        <time>2021-03-20T19:09:23Z</time>
      </trkpt>
      <trkpt lat="57.40172" lon="-5.44887">
        <ele>81.41</ele>
        <time>2021-03-20T19:09:26Z</time>
      </trkpt>
      <trkpt lat="57.40184" lon="-5.44857">
        <ele>80.43</ele>
        <time>2021-03-20T19:09:29Z</time>
      </trkpt>
      <trkpt lat="57.40199" lon="-5.44832">
        <ele>80.07</ele>
        <time>2021-03-20T19:09:32Z</time>
      </trkpt>
      <trkpt lat="57.40218" lon="-5.44818">
        <ele>78.15</ele>
        <time>2021-03-20T19:09:35Z</time>
      </trkpt>
      <trkpt lat="57.40236" lon="-5.44812">
        <ele>74.86</ele>
        <time>2021-03-20T19:09:38Z</time>
      </trkpt>
      <trkpt lat="57.40268" lon="-5.44812">
        <ele>69.04</ele>
        <time>2021-03-20T19:09:41Z</time>
      </trkpt>
      <trkpt lat="57.40304" lon="-5.44804">
        <ele>66.21</ele>
        <time>2021-03-20T19:09:44Z</time>
      </trkpt>
      <trkpt lat="57.40383" lon="-5.44765">
        <ele>59.01</ele>
        <time>2021-03-20T19:09:47Z</time>
      </trkpt>
      <trkpt lat="57.40414" lon="-5.44757">
        <ele>55.56</ele>
        <time>2021-03-20T19:09:50Z</time>
      </trkpt>
      <trkpt lat="57.40575" lon="-5.44758">
        <ele>28.47</ele>
        <time>2021-03-20T19:09:53Z</time>
      </trkpt>
      <trkpt lat="57.40656" lon="-5.44775">
        <ele>14.13</ele>
        <time>2021-03-20T19:09:56Z</time>
      </trkpt>
      <trkpt lat="57.40676" lon="-5.44775">
        <ele>10.84</ele>
        <time>2021-03-20T19:09:59Z</time>
      </trkpt>
      <trkpt lat="57.40694" lon="-5.44769">
        <ele>8.76</ele>
        <time>2021-03-20T19:10:02Z</time>
      </trkpt>
      <trkpt lat="57.40709" lon="-5.44759">
        <ele>7.31</ele>
        <time>2021-03-20T19:10:05Z</time>
      </trkpt>
      <trkpt lat="57.40722" lon="-5.44745">
        <ele>6.58</ele>
        <time>2021-03-20T19:10:08Z</time>
      </trkpt>
      <trkpt lat="57.40735" lon="-5.44726">
        <ele>6.42</ele>
        <time>2021-03-20T19:10:11Z</time>
      </trkpt>
      <trkpt lat="57.40745" lon="-5.44707">
        <ele>5.55</ele>
        <time>2021-03-20T19:10:14Z</time>
      </trkpt>
      <trkpt lat="57.40779" lon="-5.44623">
        <ele>7.08</ele>
        <time>2021-03-20T19:10:17Z</time>
      </trkpt>
      <trkpt lat="57.40802" lon="-5.44573">
        <ele>8.34</ele>
        <time>2021-03-20T19:10:20Z</time>
      </trkpt>
      <trkpt lat="57.40839" lon="-5.44511">
        <ele>4.98</ele>
        <time>2021-03-20T19:10:23Z</time>
      </trkpt>
      <trkpt lat="57.40859" lon="-5.44486">
        <ele>3.7</ele>
        <time>2021-03-20T19:10:26Z</time>
      </trkpt>
      <trkpt lat="57.40883" lon="-5.44461">
        <ele>4.49</ele>
        <time>2021-03-20T19:10:29Z</time>
      </trkpt>
      <trkpt lat="57.40924" lon="-5.44424">
        <ele>4.72</ele>
        <time>2021-03-20T19:10:32Z</time>
      </trkpt>
      <trkpt lat="57.41111" lon="-5.44299">
        <ele>9.31</ele>
        <time>2021-03-20T19:10:35Z</time>
      </trkpt>
      <trkpt lat="57.41143" lon="-5.44274">
        <ele>8.04</ele>
        <time>2021-03-20T19:10:38Z</time>
      </trkpt>
      <trkpt lat="57.41162" lon="-5.44254">
        <ele>8.26</ele>
        <time>2021-03-20T19:10:41Z</time>
      </trkpt>
      <trkpt lat="57.41281" lon="-5.44072">
        <ele>4.7</ele>
        <time>2021-03-20T19:10:44Z</time>
      </trkpt>
      <trkpt lat="57.41345" lon="-5.43969">
        <ele>3.26</ele>
        <time>2021-03-20T19:10:47Z</time>
      </trkpt>
      <trkpt lat="57.41384" lon="-5.43897">
        <ele>3.88</ele>
        <time>2021-03-20T19:10:50Z</time>
      </trkpt>
      <trkpt lat="57.414" lon="-5.43864">
        <ele>3.61</ele>
        <time>2021-03-20T19:10:54Z</time>
      </trkpt>
      <trkpt lat="57.41425" lon="-5.43795">
        <ele>2.53</ele>
        <time>2021-03-20T19:10:57Z</time>
      </trkpt>
      <trkpt lat="57.41436" lon="-5.43756">
        <ele>2.32</ele>
        <time>2021-03-20T19:11:00Z</time>
      </trkpt>
      <trkpt lat="57.41481" lon="-5.4357">
        <ele>5.87</ele>
        <time>2021-03-20T19:11:03Z</time>
      </trkpt>
      <trkpt lat="57.41508" lon="-5.43481">
        <ele>6.12</ele>
        <time>2021-03-20T19:11:06Z</time>
      </trkpt>
      <trkpt lat="57.41523" lon="-5.43439">
        <ele>5.22</ele>
        <time>2021-03-20T19:11:09Z</time>
      </trkpt>
      <trkpt lat="57.41539" lon="-5.434">
        <ele>4</ele>
        <time>2021-03-20T19:11:12Z</time>
      </trkpt>
      <trkpt lat="57.4156" lon="-5.43359">
        <ele>2.99</ele>
        <time>2021-03-20T19:11:15Z</time>
      </trkpt>
      <trkpt lat="57.41581" lon="-5.43321">
        <ele>3.61</ele>
        <time>2021-03-20T19:11:18Z</time>
      </trkpt>
      <trkpt lat="57.41605" lon="-5.43284">
        <ele>4.95</ele>
        <time>2021-03-20T19:11:21Z</time>
      </trkpt>
      <trkpt lat="57.4164" lon="-5.4324">
        <ele>5.34</ele>
        <time>2021-03-20T19:11:24Z</time>
      </trkpt>
      <trkpt lat="57.41671" lon="-5.43208">
        <ele>6.88</ele>
        <time>2021-03-20T19:11:27Z</time>
      </trkpt>
      <trkpt lat="57.41705" lon="-5.4318">
        <ele>7.32</ele>
        <time>2021-03-20T19:11:30Z</time>
      </trkpt>
      <trkpt lat="57.41746" lon="-5.43153">
        <ele>6.62</ele>
        <time>2021-03-20T19:11:33Z</time>
      </trkpt>
      <trkpt lat="57.41805" lon="-5.43122">
        <ele>7.22</ele>
        <time>2021-03-20T19:11:36Z</time>
      </trkpt>
      <trkpt lat="57.41937" lon="-5.43066">
        <ele>9.76</ele>
        <time>2021-03-20T19:11:39Z</time>
      </trkpt>
      <trkpt lat="57.42015" lon="-5.43023">
        <ele>7.64</ele>
        <time>2021-03-20T19:11:42Z</time>
      </trkpt>
      <trkpt lat="57.42025" lon="-5.43014">
        <ele>7.59</ele>
        <time>2021-03-20T19:11:45Z</time>
      </trkpt>
      <trkpt lat="57.42045" lon="-5.42983">
        <ele>7.58</ele>
        <time>2021-03-20T19:11:48Z</time>
      </trkpt>
      <trkpt lat="57.42073" lon="-5.42934">
        <ele>7.53</ele>
        <time>2021-03-20T19:11:51Z</time>
      </trkpt>
      <trkpt lat="57.42087" lon="-5.42913">
        <ele>7.24</ele>
        <time>2021-03-20T19:11:54Z</time>
      </trkpt>
      <trkpt lat="57.42104" lon="-5.42894">
        <ele>7.36</ele>
        <time>2021-03-20T19:11:57Z</time>
      </trkpt>
      <trkpt lat="57.4212" lon="-5.42882">
        <ele>7.48</ele>
        <time>2021-03-20T19:12:00Z</time>
      </trkpt>
      <trkpt lat="57.42139" lon="-5.4288">
        <ele>8</ele>
        <time>2021-03-20T19:12:03Z</time>
      </trkpt>
      <trkpt lat="57.4218" lon="-5.42883">
        <ele>8.47</ele>
        <time>2021-03-20T19:12:06Z</time>
      </trkpt>
      <trkpt lat="57.42208" lon="-5.42877">
        <ele>9.48</ele>
        <time>2021-03-20T19:12:09Z</time>
      </trkpt>
      <trkpt lat="57.42219" lon="-5.42881">
        <ele>9.87</ele>
        <time>2021-03-20T19:12:12Z</time>
      </trkpt>
      <trkpt lat="57.42241" lon="-5.42927">
        <ele>11</ele>
        <time>2021-03-20T19:12:15Z</time>
      </trkpt>
      <trkpt lat="57.4226" lon="-5.43006">
        <ele>10.54</ele>
        <time>2021-03-20T19:12:18Z</time>
      </trkpt>
      <trkpt lat="57.42267" lon="-5.43042">
        <ele>8.49</ele>
        <time>2021-03-20T19:12:21Z</time>
      </trkpt>
      <trkpt lat="57.42277" lon="-5.43106">
        <ele>7</ele>
        <time>2021-03-20T19:12:24Z</time>
      </trkpt>
      <trkpt lat="57.42294" lon="-5.43171">
        <ele>7.1</ele>
        <time>2021-03-20T19:12:27Z</time>
      </trkpt>
      <trkpt lat="57.42344" lon="-5.43291">
        <ele>9.41</ele>
        <time>2021-03-20T19:12:30Z</time>
      </trkpt>
      <trkpt lat="57.4239" lon="-5.43377">
        <ele>7.44</ele>
        <time>2021-03-20T19:12:33Z</time>
      </trkpt>
      <trkpt lat="57.4243" lon="-5.43438">
        <ele>6</ele>
        <time>2021-03-20T19:12:36Z</time>
      </trkpt>
      <trkpt lat="57.42471" lon="-5.43494">
        <ele>6</ele>
        <time>2021-03-20T19:12:39Z</time>
      </trkpt>
      <trkpt lat="57.42535" lon="-5.43571">
        <ele>6</ele>
        <time>2021-03-20T19:12:42Z</time>
      </trkpt>
      <trkpt lat="57.42654" lon="-5.43693">
        <ele>7.57</ele>
        <time>2021-03-20T19:12:45Z</time>
      </trkpt>
      <trkpt lat="57.42683" lon="-5.43731">
        <ele>7.68</ele>
        <time>2021-03-20T19:12:48Z</time>
      </trkpt>
      <trkpt lat="57.42712" lon="-5.43779">
        <ele>6.33</ele>
        <time>2021-03-20T19:12:51Z</time>
      </trkpt>
      <trkpt lat="57.42749" lon="-5.43845">
        <ele>5</ele>
        <time>2021-03-20T19:12:54Z</time>
      </trkpt>
      <trkpt lat="57.42778" lon="-5.43903">
        <ele>4.5</ele>
        <time>2021-03-20T19:12:57Z</time>
      </trkpt>
      <trkpt lat="57.43149" lon="-5.44684">
        <ele>5</ele>
        <time>2021-03-20T19:13:00Z</time>
      </trkpt>
      <trkpt lat="57.42663" lon="-5.45542">
        <ele>9</ele>
        <time>2021-03-20T19:13:05Z</time>
      </trkpt>
      <trkpt lat="57.42635" lon="-5.45589">
        <ele>9.15</ele>
        <time>2021-03-20T19:13:10Z</time>
      </trkpt>
      <trkpt lat="57.42484" lon="-5.45854">
        <ele>9.74</ele>
        <time>2021-03-20T19:13:15Z</time>
      </trkpt>
      <trkpt lat="57.42434" lon="-5.45931">
        <ele>10.15</ele>
        <time>2021-03-20T19:13:20Z</time>
      </trkpt>
      <trkpt lat="57.4217" lon="-5.4632">
        <ele>14.06</ele>
        <time>2021-03-20T19:13:25Z</time>
      </trkpt>
      <trkpt lat="57.41828" lon="-5.46874">
        <ele>4.8</ele>
        <time>2021-03-20T19:13:30Z</time>
      </trkpt>
      <trkpt lat="57.41739" lon="-5.46992">
        <ele>3.38</ele>
        <time>2021-03-20T19:13:35Z</time>
      </trkpt>
      <trkpt lat="57.41599" lon="-5.47158">
        <ele>3.58</ele>
        <time>2021-03-20T19:13:40Z</time>
      </trkpt>
      <trkpt lat="57.41361" lon="-5.47415">
        <ele>4.84</ele>
        <time>2021-03-20T19:13:45Z</time>
      </trkpt>
      <trkpt lat="57.41303" lon="-5.47469">
        <ele>5.56</ele>
        <time>2021-03-20T19:13:50Z</time>
      </trkpt>
      <trkpt lat="57.41234" lon="-5.47512">
        <ele>3.89</ele>
        <time>2021-03-20T19:13:55Z</time>
      </trkpt>
      <trkpt lat="57.41187" lon="-5.47526">
        <ele>2.67</ele>
        <time>2021-03-20T19:14:00Z</time>
      </trkpt>
      <trkpt lat="57.41114" lon="-5.47528">
        <ele>2.91</ele>
        <time>2021-03-20T19:14:05Z</time>
      </trkpt>
      <trkpt lat="57.41079" lon="-5.47537">
        <ele>2.49</ele>
        <time>2021-03-20T19:14:10Z</time>
      </trkpt>
      <trkpt lat="57.41016" lon="-5.47557">
        <ele>4.63</ele>
        <time>2021-03-20T19:14:15Z</time>
      </trkpt>
      <trkpt lat="57.40992" lon="-5.47562">
        <ele>4.21</ele>
        <time>2021-03-20T19:14:20Z</time>
      </trkpt>
      <trkpt lat="57.40941" lon="-5.47586">
        <ele>5.09</ele>
        <time>2021-03-20T19:14:25Z</time>
      </trkpt>
      <trkpt lat="57.40844" lon="-5.47649">
        <ele>3.74</ele>
        <time>2021-03-20T19:14:30Z</time>
      </trkpt>
      <trkpt lat="57.4074" lon="-5.47705">
        <ele>5.91</ele>
        <time>2021-03-20T19:14:35Z</time>
      </trkpt>
      <trkpt lat="57.40704" lon="-5.47728">
        <ele>4.51</ele>
        <time>2021-03-20T19:14:40Z</time>
      </trkpt>
      <trkpt lat="57.4065" lon="-5.47777">
        <ele>7.22</ele>
        <time>2021-03-20T19:14:45Z</time>
      </trkpt>
      <trkpt lat="57.40588" lon="-5.47851">
        <ele>8.23</ele>
        <time>2021-03-20T19:14:50Z</time>
      </trkpt>
      <trkpt lat="57.40558" lon="-5.47884">
        <ele>8.81</ele>
        <time>2021-03-20T19:14:55Z</time>
      </trkpt>
      <trkpt lat="57.40455" lon="-5.4796">
        <ele>6.02</ele>
        <time>2021-03-20T19:15:00Z</time>
      </trkpt>
      <trkpt lat="57.40372" lon="-5.48029">
        <ele>6.09</ele>
        <time>2021-03-20T19:15:05Z</time>
      </trkpt>
      <trkpt lat="57.40347" lon="-5.48057">
        <ele>6.5</ele>
        <time>2021-03-20T19:15:09Z</time>
      </trkpt>
      <trkpt lat="57.40303" lon="-5.48116">
        <ele>4.14</ele>
        <time>2021-03-20T19:15:14Z</time>
      </trkpt>
      <trkpt lat="57.40289" lon="-5.48139">
        <ele>4.83</ele>
        <time>2021-03-20T19:15:19Z</time>
      </trkpt>
      <trkpt lat="57.40273" lon="-5.48182">
        <ele>5.36</ele>
        <time>2021-03-20T19:15:24Z</time>
      </trkpt>
      <trkpt lat="57.4026" lon="-5.48235">
        <ele>6.8</ele>
        <time>2021-03-20T19:15:29Z</time>
      </trkpt>
      <trkpt lat="57.40237" lon="-5.4836">
        <ele>9.04</ele>
        <time>2021-03-20T19:15:34Z</time>
      </trkpt>
      <trkpt lat="57.40207" lon="-5.48497">
        <ele>7.81</ele>
        <time>2021-03-20T19:15:39Z</time>
      </trkpt>
      <trkpt lat="57.40185" lon="-5.4858">
        <ele>6.22</ele>
        <time>2021-03-20T19:15:44Z</time>
      </trkpt>
      <trkpt lat="57.40147" lon="-5.48714">
        <ele>7.83</ele>
        <time>2021-03-20T19:15:49Z</time>
      </trkpt>
      <trkpt lat="57.40109" lon="-5.4887">
        <ele>6.87</ele>
        <time>2021-03-20T19:15:54Z</time>
      </trkpt>
      <trkpt lat="57.4008" lon="-5.48976">
        <ele>10</ele>
        <time>2021-03-20T19:15:59Z</time>
      </trkpt>
      <trkpt lat="57.40052" lon="-5.49053">
        <ele>9.62</ele>
        <time>2021-03-20T19:16:04Z</time>
      </trkpt>
      <trkpt lat="57.39999" lon="-5.49178">
        <ele>10.81</ele>
        <time>2021-03-20T19:16:09Z</time>
      </trkpt>
      <trkpt lat="57.39983" lon="-5.49229">
        <ele>9.04</ele>
        <time>2021-03-20T19:16:14Z</time>
      </trkpt>
      <trkpt lat="57.39968" lon="-5.49294">
        <ele>7.78</ele>
        <time>2021-03-20T19:16:19Z</time>
      </trkpt>
      <trkpt lat="57.39943" lon="-5.49431">
        <ele>8.37</ele>
        <time>2021-03-20T19:16:24Z</time>
      </trkpt>
      <trkpt lat="57.39918" lon="-5.49541">
        <ele>8.13</ele>
        <time>2021-03-20T19:16:29Z</time>
      </trkpt>
      <trkpt lat="57.39871" lon="-5.49706">
        <ele>7.44</ele>
        <time>2021-03-20T19:16:34Z</time>
      </trkpt>
      <trkpt lat="57.39832" lon="-5.49919">
        <ele>10.02</ele>
        <time>2021-03-20T19:16:39Z</time>
      </trkpt>
      <trkpt lat="57.398" lon="-5.50122">
        <ele>10.25</ele>
        <time>2021-03-20T19:16:44Z</time>
      </trkpt>
      <trkpt lat="57.39781" lon="-5.50228">
        <ele>13.91</ele>
        <time>2021-03-20T19:16:49Z</time>
      </trkpt>
      <trkpt lat="57.3976" lon="-5.5031">
        <ele>17.19</ele>
        <time>2021-03-20T19:16:54Z</time>
      </trkpt>
      <trkpt lat="57.3973" lon="-5.50412">
        <ele>20.49</ele>
        <time>2021-03-20T19:16:59Z</time>
      </trkpt>
      <trkpt lat="57.39705" lon="-5.50485">
        <ele>25.22</ele>
        <time>2021-03-20T19:17:04Z</time>
      </trkpt>
      <trkpt lat="57.39691" lon="-5.50556">
        <ele>27.76</ele>
        <time>2021-03-20T19:17:09Z</time>
      </trkpt>
      <trkpt lat="57.39687" lon="-5.50621">
        <ele>29.97</ele>
        <time>2021-03-20T19:17:14Z</time>
      </trkpt>
      <trkpt lat="57.39691" lon="-5.50688">
        <ele>35.37</ele>
        <time>2021-03-20T19:17:19Z</time>
      </trkpt>
      <trkpt lat="57.39698" lon="-5.50727">
        <ele>38.73</ele>
        <time>2021-03-20T19:17:24Z</time>
      </trkpt>
      <trkpt lat="57.39708" lon="-5.50759">
        <ele>42.15</ele>
        <time>2021-03-20T19:17:29Z</time>
      </trkpt>
      <trkpt lat="57.39732" lon="-5.50807">
        <ele>47.49</ele>
        <time>2021-03-20T19:17:34Z</time>
      </trkpt>
      <trkpt lat="57.39751" lon="-5.50833">
        <ele>49.97</ele>
        <time>2021-03-20T19:17:38Z</time>
      </trkpt>
      <trkpt lat="57.39782" lon="-5.50867">
        <ele>55.85</ele>
        <time>2021-03-20T19:17:43Z</time>
      </trkpt>
      <trkpt lat="57.39826" lon="-5.50874">
        <ele>59.34</ele>
        <time>2021-03-20T19:17:48Z</time>
      </trkpt>
      <trkpt lat="57.39863" lon="-5.50865">
        <ele>61.47</ele>
        <time>2021-03-20T19:17:53Z</time>
      </trkpt>
      <trkpt lat="57.39878" lon="-5.50858">
        <ele>62.53</ele>
        <time>2021-03-20T19:17:58Z</time>
      </trkpt>
      <trkpt lat="57.39972" lon="-5.50776">
        <ele>67.85</ele>
        <time>2021-03-20T19:18:03Z</time>
      </trkpt>
      <trkpt lat="57.40018" lon="-5.50748">
        <ele>69.79</ele>
        <time>2021-03-20T19:18:08Z</time>
      </trkpt>
      <trkpt lat="57.40036" lon="-5.50745">
        <ele>71.16</ele>
        <time>2021-03-20T19:18:13Z</time>
      </trkpt>
      <trkpt lat="57.4015" lon="-5.50769">
        <ele>80.77</ele>
        <time>2021-03-20T19:18:18Z</time>
      </trkpt>
      <trkpt lat="57.40168" lon="-5.50779">
        <ele>82.09</ele>
        <time>2021-03-20T19:18:23Z</time>
      </trkpt>
      <trkpt lat="57.40215" lon="-5.50827">
        <ele>85.98</ele>
        <time>2021-03-20T19:18:28Z</time>
      </trkpt>
      <trkpt lat="57.40235" lon="-5.50854">
        <ele>87.17</ele>
        <time>2021-03-20T19:18:33Z</time>
      </trkpt>
      <trkpt lat="57.40252" lon="-5.50888">
        <ele>88.03</ele>
        <time>2021-03-20T19:18:38Z</time>
      </trkpt>
      <trkpt lat="57.40275" lon="-5.50912">
        <ele>90.57</ele>
        <time>2021-03-20T19:18:43Z</time>
      </trkpt>
      <trkpt lat="57.40294" lon="-5.50919">
        <ele>92.88</ele>
        <time>2021-03-20T19:18:48Z</time>
      </trkpt>
      <trkpt lat="57.40336" lon="-5.50922">
        <ele>96.51</ele>
        <time>2021-03-20T19:18:53Z</time>
      </trkpt>
      <trkpt lat="57.40348" lon="-5.50926">
        <ele>97.16</ele>
        <time>2021-03-20T19:18:58Z</time>
      </trkpt>
      <trkpt lat="57.40359" lon="-5.50936">
        <ele>98.35</ele>
        <time>2021-03-20T19:19:03Z</time>
      </trkpt>
      <trkpt lat="57.40394" lon="-5.51016">
        <ele>101.56</ele>
        <time>2021-03-20T19:19:08Z</time>
      </trkpt>
      <trkpt lat="57.40413" lon="-5.51074">
        <ele>104.24</ele>
        <time>2021-03-20T19:19:13Z</time>
      </trkpt>
      <trkpt lat="57.40419" lon="-5.51106">
        <ele>105.83</ele>
        <time>2021-03-20T19:19:18Z</time>
      </trkpt>
      <trkpt lat="57.40423" lon="-5.51155">
        <ele>108.58</ele>
        <time>2021-03-20T19:19:23Z</time>
      </trkpt>
      <trkpt lat="57.40426" lon="-5.51228">
        <ele>111.86</ele>
        <time>2021-03-20T19:19:28Z</time>
      </trkpt>
      <trkpt lat="57.40414" lon="-5.51314">
        <ele>113.19</ele>
        <time>2021-03-20T19:19:33Z</time>
      </trkpt>
      <trkpt lat="57.40404" lon="-5.51369">
        <ele>114.91</ele>
        <time>2021-03-20T19:19:38Z</time>
      </trkpt>
      <trkpt lat="57.40403" lon="-5.51427">
        <ele>117.4</ele>
        <time>2021-03-20T19:19:43Z</time>
      </trkpt>
      <trkpt lat="57.40407" lon="-5.51463">
        <ele>118.36</ele>
        <time>2021-03-20T19:19:48Z</time>
      </trkpt>
      <trkpt lat="57.40424" lon="-5.51505">
        <ele>118.71</ele>
        <time>2021-03-20T19:19:53Z</time>
      </trkpt>
      <trkpt lat="57.40432" lon="-5.51536">
        <ele>120.95</ele>
        <time>2021-03-20T19:19:58Z</time>
      </trkpt>
      <trkpt lat="57.40437" lon="-5.51573">
        <ele>123.46</ele>
        <time>2021-03-20T19:20:03Z</time>
      </trkpt>
      <trkpt lat="57.40444" lon="-5.51787">
        <ele>130.3</ele>
        <time>2021-03-20T19:20:08Z</time>
      </trkpt>
      <trkpt lat="57.40454" lon="-5.51931">
        <ele>137.99</ele>
        <time>2021-03-20T19:20:12Z</time>
      </trkpt>
      <trkpt lat="57.40485" lon="-5.52325">
        <ele>142</ele>
        <time>2021-03-20T19:20:17Z</time>
      </trkpt>
      <trkpt lat="57.40551" lon="-5.52549">
        <ele>141.82</ele>
        <time>2021-03-20T19:20:22Z</time>
      </trkpt>
      <trkpt lat="57.40573" lon="-5.52643">
        <ele>140.91</ele>
        <time>2021-03-20T19:20:27Z</time>
      </trkpt>
      <trkpt lat="57.40615" lon="-5.52901">
        <ele>135.27</ele>
        <time>2021-03-20T19:20:32Z</time>
      </trkpt>
      <trkpt lat="57.40618" lon="-5.53149">
        <ele>128.6</ele>
        <time>2021-03-20T19:20:37Z</time>
      </trkpt>
      <trkpt lat="57.40632" lon="-5.53399">
        <ele>121.82</ele>
        <time>2021-03-20T19:20:42Z</time>
      </trkpt>
      <trkpt lat="57.40629" lon="-5.53471">
        <ele>119.54</ele>
        <time>2021-03-20T19:20:47Z</time>
      </trkpt>
      <trkpt lat="57.40622" lon="-5.5355">
        <ele>116.76</ele>
        <time>2021-03-20T19:20:52Z</time>
      </trkpt>
      <trkpt lat="57.40585" lon="-5.53714">
        <ele>111.89</ele>
        <time>2021-03-20T19:20:57Z</time>
      </trkpt>
      <trkpt lat="57.40578" lon="-5.53773">
        <ele>109.53</ele>
        <time>2021-03-20T19:21:02Z</time>
      </trkpt>
      <trkpt lat="57.40577" lon="-5.53844">
        <ele>107.13</ele>
        <time>2021-03-20T19:21:07Z</time>
      </trkpt>
      <trkpt lat="57.40585" lon="-5.53932">
        <ele>104.55</ele>
        <time>2021-03-20T19:21:12Z</time>
      </trkpt>
      <trkpt lat="57.40596" lon="-5.53999">
        <ele>103.83</ele>
        <time>2021-03-20T19:21:17Z</time>
      </trkpt>
      <trkpt lat="57.406" lon="-5.54044">
        <ele>101</ele>
        <time>2021-03-20T19:21:22Z</time>
      </trkpt>
      <trkpt lat="57.40599" lon="-5.54099">
        <ele>98.6</ele>
        <time>2021-03-20T19:21:27Z</time>
      </trkpt>
      <trkpt lat="57.40602" lon="-5.54256">
        <ele>97.11</ele>
        <time>2021-03-20T19:21:32Z</time>
      </trkpt>
      <trkpt lat="57.40595" lon="-5.54333">
        <ele>93.65</ele>
        <time>2021-03-20T19:21:37Z</time>
      </trkpt>
      <trkpt lat="57.40586" lon="-5.54408">
        <ele>92.72</ele>
        <time>2021-03-20T19:21:42Z</time>
      </trkpt>
      <trkpt lat="57.40603" lon="-5.54534">
        <ele>88.1</ele>
        <time>2021-03-20T19:21:47Z</time>
      </trkpt>
      <trkpt lat="57.40599" lon="-5.54575">
        <ele>88.4</ele>
        <time>2021-03-20T19:21:52Z</time>
      </trkpt>
      <trkpt lat="57.40591" lon="-5.54619">
        <ele>87.88</ele>
        <time>2021-03-20T19:21:57Z</time>
      </trkpt>
      <trkpt lat="57.40577" lon="-5.54657">
        <ele>85.66</ele>
        <time>2021-03-20T19:22:02Z</time>
      </trkpt>
      <trkpt lat="57.40573" lon="-5.54701">
        <ele>82.71</ele>
        <time>2021-03-20T19:22:07Z</time>
      </trkpt>
      <trkpt lat="57.40577" lon="-5.54739">
        <ele>82.39</ele>
        <time>2021-03-20T19:22:12Z</time>
      </trkpt>
      <trkpt lat="57.40598" lon="-5.54841">
        <ele>83.68</ele>
        <time>2021-03-20T19:22:17Z</time>
      </trkpt>
      <trkpt lat="57.40605" lon="-5.54895">
        <ele>82.86</ele>
        <time>2021-03-20T19:22:22Z</time>
      </trkpt>
      <trkpt lat="57.40604" lon="-5.54936">
        <ele>83.65</ele>
        <time>2021-03-20T19:22:27Z</time>
      </trkpt>
      <trkpt lat="57.40599" lon="-5.54997">
        <ele>83.27</ele>
        <time>2021-03-20T19:22:32Z</time>
      </trkpt>
      <trkpt lat="57.40602" lon="-5.55012">
        <ele>81.39</ele>
        <time>2021-03-20T19:22:37Z</time>
      </trkpt>
      <trkpt lat="57.40609" lon="-5.55023">
        <ele>79.55</ele>
        <time>2021-03-20T19:22:41Z</time>
      </trkpt>
      <trkpt lat="57.40609" lon="-5.55062">
        <ele>78.51</ele>
        <time>2021-03-20T19:22:46Z</time>
      </trkpt>
      <trkpt lat="57.40587" lon="-5.5521">
        <ele>87.53</ele>
        <time>2021-03-20T19:22:51Z</time>
      </trkpt>
      <trkpt lat="57.40555" lon="-5.5537">
        <ele>100.5</ele>
        <time>2021-03-20T19:22:56Z</time>
      </trkpt>
      <trkpt lat="57.40547" lon="-5.55541">
        <ele>79.44</ele>
        <time>2021-03-20T19:23:01Z</time>
      </trkpt>
      <trkpt lat="57.40543" lon="-5.558">
        <ele>67.61</ele>
        <time>2021-03-20T19:23:06Z</time>
      </trkpt>
      <trkpt lat="57.40528" lon="-5.55911">
        <ele>67.83</ele>
        <time>2021-03-20T19:23:11Z</time>
      </trkpt>
      <trkpt lat="57.40485" lon="-5.56057">
        <ele>60.6</ele>
        <time>2021-03-20T19:23:16Z</time>
      </trkpt>
      <trkpt lat="57.40457" lon="-5.56244">
        <ele>58.65</ele>
        <time>2021-03-20T19:23:21Z</time>
      </trkpt>
      <trkpt lat="57.4045" lon="-5.56383">
        <ele>54.83</ele>
        <time>2021-03-20T19:23:26Z</time>
      </trkpt>
      <trkpt lat="57.40453" lon="-5.56497">
        <ele>50.28</ele>
        <time>2021-03-20T19:23:31Z</time>
      </trkpt>
      <trkpt lat="57.40458" lon="-5.56543">
        <ele>49.4</ele>
        <time>2021-03-20T19:23:36Z</time>
      </trkpt>
      <trkpt lat="57.40478" lon="-5.56642">
        <ele>47.24</ele>
        <time>2021-03-20T19:23:41Z</time>
      </trkpt>
      <trkpt lat="57.40482" lon="-5.56705">
        <ele>48.7</ele>
        <time>2021-03-20T19:23:46Z</time>
      </trkpt>
      <trkpt lat="57.40478" lon="-5.56751">
        <ele>48.71</ele>
        <time>2021-03-20T19:23:51Z</time>
      </trkpt>
      <trkpt lat="57.40448" lon="-5.56884">
        <ele>45.82</ele>
        <time>2021-03-20T19:23:56Z</time>
      </trkpt>
      <trkpt lat="57.40382" lon="-5.573">
        <ele>41.77</ele>
        <time>2021-03-20T19:24:01Z</time>
      </trkpt>
      <trkpt lat="57.40317" lon="-5.57521">
        <ele>35.47</ele>
        <time>2021-03-20T19:24:06Z</time>
      </trkpt>
      <trkpt lat="57.40284" lon="-5.57645">
        <ele>32.95</ele>
        <time>2021-03-20T19:24:11Z</time>
      </trkpt>
      <trkpt lat="57.40252" lon="-5.579">
        <ele>34.23</ele>
        <time>2021-03-20T19:24:16Z</time>
      </trkpt>
      <trkpt lat="57.40249" lon="-5.57989">
        <ele>32.8</ele>
        <time>2021-03-20T19:24:21Z</time>
      </trkpt>
      <trkpt lat="57.40264" lon="-5.58139">
        <ele>31</ele>
        <time>2021-03-20T19:24:26Z</time>
      </trkpt>
      <trkpt lat="57.40263" lon="-5.58163">
        <ele>30.97</ele>
        <time>2021-03-20T19:24:31Z</time>
      </trkpt>
      <trkpt lat="57.40257" lon="-5.58203">
        <ele>32.86</ele>
        <time>2021-03-20T19:24:36Z</time>
      </trkpt>
      <trkpt lat="57.40238" lon="-5.58261">
        <ele>34.78</ele>
        <time>2021-03-20T19:24:41Z</time>
      </trkpt>
      <trkpt lat="57.40215" lon="-5.58347">
        <ele>37.12</ele>
        <time>2021-03-20T19:24:46Z</time>
      </trkpt>
      <trkpt lat="57.40195" lon="-5.58432">
        <ele>38.17</ele>
        <time>2021-03-20T19:24:51Z</time>
      </trkpt>
      <trkpt lat="57.40149" lon="-5.58553">
        <ele>37.27</ele>
        <time>2021-03-20T19:24:56Z</time>
      </trkpt>
      <trkpt lat="57.40117" lon="-5.58609">
        <ele>35.66</ele>
        <time>2021-03-20T19:25:01Z</time>
      </trkpt>
      <trkpt lat="57.4009" lon="-5.58675">
        <ele>36.2</ele>
        <time>2021-03-20T19:25:06Z</time>
      </trkpt>
      <trkpt lat="57.40017" lon="-5.58877">
        <ele>38.04</ele>
        <time>2021-03-20T19:25:10Z</time>
      </trkpt>
      <trkpt lat="57.3997" lon="-5.59039">
        <ele>35.36</ele>
        <time>2021-03-20T19:25:15Z</time>
      </trkpt>
      <trkpt lat="57.39964" lon="-5.5908">
        <ele>36.57</ele>
        <time>2021-03-20T19:25:20Z</time>
      </trkpt>
      <trkpt lat="57.39937" lon="-5.59318">
        <ele>39.54</ele>
        <time>2021-03-20T19:25:25Z</time>
      </trkpt>
      <trkpt lat="57.39907" lon="-5.59774">
        <ele>31.08</ele>
        <time>2021-03-20T19:25:30Z</time>
      </trkpt>
      <trkpt lat="57.3988" lon="-5.6032">
        <ele>30.02</ele>
        <time>2021-03-20T19:25:35Z</time>
      </trkpt>
      <trkpt lat="57.39876" lon="-5.60413">
        <ele>28.9</ele>
        <time>2021-03-20T19:25:40Z</time>
      </trkpt>
      <trkpt lat="57.39883" lon="-5.60523">
        <ele>23.13</ele>
        <time>2021-03-20T19:25:45Z</time>
      </trkpt>
      <trkpt lat="57.39898" lon="-5.60597">
        <ele>19.74</ele>
        <time>2021-03-20T19:25:50Z</time>
      </trkpt>
      <trkpt lat="57.39919" lon="-5.60648">
        <ele>19.62</ele>
        <time>2021-03-20T19:25:55Z</time>
      </trkpt>
      <trkpt lat="57.39999" lon="-5.60768">
        <ele>21.14</ele>
        <time>2021-03-20T19:26:00Z</time>
      </trkpt>
      <trkpt lat="57.40049" lon="-5.60832">
        <ele>24.32</ele>
        <time>2021-03-20T19:26:05Z</time>
      </trkpt>
      <trkpt lat="57.40109" lon="-5.6089">
        <ele>22.91</ele>
        <time>2021-03-20T19:26:10Z</time>
      </trkpt>
      <trkpt lat="57.40206" lon="-5.60948">
        <ele>23.72</ele>
        <time>2021-03-20T19:26:15Z</time>
      </trkpt>
      <trkpt lat="57.40268" lon="-5.6098">
        <ele>28.04</ele>
        <time>2021-03-20T19:26:20Z</time>
      </trkpt>
      <trkpt lat="57.40336" lon="-5.61009">
        <ele>27.76</ele>
        <time>2021-03-20T19:26:25Z</time>
      </trkpt>
      <trkpt lat="57.40373" lon="-5.61019">
        <ele>28.87</ele>
        <time>2021-03-20T19:26:30Z</time>
      </trkpt>
      <trkpt lat="57.40537" lon="-5.61078">
        <ele>25.22</ele>
        <time>2021-03-20T19:26:35Z</time>
      </trkpt>
      <trkpt lat="57.40603" lon="-5.61077">
        <ele>21.49</ele>
        <time>2021-03-20T19:26:40Z</time>
      </trkpt>
      <trkpt lat="57.40632" lon="-5.61066">
        <ele>20.2</ele>
        <time>2021-03-20T19:26:45Z</time>
      </trkpt>
      <trkpt lat="57.40676" lon="-5.61043">
        <ele>16</ele>
        <time>2021-03-20T19:26:50Z</time>
      </trkpt>
      <trkpt lat="57.40808" lon="-5.60921">
        <ele>14.6</ele>
        <time>2021-03-20T19:26:55Z</time>
      </trkpt>
      <trkpt lat="57.40884" lon="-5.6087">
        <ele>12.03</ele>
        <time>2021-03-20T19:27:00Z</time>
      </trkpt>
      <trkpt lat="57.40966" lon="-5.60819">
        <ele>8.36</ele>
        <time>2021-03-20T19:27:05Z</time>
      </trkpt>
      <trkpt lat="57.41015" lon="-5.60775">
        <ele>7.81</ele>
        <time>2021-03-20T19:27:10Z</time>
      </trkpt>
      <trkpt lat="57.41128" lon="-5.6065">
        <ele>8.61</ele>
        <time>2021-03-20T19:27:15Z</time>
      </trkpt>
      <trkpt lat="57.41337" lon="-5.6053">
        <ele>9.16</ele>
        <time>2021-03-20T19:27:20Z</time>
      </trkpt>
      <trkpt lat="57.41393" lon="-5.60487">
        <ele>8.13</ele>
        <time>2021-03-20T19:27:25Z</time>
      </trkpt>
      <trkpt lat="57.41563" lon="-5.60324">
        <ele>8.1</ele>
        <time>2021-03-20T19:27:30Z</time>
      </trkpt>
      <trkpt lat="57.41607" lon="-5.60294">
        <ele>7.65</ele>
        <time>2021-03-20T19:27:35Z</time>
      </trkpt>
      <trkpt lat="57.41651" lon="-5.60272">
        <ele>8.43</ele>
        <time>2021-03-20T19:27:40Z</time>
      </trkpt>
      <trkpt lat="57.41698" lon="-5.6026">
        <ele>8.44</ele>
        <time>2021-03-20T19:27:44Z</time>
      </trkpt>
      <trkpt lat="57.41832" lon="-5.60256">
        <ele>10.59</ele>
        <time>2021-03-20T19:27:50Z</time>
      </trkpt>
      <trkpt lat="57.4186" lon="-5.60411">
        <ele>4.05</ele>
        <time>2021-03-20T19:27:53Z</time>
      </trkpt>
      <trkpt lat="57.41877" lon="-5.60491">
        <ele>3.42</ele>
        <time>2021-03-20T19:27:55Z</time>
      </trkpt>
      <trkpt lat="57.4192" lon="-5.60737">
        <ele>2</ele>
        <time>2021-03-20T19:27:58Z</time>
      </trkpt>
      <trkpt lat="57.41936" lon="-5.60864">
        <ele>6.88</ele>
        <time>2021-03-20T19:28:01Z</time>
      </trkpt>
      <trkpt lat="57.41937" lon="-5.60877">
        <ele>7.74</ele>
        <time>2021-03-20T19:28:04Z</time>
      </trkpt>
      <trkpt lat="57.41936" lon="-5.60894">
        <ele>9.05</ele>
        <time>2021-03-20T19:28:07Z</time>
      </trkpt>
      <trkpt lat="57.41918" lon="-5.60929">
        <ele>11.41</ele>
        <time>2021-03-20T19:28:10Z</time>
      </trkpt>
      <trkpt lat="57.41863" lon="-5.61004">
        <ele>13.95</ele>
        <time>2021-03-20T19:28:13Z</time>
      </trkpt>
      <trkpt lat="57.41821" lon="-5.61074">
        <ele>15.95</ele>
        <time>2021-03-20T19:28:16Z</time>
      </trkpt>
      <trkpt lat="57.41801" lon="-5.61097">
        <ele>16.02</ele>
        <time>2021-03-20T19:28:19Z</time>
      </trkpt>
      <trkpt lat="57.41772" lon="-5.61117">
        <ele>15.48</ele>
        <time>2021-03-20T19:28:22Z</time>
      </trkpt>
      <trkpt lat="57.41745" lon="-5.61132">
        <ele>15.69</ele>
        <time>2021-03-20T19:28:25Z</time>
      </trkpt>
      <trkpt lat="57.41714" lon="-5.61157">
        <ele>15.81</ele>
        <time>2021-03-20T19:28:28Z</time>
      </trkpt>
      <trkpt lat="57.41686" lon="-5.61189">
        <ele>15.1</ele>
        <time>2021-03-20T19:28:30Z</time>
      </trkpt>
      <trkpt lat="57.41632" lon="-5.61272">
        <ele>17.2</ele>
        <time>2021-03-20T19:28:33Z</time>
      </trkpt>
      <trkpt lat="57.41596" lon="-5.61318">
        <ele>17.1</ele>
        <time>2021-03-20T19:28:36Z</time>
      </trkpt>
      <trkpt lat="57.41559" lon="-5.61356">
        <ele>16.89</ele>
        <time>2021-03-20T19:28:39Z</time>
      </trkpt>
      <trkpt lat="57.41518" lon="-5.61393">
        <ele>16.25</ele>
        <time>2021-03-20T19:28:42Z</time>
      </trkpt>
      <trkpt lat="57.41478" lon="-5.61425">
        <ele>17.5</ele>
        <time>2021-03-20T19:28:45Z</time>
      </trkpt>
      <trkpt lat="57.41456" lon="-5.61439">
        <ele>16.66</ele>
        <time>2021-03-20T19:28:48Z</time>
      </trkpt>
      <trkpt lat="57.41424" lon="-5.61455">
        <ele>17.13</ele>
        <time>2021-03-20T19:28:51Z</time>
      </trkpt>
      <trkpt lat="57.41379" lon="-5.61469">
        <ele>15.72</ele>
        <time>2021-03-20T19:28:54Z</time>
      </trkpt>
      <trkpt lat="57.41341" lon="-5.61488">
        <ele>15.83</ele>
        <time>2021-03-20T19:28:57Z</time>
      </trkpt>
      <trkpt lat="57.41141" lon="-5.61615">
        <ele>20.66</ele>
        <time>2021-03-20T19:29:00Z</time>
      </trkpt>
      <trkpt lat="57.41095" lon="-5.61649">
        <ele>19.35</ele>
        <time>2021-03-20T19:29:03Z</time>
      </trkpt>
      <trkpt lat="57.41081" lon="-5.61664">
        <ele>19.61</ele>
        <time>2021-03-20T19:29:06Z</time>
      </trkpt>
      <trkpt lat="57.41068" lon="-5.61686">
        <ele>21.71</ele>
        <time>2021-03-20T19:29:08Z</time>
      </trkpt>
      <trkpt lat="57.40958" lon="-5.61886">
        <ele>33.65</ele>
        <time>2021-03-20T19:29:11Z</time>
      </trkpt>
      <trkpt lat="57.40928" lon="-5.61933">
        <ele>35.47</ele>
        <time>2021-03-20T19:29:14Z</time>
      </trkpt>
      <trkpt lat="57.40912" lon="-5.61954">
        <ele>35.75</ele>
        <time>2021-03-20T19:29:17Z</time>
      </trkpt>
      <trkpt lat="57.40871" lon="-5.61995">
        <ele>35.56</ele>
        <time>2021-03-20T19:29:20Z</time>
      </trkpt>
      <trkpt lat="57.40854" lon="-5.62023">
        <ele>37.55</ele>
        <time>2021-03-20T19:29:23Z</time>
      </trkpt>
      <trkpt lat="57.40842" lon="-5.62054">
        <ele>39.83</ele>
        <time>2021-03-20T19:29:26Z</time>
      </trkpt>
      <trkpt lat="57.40838" lon="-5.62091">
        <ele>41.81</ele>
        <time>2021-03-20T19:29:29Z</time>
      </trkpt>
      <trkpt lat="57.40833" lon="-5.62174">
        <ele>45.42</ele>
        <time>2021-03-20T19:29:32Z</time>
      </trkpt>
      <trkpt lat="57.40826" lon="-5.62393">
        <ele>53.97</ele>
        <time>2021-03-20T19:29:35Z</time>
      </trkpt>
      <trkpt lat="57.40819" lon="-5.62438">
        <ele>55.25</ele>
        <time>2021-03-20T19:29:38Z</time>
      </trkpt>
      <trkpt lat="57.40809" lon="-5.62468">
        <ele>55.18</ele>
        <time>2021-03-20T19:29:41Z</time>
      </trkpt>
      <trkpt lat="57.40793" lon="-5.62526">
        <ele>55.1</ele>
        <time>2021-03-20T19:29:43Z</time>
      </trkpt>
      <trkpt lat="57.4079" lon="-5.62545">
        <ele>55.01</ele>
        <time>2021-03-20T19:29:46Z</time>
      </trkpt>
      <trkpt lat="57.40791" lon="-5.62566">
        <ele>55.79</ele>
        <time>2021-03-20T19:29:49Z</time>
      </trkpt>
      <trkpt lat="57.40801" lon="-5.62599">
        <ele>58.21</ele>
        <time>2021-03-20T19:29:52Z</time>
      </trkpt>
      <trkpt lat="57.40813" lon="-5.62632">
        <ele>61.57</ele>
        <time>2021-03-20T19:29:55Z</time>
      </trkpt>
      <trkpt lat="57.40817" lon="-5.62659">
        <ele>63.35</ele>
        <time>2021-03-20T19:29:58Z</time>
      </trkpt>
      <trkpt lat="57.40816" lon="-5.62684">
        <ele>64.78</ele>
        <time>2021-03-20T19:30:01Z</time>
      </trkpt>
      <trkpt lat="57.40806" lon="-5.62762">
        <ele>66.41</ele>
        <time>2021-03-20T19:30:04Z</time>
      </trkpt>
      <trkpt lat="57.40797" lon="-5.62855">
        <ele>68.9</ele>
        <time>2021-03-20T19:30:07Z</time>
      </trkpt>
      <trkpt lat="57.40799" lon="-5.62899">
        <ele>70.39</ele>
        <time>2021-03-20T19:30:10Z</time>
      </trkpt>
      <trkpt lat="57.40811" lon="-5.62948">
        <ele>72.64</ele>
        <time>2021-03-20T19:30:13Z</time>
      </trkpt>
      <trkpt lat="57.40824" lon="-5.6299">
        <ele>73.68</ele>
        <time>2021-03-20T19:30:16Z</time>
      </trkpt>
      <trkpt lat="57.4083" lon="-5.63001">
        <ele>74.42</ele>
        <time>2021-03-20T19:30:19Z</time>
      </trkpt>
      <trkpt lat="57.40847" lon="-5.63019">
        <ele>75.05</ele>
        <time>2021-03-20T19:30:21Z</time>
      </trkpt>
      <trkpt lat="57.40921" lon="-5.63084">
        <ele>79.68</ele>
        <time>2021-03-20T19:30:24Z</time>
      </trkpt>
      <trkpt lat="57.40947" lon="-5.6312">
        <ele>84.06</ele>
        <time>2021-03-20T19:30:27Z</time>
      </trkpt>
      <trkpt lat="57.40995" lon="-5.63204">
        <ele>88.77</ele>
        <time>2021-03-20T19:30:30Z</time>
      </trkpt>
      <trkpt lat="57.41031" lon="-5.63278">
        <ele>93.59</ele>
        <time>2021-03-20T19:30:33Z</time>
      </trkpt>
      <trkpt lat="57.4104" lon="-5.63303">
        <ele>94.85</ele>
        <time>2021-03-20T19:30:36Z</time>
      </trkpt>
      <trkpt lat="57.41048" lon="-5.63333">
        <ele>95.95</ele>
        <time>2021-03-20T19:30:39Z</time>
      </trkpt>
      <trkpt lat="57.41053" lon="-5.63365">
        <ele>97.65</ele>
        <time>2021-03-20T19:30:42Z</time>
      </trkpt>
      <trkpt lat="57.41056" lon="-5.63399">
        <ele>98.77</ele>
        <time>2021-03-20T19:30:45Z</time>
      </trkpt>
      <trkpt lat="57.41053" lon="-5.63434">
        <ele>100.41</ele>
        <time>2021-03-20T19:30:48Z</time>
      </trkpt>
      <trkpt lat="57.4105" lon="-5.63445">
        <ele>100.68</ele>
        <time>2021-03-20T19:30:51Z</time>
      </trkpt>
      <trkpt lat="57.41046" lon="-5.63454">
        <ele>100.93</ele>
        <time>2021-03-20T19:30:54Z</time>
      </trkpt>
      <trkpt lat="57.41024" lon="-5.63477">
        <ele>101.08</ele>
        <time>2021-03-20T19:30:57Z</time>
      </trkpt>
      <trkpt lat="57.40989" lon="-5.63511">
        <ele>101.97</ele>
        <time>2021-03-20T19:30:59Z</time>
      </trkpt>
      <trkpt lat="57.40971" lon="-5.63536">
        <ele>102.12</ele>
        <time>2021-03-20T19:31:02Z</time>
      </trkpt>
      <trkpt lat="57.40932" lon="-5.63647">
        <ele>102.21</ele>
        <time>2021-03-20T19:31:05Z</time>
      </trkpt>
      <trkpt lat="57.4091" lon="-5.63689">
        <ele>102.85</ele>
        <time>2021-03-20T19:31:08Z</time>
      </trkpt>
      <trkpt lat="57.40866" lon="-5.63791">
        <ele>103.86</ele>
        <time>2021-03-20T19:31:11Z</time>
      </trkpt>
      <trkpt lat="57.40859" lon="-5.63837">
        <ele>104.72</ele>
        <time>2021-03-20T19:31:14Z</time>
      </trkpt>
      <trkpt lat="57.40857" lon="-5.63876">
        <ele>104.59</ele>
        <time>2021-03-20T19:31:17Z</time>
      </trkpt>
      <trkpt lat="57.409" lon="-5.64082">
        <ele>105.39</ele>
        <time>2021-03-20T19:31:20Z</time>
      </trkpt>
      <trkpt lat="57.40969" lon="-5.64403">
        <ele>118.07</ele>
        <time>2021-03-20T19:31:23Z</time>
      </trkpt>
      <trkpt lat="57.40977" lon="-5.64449">
        <ele>121.28</ele>
        <time>2021-03-20T19:31:26Z</time>
      </trkpt>
      <trkpt lat="57.40976" lon="-5.64463">
        <ele>122.79</ele>
        <time>2021-03-20T19:31:29Z</time>
      </trkpt>
      <trkpt lat="57.40973" lon="-5.64475">
        <ele>124.28</ele>
        <time>2021-03-20T19:31:32Z</time>
      </trkpt>
      <trkpt lat="57.40969" lon="-5.64479">
        <ele>125.06</ele>
        <time>2021-03-20T19:31:34Z</time>
      </trkpt>
      <trkpt lat="57.40961" lon="-5.64482">
        <ele>126.03</ele>
        <time>2021-03-20T19:31:37Z</time>
      </trkpt>
      <trkpt lat="57.40944" lon="-5.64478">
        <ele>126.81</ele>
        <time>2021-03-20T19:31:40Z</time>
      </trkpt>
      <trkpt lat="57.40854" lon="-5.64434">
        <ele>130.07</ele>
        <time>2021-03-20T19:31:43Z</time>
      </trkpt>
      <trkpt lat="57.40804" lon="-5.64403">
        <ele>133.66</ele>
        <time>2021-03-20T19:31:46Z</time>
      </trkpt>
      <trkpt lat="57.40783" lon="-5.64396">
        <ele>136.14</ele>
        <time>2021-03-20T19:31:49Z</time>
      </trkpt>
      <trkpt lat="57.40758" lon="-5.64397">
        <ele>138.64</ele>
        <time>2021-03-20T19:31:52Z</time>
      </trkpt>
      <trkpt lat="57.40725" lon="-5.64411">
        <ele>141.14</ele>
        <time>2021-03-20T19:31:55Z</time>
      </trkpt>
      <trkpt lat="57.40693" lon="-5.64419">
        <ele>142.43</ele>
        <time>2021-03-20T19:31:58Z</time>
      </trkpt>
      <trkpt lat="57.40617" lon="-5.64427">
        <ele>146.55</ele>
        <time>2021-03-20T19:32:01Z</time>
      </trkpt>
      <trkpt lat="57.40512" lon="-5.64462">
        <ele>150.65</ele>
        <time>2021-03-20T19:32:04Z</time>
      </trkpt>
      <trkpt lat="57.40478" lon="-5.64482">
        <ele>151.85</ele>
        <time>2021-03-20T19:32:07Z</time>
      </trkpt>
      <trkpt lat="57.40451" lon="-5.64506">
        <ele>151.56</ele>
        <time>2021-03-20T19:32:10Z</time>
      </trkpt>
      <trkpt lat="57.40442" lon="-5.64521">
        <ele>152.03</ele>
        <time>2021-03-20T19:32:12Z</time>
      </trkpt>
      <trkpt lat="57.40439" lon="-5.64536">
        <ele>152.96</ele>
        <time>2021-03-20T19:32:15Z</time>
      </trkpt>
      <trkpt lat="57.40438" lon="-5.64595">
        <ele>157.9</ele>
        <time>2021-03-20T19:32:18Z</time>
      </trkpt>
      <trkpt lat="57.40434" lon="-5.64613">
        <ele>158.8</ele>
        <time>2021-03-20T19:32:21Z</time>
      </trkpt>
      <trkpt lat="57.40423" lon="-5.64632">
        <ele>161.12</ele>
        <time>2021-03-20T19:32:24Z</time>
      </trkpt>
      <trkpt lat="57.40409" lon="-5.64645">
        <ele>162.1</ele>
        <time>2021-03-20T19:32:27Z</time>
      </trkpt>
      <trkpt lat="57.40347" lon="-5.64697">
        <ele>163.85</ele>
        <time>2021-03-20T19:32:30Z</time>
      </trkpt>
      <trkpt lat="57.40305" lon="-5.64748">
        <ele>164.69</ele>
        <time>2021-03-20T19:32:33Z</time>
      </trkpt>
      <trkpt lat="57.40275" lon="-5.64793">
        <ele>165.94</ele>
        <time>2021-03-20T19:32:36Z</time>
      </trkpt>
      <trkpt lat="57.40245" lon="-5.64857">
        <ele>171.84</ele>
        <time>2021-03-20T19:32:39Z</time>
      </trkpt>
      <trkpt lat="57.40232" lon="-5.64879">
        <ele>173.71</ele>
        <time>2021-03-20T19:32:42Z</time>
      </trkpt>
      <trkpt lat="57.40218" lon="-5.64894">
        <ele>174.49</ele>
        <time>2021-03-20T19:32:45Z</time>
      </trkpt>
      <trkpt lat="57.40206" lon="-5.64904">
        <ele>175.19</ele>
        <time>2021-03-20T19:32:48Z</time>
      </trkpt>
      <trkpt lat="57.40189" lon="-5.64912">
        <ele>175.97</ele>
        <time>2021-03-20T19:32:50Z</time>
      </trkpt>
      <trkpt lat="57.40126" lon="-5.64918">
        <ele>176.24</ele>
        <time>2021-03-20T19:32:53Z</time>
      </trkpt>
      <trkpt lat="57.40096" lon="-5.64934">
        <ele>177.89</ele>
        <time>2021-03-20T19:32:56Z</time>
      </trkpt>
      <trkpt lat="57.4008" lon="-5.64955">
        <ele>179.27</ele>
        <time>2021-03-20T19:32:59Z</time>
      </trkpt>
      <trkpt lat="57.40072" lon="-5.64971">
        <ele>178.97</ele>
        <time>2021-03-20T19:33:02Z</time>
      </trkpt>
      <trkpt lat="57.40068" lon="-5.64985">
        <ele>179.23</ele>
        <time>2021-03-20T19:33:05Z</time>
      </trkpt>
      <trkpt lat="57.40066" lon="-5.65004">
        <ele>180.03</ele>
        <time>2021-03-20T19:33:08Z</time>
      </trkpt>
      <trkpt lat="57.40066" lon="-5.65025">
        <ele>181.02</ele>
        <time>2021-03-20T19:33:11Z</time>
      </trkpt>
      <trkpt lat="57.40073" lon="-5.65042">
        <ele>183.13</ele>
        <time>2021-03-20T19:33:14Z</time>
      </trkpt>
      <trkpt lat="57.40083" lon="-5.65056">
        <ele>185.83</ele>
        <time>2021-03-20T19:33:17Z</time>
      </trkpt>
      <trkpt lat="57.40105" lon="-5.65071">
        <ele>189.03</ele>
        <time>2021-03-20T19:33:20Z</time>
      </trkpt>
      <trkpt lat="57.40134" lon="-5.65083">
        <ele>192.48</ele>
        <time>2021-03-20T19:33:23Z</time>
      </trkpt>
      <trkpt lat="57.40243" lon="-5.65108">
        <ele>202.28</ele>
        <time>2021-03-20T19:33:25Z</time>
      </trkpt>
      <trkpt lat="57.40254" lon="-5.65115">
        <ele>203.51</ele>
        <time>2021-03-20T19:33:28Z</time>
      </trkpt>
      <trkpt lat="57.40264" lon="-5.65128">
        <ele>204.9</ele>
        <time>2021-03-20T19:33:31Z</time>
      </trkpt>
      <trkpt lat="57.40271" lon="-5.65149">
        <ele>206.15</ele>
        <time>2021-03-20T19:33:34Z</time>
      </trkpt>
      <trkpt lat="57.40277" lon="-5.65175">
        <ele>207.57</ele>
        <time>2021-03-20T19:33:37Z</time>
      </trkpt>
      <trkpt lat="57.4028" lon="-5.65197">
        <ele>209.27</ele>
        <time>2021-03-20T19:33:40Z</time>
      </trkpt>
      <trkpt lat="57.40281" lon="-5.65222">
        <ele>210.29</ele>
        <time>2021-03-20T19:33:43Z</time>
      </trkpt>
      <trkpt lat="57.40278" lon="-5.6525">
        <ele>213.05</ele>
        <time>2021-03-20T19:33:46Z</time>
      </trkpt>
      <trkpt lat="57.40275" lon="-5.65276">
        <ele>215.09</ele>
        <time>2021-03-20T19:33:49Z</time>
      </trkpt>
      <trkpt lat="57.40244" lon="-5.65376">
        <ele>214.34</ele>
        <time>2021-03-20T19:33:52Z</time>
      </trkpt>
      <trkpt lat="57.40212" lon="-5.65502">
        <ele>215.82</ele>
        <time>2021-03-20T19:33:55Z</time>
      </trkpt>
      <trkpt lat="57.40209" lon="-5.65526">
        <ele>217.02</ele>
        <time>2021-03-20T19:33:58Z</time>
      </trkpt>
      <trkpt lat="57.40211" lon="-5.65549">
        <ele>218.65</ele>
        <time>2021-03-20T19:34:01Z</time>
      </trkpt>
      <trkpt lat="57.4022" lon="-5.65582">
        <ele>220.61</ele>
        <time>2021-03-20T19:34:03Z</time>
      </trkpt>
      <trkpt lat="57.40229" lon="-5.65604">
        <ele>222.51</ele>
        <time>2021-03-20T19:34:06Z</time>
      </trkpt>
      <trkpt lat="57.40284" lon="-5.657">
        <ele>229</ele>
        <time>2021-03-20T19:34:09Z</time>
      </trkpt>
      <trkpt lat="57.40338" lon="-5.65779">
        <ele>234.61</ele>
        <time>2021-03-20T19:34:12Z</time>
      </trkpt>
      <trkpt lat="57.40386" lon="-5.65864">
        <ele>238.42</ele>
        <time>2021-03-20T19:34:15Z</time>
      </trkpt>
      <trkpt lat="57.404" lon="-5.65904">
        <ele>240.81</ele>
        <time>2021-03-20T19:34:18Z</time>
      </trkpt>
      <trkpt lat="57.40423" lon="-5.66033">
        <ele>245.43</ele>
        <time>2021-03-20T19:34:21Z</time>
      </trkpt>
      <trkpt lat="57.40432" lon="-5.66056">
        <ele>246.71</ele>
        <time>2021-03-20T19:34:24Z</time>
      </trkpt>
      <trkpt lat="57.40445" lon="-5.66077">
        <ele>248.57</ele>
        <time>2021-03-20T19:34:27Z</time>
      </trkpt>
      <trkpt lat="57.40517" lon="-5.66154">
        <ele>261.27</ele>
        <time>2021-03-20T19:34:30Z</time>
      </trkpt>
      <trkpt lat="57.40529" lon="-5.66184">
        <ele>263.79</ele>
        <time>2021-03-20T19:34:33Z</time>
      </trkpt>
      <trkpt lat="57.4058" lon="-5.66398">
        <ele>274.99</ele>
        <time>2021-03-20T19:34:36Z</time>
      </trkpt>
      <trkpt lat="57.4061" lon="-5.66493">
        <ele>280.76</ele>
        <time>2021-03-20T19:34:39Z</time>
      </trkpt>
      <trkpt lat="57.40623" lon="-5.66545">
        <ele>284.46</ele>
        <time>2021-03-20T19:34:41Z</time>
      </trkpt>
      <trkpt lat="57.40634" lon="-5.66641">
        <ele>288.69</ele>
        <time>2021-03-20T19:34:44Z</time>
      </trkpt>
      <trkpt lat="57.4064" lon="-5.66677">
        <ele>290.14</ele>
        <time>2021-03-20T19:34:47Z</time>
      </trkpt>
      <trkpt lat="57.4067" lon="-5.668">
        <ele>300.61</ele>
        <time>2021-03-20T19:34:50Z</time>
      </trkpt>
      <trkpt lat="57.40676" lon="-5.66843">
        <ele>303.86</ele>
        <time>2021-03-20T19:34:53Z</time>
      </trkpt>
      <trkpt lat="57.40695" lon="-5.67002">
        <ele>308.18</ele>
        <time>2021-03-20T19:34:56Z</time>
      </trkpt>
      <trkpt lat="57.40741" lon="-5.67262">
        <ele>324.44</ele>
        <time>2021-03-20T19:34:59Z</time>
      </trkpt>
      <trkpt lat="57.40751" lon="-5.67354">
        <ele>328.64</ele>
        <time>2021-03-20T19:35:02Z</time>
      </trkpt>
      <trkpt lat="57.40765" lon="-5.67453">
        <ele>339.11</ele>
        <time>2021-03-20T19:35:05Z</time>
      </trkpt>
      <trkpt lat="57.40791" lon="-5.6777">
        <ele>376.45</ele>
        <time>2021-03-20T19:35:08Z</time>
      </trkpt>
      <trkpt lat="57.40794" lon="-5.67848">
        <ele>362.79</ele>
        <time>2021-03-20T19:35:11Z</time>
      </trkpt>
      <trkpt lat="57.40793" lon="-5.67933">
        <ele>370.23</ele>
        <time>2021-03-20T19:35:14Z</time>
      </trkpt>
      <trkpt lat="57.40788" lon="-5.67996">
        <ele>369.85</ele>
        <time>2021-03-20T19:35:16Z</time>
      </trkpt>
      <trkpt lat="57.40788" lon="-5.68094">
        <ele>376.22</ele>
        <time>2021-03-20T19:35:19Z</time>
      </trkpt>
      <trkpt lat="57.40784" lon="-5.68118">
        <ele>377.87</ele>
        <time>2021-03-20T19:35:22Z</time>
      </trkpt>
      <trkpt lat="57.40765" lon="-5.68176">
        <ele>373.38</ele>
        <time>2021-03-20T19:35:25Z</time>
      </trkpt>
      <trkpt lat="57.4075" lon="-5.68232">
        <ele>378.62</ele>
        <time>2021-03-20T19:35:28Z</time>
      </trkpt>
      <trkpt lat="57.40727" lon="-5.68339">
        <ele>380.41</ele>
        <time>2021-03-20T19:35:31Z</time>
      </trkpt>
      <trkpt lat="57.40718" lon="-5.68397">
        <ele>385.82</ele>
        <time>2021-03-20T19:35:34Z</time>
      </trkpt>
      <trkpt lat="57.40707" lon="-5.68492">
        <ele>392.22</ele>
        <time>2021-03-20T19:35:37Z</time>
      </trkpt>
      <trkpt lat="57.40704" lon="-5.68579">
        <ele>397.22</ele>
        <time>2021-03-20T19:35:40Z</time>
      </trkpt>
      <trkpt lat="57.40708" lon="-5.68615">
        <ele>398.42</ele>
        <time>2021-03-20T19:35:43Z</time>
      </trkpt>
      <trkpt lat="57.40714" lon="-5.68638">
        <ele>399.88</ele>
        <time>2021-03-20T19:35:46Z</time>
      </trkpt>
      <trkpt lat="57.40742" lon="-5.687">
        <ele>407.57</ele>
        <time>2021-03-20T19:35:49Z</time>
      </trkpt>
      <trkpt lat="57.40752" lon="-5.6873">
        <ele>410.48</ele>
        <time>2021-03-20T19:35:52Z</time>
      </trkpt>
      <trkpt lat="57.40784" lon="-5.689">
        <ele>422.22</ele>
        <time>2021-03-20T19:35:54Z</time>
      </trkpt>
      <trkpt lat="57.40793" lon="-5.68926">
        <ele>423.56</ele>
        <time>2021-03-20T19:35:57Z</time>
      </trkpt>
      <trkpt lat="57.4093" lon="-5.69172">
        <ele>450.09</ele>
        <time>2021-03-20T19:36:00Z</time>
      </trkpt>
      <trkpt lat="57.40955" lon="-5.69225">
        <ele>456.85</ele>
        <time>2021-03-20T19:36:03Z</time>
      </trkpt>
      <trkpt lat="57.4098" lon="-5.69285">
        <ele>463.79</ele>
        <time>2021-03-20T19:36:06Z</time>
      </trkpt>
      <trkpt lat="57.41054" lon="-5.6952">
        <ele>492.11</ele>
        <time>2021-03-20T19:36:09Z</time>
      </trkpt>
      <trkpt lat="57.41069" lon="-5.69585">
        <ele>500.69</ele>
        <time>2021-03-20T19:36:12Z</time>
      </trkpt>
      <trkpt lat="57.41077" lon="-5.69653">
        <ele>509.34</ele>
        <time>2021-03-20T19:36:15Z</time>
      </trkpt>
      <trkpt lat="57.41074" lon="-5.69704">
        <ele>510.77</ele>
        <time>2021-03-20T19:36:18Z</time>
      </trkpt>
      <trkpt lat="57.41069" lon="-5.69751">
        <ele>512.21</ele>
        <time>2021-03-20T19:36:21Z</time>
      </trkpt>
      <trkpt lat="57.4106" lon="-5.6979">
        <ele>512.63</ele>
        <time>2021-03-20T19:36:24Z</time>
      </trkpt>
      <trkpt lat="57.41046" lon="-5.69833">
        <ele>514.93</ele>
        <time>2021-03-20T19:36:27Z</time>
      </trkpt>
      <trkpt lat="57.41026" lon="-5.69861">
        <ele>517.91</ele>
        <time>2021-03-20T19:36:30Z</time>
      </trkpt>
      <trkpt lat="57.40957" lon="-5.69907">
        <ele>528.09</ele>
        <time>2021-03-20T19:36:32Z</time>
      </trkpt>
      <trkpt lat="57.40953" lon="-5.69916">
        <ele>530.94</ele>
        <time>2021-03-20T19:36:35Z</time>
      </trkpt>
      <trkpt lat="57.40958" lon="-5.69923">
        <ele>531.99</ele>
        <time>2021-03-20T19:36:38Z</time>
      </trkpt>
      <trkpt lat="57.40973" lon="-5.69918">
        <ele>529.23</ele>
        <time>2021-03-20T19:36:41Z</time>
      </trkpt>
      <trkpt lat="57.4103" lon="-5.69917">
        <ele>531.1</ele>
        <time>2021-03-20T19:36:44Z</time>
      </trkpt>
      <trkpt lat="57.41047" lon="-5.69932">
        <ele>534.4</ele>
        <time>2021-03-20T19:36:47Z</time>
      </trkpt>
      <trkpt lat="57.4108" lon="-5.69988">
        <ele>547.37</ele>
        <time>2021-03-20T19:36:50Z</time>
      </trkpt>
      <trkpt lat="57.4109" lon="-5.69994">
        <ele>549.74</ele>
        <time>2021-03-20T19:36:53Z</time>
      </trkpt>
      <trkpt lat="57.411" lon="-5.6999">
        <ele>551.41</ele>
        <time>2021-03-20T19:36:56Z</time>
      </trkpt>
      <trkpt lat="57.4111" lon="-5.69975">
        <ele>551.99</ele>
        <time>2021-03-20T19:36:59Z</time>
      </trkpt>
      <trkpt lat="57.41118" lon="-5.69953">
        <ele>551.72</ele>
        <time>2021-03-20T19:37:02Z</time>
      </trkpt>
      <trkpt lat="57.41122" lon="-5.69934">
        <ele>551.77</ele>
        <time>2021-03-20T19:37:05Z</time>
      </trkpt>
      <trkpt lat="57.4113" lon="-5.69882">
        <ele>552.03</ele>
        <time>2021-03-20T19:37:07Z</time>
      </trkpt>
      <trkpt lat="57.41133" lon="-5.69834">
        <ele>550.99</ele>
        <time>2021-03-20T19:37:10Z</time>
      </trkpt>
      <trkpt lat="57.41137" lon="-5.69823">
        <ele>552.97</ele>
        <time>2021-03-20T19:37:13Z</time>
      </trkpt>
      <trkpt lat="57.41144" lon="-5.69823">
        <ele>557.56</ele>
        <time>2021-03-20T19:37:16Z</time>
      </trkpt>
      <trkpt lat="57.41147" lon="-5.69835">
        <ele>559.58</ele>
        <time>2021-03-20T19:37:19Z</time>
      </trkpt>
      <trkpt lat="57.41144" lon="-5.69878">
        <ele>558.23</ele>
        <time>2021-03-20T19:37:22Z</time>
      </trkpt>
      <trkpt lat="57.4115" lon="-5.6998">
        <ele>562.89</ele>
        <time>2021-03-20T19:37:25Z</time>
      </trkpt>
      <trkpt lat="57.41163" lon="-5.7006">
        <ele>570.74</ele>
        <time>2021-03-20T19:37:28Z</time>
      </trkpt>
      <trkpt lat="57.41163" lon="-5.70072">
        <ele>572.11</ele>
        <time>2021-03-20T19:37:31Z</time>
      </trkpt>
      <trkpt lat="57.41159" lon="-5.7008">
        <ele>572.58</ele>
        <time>2021-03-20T19:37:34Z</time>
      </trkpt>
      <trkpt lat="57.41132" lon="-5.70107">
        <ele>573.15</ele>
        <time>2021-03-20T19:37:37Z</time>
      </trkpt>
      <trkpt lat="57.4111" lon="-5.70123">
        <ele>574.65</ele>
        <time>2021-03-20T19:37:40Z</time>
      </trkpt>
      <trkpt lat="57.41103" lon="-5.70137">
        <ele>576.42</ele>
        <time>2021-03-20T19:37:43Z</time>
      </trkpt>
      <trkpt lat="57.41108" lon="-5.7015">
        <ele>578.4</ele>
        <time>2021-03-20T19:37:45Z</time>
      </trkpt>
      <trkpt lat="57.41164" lon="-5.70171">
        <ele>583.17</ele>
        <time>2021-03-20T19:37:48Z</time>
      </trkpt>
      <trkpt lat="57.41192" lon="-5.70178">
        <ele>585.61</ele>
        <time>2021-03-20T19:37:51Z</time>
      </trkpt>
      <trkpt lat="57.41214" lon="-5.70176">
        <ele>587.54</ele>
        <time>2021-03-20T19:37:54Z</time>
      </trkpt>
      <trkpt lat="57.41233" lon="-5.70166">
        <ele>588.79</ele>
        <time>2021-03-20T19:37:57Z</time>
      </trkpt>
      <trkpt lat="57.41263" lon="-5.70144">
        <ele>591.36</ele>
        <time>2021-03-20T19:38:00Z</time>
      </trkpt>
      <trkpt lat="57.41277" lon="-5.7014">
        <ele>592.91</ele>
        <time>2021-03-20T19:38:03Z</time>
      </trkpt>
      <trkpt lat="57.41291" lon="-5.70148">
        <ele>592.98</ele>
        <time>2021-03-20T19:38:06Z</time>
      </trkpt>
      <trkpt lat="57.41418" lon="-5.7036">
        <ele>603.32</ele>
        <time>2021-03-20T19:38:09Z</time>
      </trkpt>
      <trkpt lat="57.41456" lon="-5.70419">
        <ele>610.29</ele>
        <time>2021-03-20T19:38:12Z</time>
      </trkpt>
      <trkpt lat="57.41487" lon="-5.70461">
        <ele>613.14</ele>
        <time>2021-03-20T19:38:15Z</time>
      </trkpt>
      <trkpt lat="57.41524" lon="-5.70501">
        <ele>616.03</ele>
        <time>2021-03-20T19:38:18Z</time>
      </trkpt>
      <trkpt lat="57.41539" lon="-5.70513">
        <ele>618.25</ele>
        <time>2021-03-20T19:38:21Z</time>
      </trkpt>
      <trkpt lat="57.41576" lon="-5.70533">
        <ele>622.21</ele>
        <time>2021-03-20T19:38:23Z</time>
      </trkpt>
      <trkpt lat="57.41591" lon="-5.70545">
        <ele>623.33</ele>
        <time>2021-03-20T19:38:26Z</time>
      </trkpt>
      <trkpt lat="57.41642" lon="-5.7061">
        <ele>625.68</ele>
        <time>2021-03-20T19:38:29Z</time>
      </trkpt>
      <trkpt lat="57.4167" lon="-5.70638">
        <ele>624.85</ele>
        <time>2021-03-20T19:38:32Z</time>
      </trkpt>
      <trkpt lat="57.417" lon="-5.70664">
        <ele>624.91</ele>
        <time>2021-03-20T19:38:35Z</time>
      </trkpt>
      <trkpt lat="57.41798" lon="-5.70714">
        <ele>624.54</ele>
        <time>2021-03-20T19:38:38Z</time>
      </trkpt>
      <trkpt lat="57.41822" lon="-5.70729">
        <ele>621.79</ele>
        <time>2021-03-20T19:38:41Z</time>
      </trkpt>
      <trkpt lat="57.41837" lon="-5.7075">
        <ele>620.73</ele>
        <time>2021-03-20T19:38:44Z</time>
      </trkpt>
      <trkpt lat="57.41863" lon="-5.70801">
        <ele>620.75</ele>
        <time>2021-03-20T19:38:47Z</time>
      </trkpt>
      <trkpt lat="57.41878" lon="-5.70823">
        <ele>620.78</ele>
        <time>2021-03-20T19:38:50Z</time>
      </trkpt>
      <trkpt lat="57.41932" lon="-5.70866">
        <ele>619.66</ele>
        <time>2021-03-20T19:38:53Z</time>
      </trkpt>
      <trkpt lat="57.41998" lon="-5.70911">
        <ele>617.67</ele>
        <time>2021-03-20T19:38:56Z</time>
      </trkpt>
      <trkpt lat="57.42023" lon="-5.70935">
        <ele>614.92</ele>
        <time>2021-03-20T19:38:58Z</time>
      </trkpt>
      <trkpt lat="57.4205" lon="-5.70974">
        <ele>614.55</ele>
        <time>2021-03-20T19:39:01Z</time>
      </trkpt>
      <trkpt lat="57.42088" lon="-5.71037">
        <ele>611.22</ele>
        <time>2021-03-20T19:39:04Z</time>
      </trkpt>
      <trkpt lat="57.42113" lon="-5.71124">
        <ele>608.11</ele>
        <time>2021-03-20T19:39:07Z</time>
      </trkpt>
      <trkpt lat="57.42121" lon="-5.71147">
        <ele>607.49</ele>
        <time>2021-03-20T19:39:10Z</time>
      </trkpt>
      <trkpt lat="57.42138" lon="-5.71179">
        <ele>605.59</ele>
        <time>2021-03-20T19:39:13Z</time>
      </trkpt>
      <trkpt lat="57.42197" lon="-5.71279">
        <ele>596.6</ele>
        <time>2021-03-20T19:39:16Z</time>
      </trkpt>
      <trkpt lat="57.42219" lon="-5.71322">
        <ele>592.62</ele>
        <time>2021-03-20T19:39:19Z</time>
      </trkpt>
      <trkpt lat="57.42294" lon="-5.71502">
        <ele>585.8</ele>
        <time>2021-03-20T19:39:22Z</time>
      </trkpt>
      <trkpt lat="57.42328" lon="-5.7156">
        <ele>582.91</ele>
        <time>2021-03-20T19:39:25Z</time>
      </trkpt>
      <trkpt lat="57.42357" lon="-5.71599">
        <ele>579.42</ele>
        <time>2021-03-20T19:39:28Z</time>
      </trkpt>
      <trkpt lat="57.42388" lon="-5.71625">
        <ele>576.76</ele>
        <time>2021-03-20T19:39:31Z</time>
      </trkpt>
      <trkpt lat="57.4247" lon="-5.71661">
        <ele>568.53</ele>
        <time>2021-03-20T19:39:34Z</time>
      </trkpt>
      <trkpt lat="57.42503" lon="-5.71695">
        <ele>563.26</ele>
        <time>2021-03-20T19:39:36Z</time>
      </trkpt>
      <trkpt lat="57.42533" lon="-5.71754">
        <ele>558.41</ele>
        <time>2021-03-20T19:39:39Z</time>
      </trkpt>
      <trkpt lat="57.4258" lon="-5.71901">
        <ele>548.42</ele>
        <time>2021-03-20T19:39:42Z</time>
      </trkpt>
      <trkpt lat="57.42603" lon="-5.71952">
        <ele>542.12</ele>
        <time>2021-03-20T19:39:45Z</time>
      </trkpt>
      <trkpt lat="57.42647" lon="-5.72015">
        <ele>533.82</ele>
        <time>2021-03-20T19:39:48Z</time>
      </trkpt>
      <trkpt lat="57.42711" lon="-5.72147">
        <ele>522.64</ele>
        <time>2021-03-20T19:39:51Z</time>
      </trkpt>
      <trkpt lat="57.42727" lon="-5.72184">
        <ele>518.71</ele>
        <time>2021-03-20T19:39:54Z</time>
      </trkpt>
      <trkpt lat="57.42767" lon="-5.72319">
        <ele>504.07</ele>
        <time>2021-03-20T19:39:57Z</time>
      </trkpt>
      <trkpt lat="57.42769" lon="-5.72348">
        <ele>503.25</ele>
        <time>2021-03-20T19:40:00Z</time>
      </trkpt>
      <trkpt lat="57.42767" lon="-5.72422">
        <ele>500.38</ele>
        <time>2021-03-20T19:40:03Z</time>
      </trkpt>
      <trkpt lat="57.42768" lon="-5.72521">
        <ele>486.58</ele>
        <time>2021-03-20T19:40:06Z</time>
      </trkpt>
      <trkpt lat="57.42757" lon="-5.72543">
        <ele>484.8</ele>
        <time>2021-03-20T19:40:09Z</time>
      </trkpt>
      <trkpt lat="57.42705" lon="-5.72577">
        <ele>485.1</ele>
        <time>2021-03-20T19:40:12Z</time>
      </trkpt>
      <trkpt lat="57.42695" lon="-5.72592">
        <ele>482.38</ele>
        <time>2021-03-20T19:40:14Z</time>
      </trkpt>
      <trkpt lat="57.42698" lon="-5.72605">
        <ele>479.93</ele>
        <time>2021-03-20T19:40:17Z</time>
      </trkpt>
      <trkpt lat="57.42707" lon="-5.72616">
        <ele>477.53</ele>
        <time>2021-03-20T19:40:20Z</time>
      </trkpt>
      <trkpt lat="57.42764" lon="-5.72645">
        <ele>468.38</ele>
        <time>2021-03-20T19:40:23Z</time>
      </trkpt>
      <trkpt lat="57.42781" lon="-5.72666">
        <ele>465.8</ele>
        <time>2021-03-20T19:40:26Z</time>
      </trkpt>
      <trkpt lat="57.42851" lon="-5.72858">
        <ele>445.64</ele>
        <time>2021-03-20T19:40:29Z</time>
      </trkpt>
      <trkpt lat="57.42917" lon="-5.7301">
        <ele>433.63</ele>
        <time>2021-03-20T19:40:32Z</time>
      </trkpt>
      <trkpt lat="57.42982" lon="-5.73141">
        <ele>425.57</ele>
        <time>2021-03-20T19:40:35Z</time>
      </trkpt>
      <trkpt lat="57.43" lon="-5.73204">
        <ele>423.01</ele>
        <time>2021-03-20T19:40:38Z</time>
      </trkpt>
      <trkpt lat="57.43024" lon="-5.73344">
        <ele>418.58</ele>
        <time>2021-03-20T19:40:41Z</time>
      </trkpt>
      <trkpt lat="57.43047" lon="-5.73701">
        <ele>396.77</ele>
        <time>2021-03-20T19:40:44Z</time>
      </trkpt>
      <trkpt lat="57.43057" lon="-5.73791">
        <ele>395.98</ele>
        <time>2021-03-20T19:40:47Z</time>
      </trkpt>
      <trkpt lat="57.43113" lon="-5.73978">
        <ele>390.55</ele>
        <time>2021-03-20T19:40:49Z</time>
      </trkpt>
      <trkpt lat="57.43132" lon="-5.74065">
        <ele>385.66</ele>
        <time>2021-03-20T19:40:52Z</time>
      </trkpt>
      <trkpt lat="57.43136" lon="-5.74108">
        <ele>385</ele>
        <time>2021-03-20T19:40:55Z</time>
      </trkpt>
      <trkpt lat="57.43134" lon="-5.74162">
        <ele>384.17</ele>
        <time>2021-03-20T19:40:58Z</time>
      </trkpt>
      <trkpt lat="57.43128" lon="-5.74201">
        <ele>385.15</ele>
        <time>2021-03-20T19:41:01Z</time>
      </trkpt>
      <trkpt lat="57.43109" lon="-5.74258">
        <ele>386.02</ele>
        <time>2021-03-20T19:41:04Z</time>
      </trkpt>
      <trkpt lat="57.43094" lon="-5.74287">
        <ele>384.73</ele>
        <time>2021-03-20T19:41:07Z</time>
      </trkpt>
      <trkpt lat="57.43075" lon="-5.74314">
        <ele>381.39</ele>
        <time>2021-03-20T19:41:10Z</time>
      </trkpt>
      <trkpt lat="57.43062" lon="-5.74328">
        <ele>378.5</ele>
        <time>2021-03-20T19:41:13Z</time>
      </trkpt>
      <trkpt lat="57.4305" lon="-5.74355">
        <ele>375.43</ele>
        <time>2021-03-20T19:41:16Z</time>
      </trkpt>
      <trkpt lat="57.43046" lon="-5.74395">
        <ele>373.04</ele>
        <time>2021-03-20T19:41:19Z</time>
      </trkpt>
      <trkpt lat="57.43048" lon="-5.74416">
        <ele>370.89</ele>
        <time>2021-03-20T19:41:22Z</time>
      </trkpt>
      <trkpt lat="57.43053" lon="-5.74441">
        <ele>368.91</ele>
        <time>2021-03-20T19:41:25Z</time>
      </trkpt>
      <trkpt lat="57.43066" lon="-5.74474">
        <ele>365.75</ele>
        <time>2021-03-20T19:41:27Z</time>
      </trkpt>
      <trkpt lat="57.43082" lon="-5.74498">
        <ele>364.92</ele>
        <time>2021-03-20T19:41:30Z</time>
      </trkpt>
      <trkpt lat="57.43146" lon="-5.7458">
        <ele>359.09</ele>
        <time>2021-03-20T19:41:33Z</time>
      </trkpt>
      <trkpt lat="57.43241" lon="-5.74668">
        <ele>351.57</ele>
        <time>2021-03-20T19:41:36Z</time>
      </trkpt>
      <trkpt lat="57.43292" lon="-5.74723">
        <ele>347.39</ele>
        <time>2021-03-20T19:41:39Z</time>
      </trkpt>
      <trkpt lat="57.43307" lon="-5.74751">
        <ele>343.91</ele>
        <time>2021-03-20T19:41:42Z</time>
      </trkpt>
      <trkpt lat="57.43346" lon="-5.7489">
        <ele>334.86</ele>
        <time>2021-03-20T19:41:45Z</time>
      </trkpt>
      <trkpt lat="57.43469" lon="-5.7513">
        <ele>310.75</ele>
        <time>2021-03-20T19:41:48Z</time>
      </trkpt>
      <trkpt lat="57.43474" lon="-5.75155">
        <ele>309.4</ele>
        <time>2021-03-20T19:41:51Z</time>
      </trkpt>
      <trkpt lat="57.43471" lon="-5.75175">
        <ele>308.42</ele>
        <time>2021-03-20T19:41:54Z</time>
      </trkpt>
      <trkpt lat="57.43448" lon="-5.75195">
        <ele>307.87</ele>
        <time>2021-03-20T19:41:57Z</time>
      </trkpt>
      <trkpt lat="57.4321" lon="-5.75341">
        <ele>286.57</ele>
        <time>2021-03-20T19:42:00Z</time>
      </trkpt>
      <trkpt lat="57.43206" lon="-5.75373">
        <ele>284.1</ele>
        <time>2021-03-20T19:42:03Z</time>
      </trkpt>
      <trkpt lat="57.43208" lon="-5.75403">
        <ele>282.48</ele>
        <time>2021-03-20T19:42:05Z</time>
      </trkpt>
      <trkpt lat="57.43222" lon="-5.75455">
        <ele>279.85</ele>
        <time>2021-03-20T19:42:08Z</time>
      </trkpt>
      <trkpt lat="57.43248" lon="-5.75517">
        <ele>275.05</ele>
        <time>2021-03-20T19:42:11Z</time>
      </trkpt>
      <trkpt lat="57.43251" lon="-5.75556">
        <ele>272.02</ele>
        <time>2021-03-20T19:42:14Z</time>
      </trkpt>
      <trkpt lat="57.43244" lon="-5.75581">
        <ele>269.99</ele>
        <time>2021-03-20T19:42:17Z</time>
      </trkpt>
      <trkpt lat="57.43234" lon="-5.75595">
        <ele>268.85</ele>
        <time>2021-03-20T19:42:20Z</time>
      </trkpt>
      <trkpt lat="57.4319" lon="-5.75626">
        <ele>265.75</ele>
        <time>2021-03-20T19:42:23Z</time>
      </trkpt>
      <trkpt lat="57.43162" lon="-5.75654">
        <ele>263.36</ele>
        <time>2021-03-20T19:42:26Z</time>
      </trkpt>
      <trkpt lat="57.43144" lon="-5.75678">
        <ele>261.27</ele>
        <time>2021-03-20T19:42:29Z</time>
      </trkpt>
      <trkpt lat="57.43119" lon="-5.75735">
        <ele>256.38</ele>
        <time>2021-03-20T19:42:32Z</time>
      </trkpt>
      <trkpt lat="57.431" lon="-5.75792">
        <ele>253.78</ele>
        <time>2021-03-20T19:42:35Z</time>
      </trkpt>
      <trkpt lat="57.43094" lon="-5.75813">
        <ele>253.76</ele>
        <time>2021-03-20T19:42:38Z</time>
      </trkpt>
      <trkpt lat="57.43091" lon="-5.75844">
        <ele>254.19</ele>
        <time>2021-03-20T19:42:40Z</time>
      </trkpt>
      <trkpt lat="57.43098" lon="-5.75876">
        <ele>253.44</ele>
        <time>2021-03-20T19:42:43Z</time>
      </trkpt>
      <trkpt lat="57.4319" lon="-5.76105">
        <ele>246.6</ele>
        <time>2021-03-20T19:42:46Z</time>
      </trkpt>
      <trkpt lat="57.43221" lon="-5.76159">
        <ele>243.08</ele>
        <time>2021-03-20T19:42:49Z</time>
      </trkpt>
      <trkpt lat="57.43249" lon="-5.7619">
        <ele>241.85</ele>
        <time>2021-03-20T19:42:52Z</time>
      </trkpt>
      <trkpt lat="57.43285" lon="-5.76209">
        <ele>239.85</ele>
        <time>2021-03-20T19:42:55Z</time>
      </trkpt>
      <trkpt lat="57.43322" lon="-5.76241">
        <ele>237.45</ele>
        <time>2021-03-20T19:42:58Z</time>
      </trkpt>
      <trkpt lat="57.43353" lon="-5.76282">
        <ele>233.19</ele>
        <time>2021-03-20T19:43:01Z</time>
      </trkpt>
      <trkpt lat="57.4349" lon="-5.7651">
        <ele>225.58</ele>
        <time>2021-03-20T19:43:04Z</time>
      </trkpt>
      <trkpt lat="57.4356" lon="-5.76668">
        <ele>220.04</ele>
        <time>2021-03-20T19:43:07Z</time>
      </trkpt>
      <trkpt lat="57.43606" lon="-5.76761">
        <ele>215.34</ele>
        <time>2021-03-20T19:43:10Z</time>
      </trkpt>
      <trkpt lat="57.4363" lon="-5.76826">
        <ele>212.08</ele>
        <time>2021-03-20T19:43:13Z</time>
      </trkpt>
      <trkpt lat="57.43662" lon="-5.76966">
        <ele>210.52</ele>
        <time>2021-03-20T19:43:16Z</time>
      </trkpt>
      <trkpt lat="57.43715" lon="-5.77072">
        <ele>206.25</ele>
        <time>2021-03-20T19:43:18Z</time>
      </trkpt>
      <trkpt lat="57.43749" lon="-5.77183">
        <ele>202.74</ele>
        <time>2021-03-20T19:43:21Z</time>
      </trkpt>
      <trkpt lat="57.43799" lon="-5.77313">
        <ele>203.03</ele>
        <time>2021-03-20T19:43:24Z</time>
      </trkpt>
      <trkpt lat="57.4383" lon="-5.77384">
        <ele>199.51</ele>
        <time>2021-03-20T19:43:27Z</time>
      </trkpt>
      <trkpt lat="57.43858" lon="-5.77439">
        <ele>195.43</ele>
        <time>2021-03-20T19:43:30Z</time>
      </trkpt>
      <trkpt lat="57.43909" lon="-5.77523">
        <ele>192.83</ele>
        <time>2021-03-20T19:43:33Z</time>
      </trkpt>
      <trkpt lat="57.4393" lon="-5.77597">
        <ele>190.07</ele>
        <time>2021-03-20T19:43:36Z</time>
      </trkpt>
      <trkpt lat="57.43935" lon="-5.77653">
        <ele>189.01</ele>
        <time>2021-03-20T19:43:39Z</time>
      </trkpt>
      <trkpt lat="57.43935" lon="-5.77687">
        <ele>188.04</ele>
        <time>2021-03-20T19:43:42Z</time>
      </trkpt>
      <trkpt lat="57.43891" lon="-5.78035">
        <ele>179.82</ele>
        <time>2021-03-20T19:43:45Z</time>
      </trkpt>
      <trkpt lat="57.4388" lon="-5.78073">
        <ele>178.37</ele>
        <time>2021-03-20T19:43:48Z</time>
      </trkpt>
      <trkpt lat="57.43796" lon="-5.78274">
        <ele>170.97</ele>
        <time>2021-03-20T19:43:51Z</time>
      </trkpt>
      <trkpt lat="57.43789" lon="-5.78309">
        <ele>169.06</ele>
        <time>2021-03-20T19:43:54Z</time>
      </trkpt>
      <trkpt lat="57.43788" lon="-5.78327">
        <ele>168.48</ele>
        <time>2021-03-20T19:43:56Z</time>
      </trkpt>
      <trkpt lat="57.43796" lon="-5.78418">
        <ele>160.91</ele>
        <time>2021-03-20T19:43:59Z</time>
      </trkpt>
      <trkpt lat="57.43797" lon="-5.78464">
        <ele>156.16</ele>
        <time>2021-03-20T19:44:02Z</time>
      </trkpt>
      <trkpt lat="57.43774" lon="-5.78564">
        <ele>151.92</ele>
        <time>2021-03-20T19:44:05Z</time>
      </trkpt>
      <trkpt lat="57.43757" lon="-5.78683">
        <ele>146.78</ele>
        <time>2021-03-20T19:44:08Z</time>
      </trkpt>
      <trkpt lat="57.4374" lon="-5.78766">
        <ele>145.96</ele>
        <time>2021-03-20T19:44:11Z</time>
      </trkpt>
      <trkpt lat="57.43685" lon="-5.78977">
        <ele>139.06</ele>
        <time>2021-03-20T19:44:14Z</time>
      </trkpt>
      <trkpt lat="57.43673" lon="-5.79011">
        <ele>137.4</ele>
        <time>2021-03-20T19:44:17Z</time>
      </trkpt>
      <trkpt lat="57.43628" lon="-5.79106">
        <ele>131.95</ele>
        <time>2021-03-20T19:44:20Z</time>
      </trkpt>
      <trkpt lat="57.43618" lon="-5.79137">
        <ele>130.2</ele>
        <time>2021-03-20T19:44:23Z</time>
      </trkpt>
      <trkpt lat="57.43605" lon="-5.7927">
        <ele>124.43</ele>
        <time>2021-03-20T19:44:26Z</time>
      </trkpt>
      <trkpt lat="57.43599" lon="-5.79299">
        <ele>122.9</ele>
        <time>2021-03-20T19:44:29Z</time>
      </trkpt>
      <trkpt lat="57.43568" lon="-5.79385">
        <ele>118.23</ele>
        <time>2021-03-20T19:44:31Z</time>
      </trkpt>
      <trkpt lat="57.43527" lon="-5.79485">
        <ele>113.78</ele>
        <time>2021-03-20T19:44:34Z</time>
      </trkpt>
      <trkpt lat="57.43493" lon="-5.79544">
        <ele>111.67</ele>
        <time>2021-03-20T19:44:37Z</time>
      </trkpt>
      <trkpt lat="57.4347" lon="-5.7957">
        <ele>111.3</ele>
        <time>2021-03-20T19:44:40Z</time>
      </trkpt>
      <trkpt lat="57.43454" lon="-5.79593">
        <ele>110.9</ele>
        <time>2021-03-20T19:44:43Z</time>
      </trkpt>
      <trkpt lat="57.43445" lon="-5.79616">
        <ele>110.39</ele>
        <time>2021-03-20T19:44:46Z</time>
      </trkpt>
      <trkpt lat="57.43438" lon="-5.79665">
        <ele>107.46</ele>
        <time>2021-03-20T19:44:49Z</time>
      </trkpt>
      <trkpt lat="57.43437" lon="-5.79774">
        <ele>99.51</ele>
        <time>2021-03-20T19:44:52Z</time>
      </trkpt>
      <trkpt lat="57.43439" lon="-5.79824">
        <ele>97.2</ele>
        <time>2021-03-20T19:44:55Z</time>
      </trkpt>
      <trkpt lat="57.43469" lon="-5.80021">
        <ele>85.95</ele>
        <time>2021-03-20T19:44:58Z</time>
      </trkpt>
      <trkpt lat="57.43472" lon="-5.80064">
        <ele>83.1</ele>
        <time>2021-03-20T19:45:01Z</time>
      </trkpt>
      <trkpt lat="57.43473" lon="-5.80113">
        <ele>78.82</ele>
        <time>2021-03-20T19:45:04Z</time>
      </trkpt>
      <trkpt lat="57.43451" lon="-5.80286">
        <ele>72.93</ele>
        <time>2021-03-20T19:45:07Z</time>
      </trkpt>
      <trkpt lat="57.43432" lon="-5.80375">
        <ele>67.44</ele>
        <time>2021-03-20T19:45:09Z</time>
      </trkpt>
      <trkpt lat="57.43372" lon="-5.80597">
        <ele>60.5</ele>
        <time>2021-03-20T19:45:12Z</time>
      </trkpt>
      <trkpt lat="57.43282" lon="-5.80941">
        <ele>43</ele>
        <time>2021-03-20T19:45:15Z</time>
      </trkpt>
      <trkpt lat="57.4327" lon="-5.8096">
        <ele>41.47</ele>
        <time>2021-03-20T19:45:18Z</time>
      </trkpt>
      <trkpt lat="57.43198" lon="-5.80952">
        <ele>42.03</ele>
        <time>2021-03-20T19:45:21Z</time>
      </trkpt>
      <trkpt lat="57.43188" lon="-5.8096">
        <ele>40.98</ele>
        <time>2021-03-20T19:45:24Z</time>
      </trkpt>
      <trkpt lat="57.43186" lon="-5.80971">
        <ele>39.47</ele>
        <time>2021-03-20T19:45:27Z</time>
      </trkpt>
      <trkpt lat="57.43188" lon="-5.80978">
        <ele>38.59</ele>
        <time>2021-03-20T19:45:30Z</time>
      </trkpt>
      <trkpt lat="57.43229" lon="-5.80989">
        <ele>36.9</ele>
        <time>2021-03-20T19:45:33Z</time>
      </trkpt>
      <trkpt lat="57.43253" lon="-5.81011">
        <ele>35.18</ele>
        <time>2021-03-20T19:45:35Z</time>
      </trkpt>
      <trkpt lat="57.43277" lon="-5.81056">
        <ele>32.96</ele>
        <time>2021-03-20T19:45:38Z</time>
      </trkpt>
      <trkpt lat="57.43301" lon="-5.81161">
        <ele>29.36</ele>
        <time>2021-03-20T19:45:40Z</time>
      </trkpt>
      <trkpt lat="57.43326" lon="-5.81247">
        <ele>23.08</ele>
        <time>2021-03-20T19:45:43Z</time>
      </trkpt>
      <trkpt lat="57.43343" lon="-5.81296">
        <ele>14.86</ele>
        <time>2021-03-20T19:45:46Z</time>
      </trkpt>
      <trkpt lat="57.43363" lon="-5.81322">
        <ele>8.15</ele>
        <time>2021-03-20T19:45:48Z</time>
      </trkpt>
      <trkpt lat="57.43385" lon="-5.81263">
        <ele>5.59</ele>
        <time>2021-03-20T19:45:51Z</time>
      </trkpt>
      <trkpt lat="57.43467" lon="-5.81098">
        <ele>5.34</ele>
        <time>2021-03-20T19:45:55Z</time>
      </trkpt>
      <trkpt lat="57.43701" lon="-5.80651">
        <ele>11.98</ele>
        <time>2021-03-20T19:45:58Z</time>
      </trkpt>
      <trkpt lat="57.43722" lon="-5.80614">
        <ele>9.54</ele>
        <time>2021-03-20T19:46:01Z</time>
      </trkpt>
      <trkpt lat="57.43769" lon="-5.80555">
        <ele>10.08</ele>
        <time>2021-03-20T19:46:04Z</time>
      </trkpt>
      <trkpt lat="57.43792" lon="-5.80537">
        <ele>10.77</ele>
        <time>2021-03-20T19:46:08Z</time>
      </trkpt>
      <trkpt lat="57.43809" lon="-5.80539">
        <ele>9.84</ele>
        <time>2021-03-20T19:46:11Z</time>
      </trkpt>
      <trkpt lat="57.43899" lon="-5.80574">
        <ele>9.78</ele>
        <time>2021-03-20T19:46:14Z</time>
      </trkpt>
      <trkpt lat="57.4393" lon="-5.80591">
        <ele>9.94</ele>
        <time>2021-03-20T19:46:17Z</time>
      </trkpt>
      <trkpt lat="57.43947" lon="-5.80606">
        <ele>9.53</ele>
        <time>2021-03-20T19:46:21Z</time>
      </trkpt>
      <trkpt lat="57.44009" lon="-5.80671">
        <ele>7.99</ele>
        <time>2021-03-20T19:46:24Z</time>
      </trkpt>
      <trkpt lat="57.44082" lon="-5.80774">
        <ele>4.96</ele>
        <time>2021-03-20T19:46:27Z</time>
      </trkpt>
      <trkpt lat="57.44098" lon="-5.80809">
        <ele>4</ele>
        <time>2021-03-20T19:46:30Z</time>
      </trkpt>
      <trkpt lat="57.44105" lon="-5.80837">
        <ele>3.97</ele>
        <time>2021-03-20T19:46:34Z</time>
      </trkpt>
      <trkpt lat="57.44112" lon="-5.8088">
        <ele>4.03</ele>
        <time>2021-03-20T19:46:37Z</time>
      </trkpt>
      <trkpt lat="57.44123" lon="-5.80919">
        <ele>3.37</ele>
        <time>2021-03-20T19:46:40Z</time>
      </trkpt>
      <trkpt lat="57.44137" lon="-5.80955">
        <ele>2.56</ele>
        <time>2021-03-20T19:46:43Z</time>
      </trkpt>
      <trkpt lat="57.44152" lon="-5.80965">
        <ele>3.18</ele>
        <time>2021-03-20T19:46:47Z</time>
      </trkpt>
      <trkpt lat="57.44181" lon="-5.80965">
        <ele>4.41</ele>
        <time>2021-03-20T19:46:50Z</time>
      </trkpt>
      <trkpt lat="57.44193" lon="-5.80956">
        <ele>5.16</ele>
        <time>2021-03-20T19:46:53Z</time>
      </trkpt>
      <trkpt lat="57.44243" lon="-5.80886">
        <ele>7.35</ele>
        <time>2021-03-20T19:46:56Z</time>
      </trkpt>
      <trkpt lat="57.44255" lon="-5.80877">
        <ele>7.15</ele>
        <time>2021-03-20T19:47:00Z</time>
      </trkpt>
      <trkpt lat="57.44264" lon="-5.80885">
        <ele>6.24</ele>
        <time>2021-03-20T19:47:03Z</time>
      </trkpt>
      <trkpt lat="57.44272" lon="-5.80898">
        <ele>5.01</ele>
        <time>2021-03-20T19:47:06Z</time>
      </trkpt>
      <trkpt lat="57.44295" lon="-5.80958">
        <ele>3.14</ele>
        <time>2021-03-20T19:47:09Z</time>
      </trkpt>
      <trkpt lat="57.4433" lon="-5.81047">
        <ele>3</ele>
        <time>2021-03-20T19:47:13Z</time>
      </trkpt>
      <trkpt lat="57.44363" lon="-5.81001">
        <ele>4.96</ele>
        <time>2021-03-20T19:47:27Z</time>
      </trkpt>
      <trkpt lat="57.4451" lon="-5.80813">
        <ele>6.74</ele>
        <time>2021-03-20T19:47:42Z</time>
      </trkpt>
      <trkpt lat="57.44574" lon="-5.80715">
        <ele>8.98</ele>
        <time>2021-03-20T19:47:57Z</time>
      </trkpt>
      <trkpt lat="57.44646" lon="-5.80596">
        <ele>8.76</ele>
        <time>2021-03-20T19:48:11Z</time>
      </trkpt>
      <trkpt lat="57.44664" lon="-5.80559">
        <ele>8.1</ele>
        <time>2021-03-20T19:48:26Z</time>
      </trkpt>
      <trkpt lat="57.44681" lon="-5.80499">
        <ele>7.02</ele>
        <time>2021-03-20T19:48:41Z</time>
      </trkpt>
      <trkpt lat="57.44691" lon="-5.80403">
        <ele>9.63</ele>
        <time>2021-03-20T19:48:55Z</time>
      </trkpt>
      <trkpt lat="57.44699" lon="-5.80346">
        <ele>11.23</ele>
        <time>2021-03-20T19:49:10Z</time>
      </trkpt>
      <trkpt lat="57.44717" lon="-5.80274">
        <ele>11.61</ele>
        <time>2021-03-20T19:49:24Z</time>
      </trkpt>
      <trkpt lat="57.44767" lon="-5.80153">
        <ele>10.25</ele>
        <time>2021-03-20T19:49:39Z</time>
      </trkpt>
      <trkpt lat="57.4479" lon="-5.80113">
        <ele>10.11</ele>
        <time>2021-03-20T19:49:54Z</time>
      </trkpt>
      <trkpt lat="57.44806" lon="-5.80088">
        <ele>9.03</ele>
        <time>2021-03-20T19:50:08Z</time>
      </trkpt>
      <trkpt lat="57.44828" lon="-5.80062">
        <ele>10.59</ele>
        <time>2021-03-20T19:50:23Z</time>
      </trkpt>
      <trkpt lat="57.44965" lon="-5.7991">
        <ele>14.23</ele>
        <time>2021-03-20T19:50:38Z</time>
      </trkpt>
      <trkpt lat="57.45035" lon="-5.79848">
        <ele>14.23</ele>
        <time>2021-03-20T19:50:52Z</time>
      </trkpt>
      <trkpt lat="57.45067" lon="-5.79843">
        <ele>13.8</ele>
        <time>2021-03-20T19:51:07Z</time>
      </trkpt>
      <trkpt lat="57.45155" lon="-5.79869">
        <ele>15.58</ele>
        <time>2021-03-20T19:51:21Z</time>
      </trkpt>
      <trkpt lat="57.45219" lon="-5.79895">
        <ele>18.99</ele>
        <time>2021-03-20T19:51:36Z</time>
      </trkpt>
      <trkpt lat="57.45252" lon="-5.79901">
        <ele>19.18</ele>
        <time>2021-03-20T19:51:51Z</time>
      </trkpt>
    </trkseg>
  </trk>
</gpx>